GEFSCGP_prec_meanprecacc_006.txt.gz
Total_Precipitation_Accumulation
0.00 0.00 0.00 0.00 0.00 0.00 0.00 0.00 0.00 0.00 0.00 0.00 0.00 0.00 0.00 0.00 0.00 0.00 0.00 0.00 0.02 0.03 0.06 0.07 0.02 0.01 0.01 0.00 0.00 0.00 0.00 0.00 0.01 0.02 0.02 0.01 0.01 0.01 0.00 0.00 0.00 0.00 0.00 0.00
0.00 0.00 0.00 0.00 0.00 0.00 0.00 0.00 0.00 0.00 0.00 0.00 0.00 0.00 0.00 0.00 0.00 0.00 0.00 0.00 0.02 0.05 0.09 0.12 0.06 0.07 0.06 0.02 0.00 0.00 0.00 0.00 0.00 0.01 0.01 0.01 0.00 0.00 0.00 0.00 0.00 0.00 0.00 0.00
0.00 0.00 0.00 0.00 0.00 0.00 0.00 0.00 0.00 0.00 0.00 0.00 0.00 0.00 0.00 0.00 0.00 0.00 0.00 0.00 0.01 0.05 0.10 0.13 0.10 0.13 0.10 0.05 0.03 0.01 0.00 0.00 0.01 0.00 0.00 0.00 0.00 0.00 0.00 0.00 0.00 0.00 0.00 0.00
0.00 0.00 0.00 0.00 0.00 0.00 0.00 0.00 0.00 0.00 0.00 0.00 0.00 0.00 0.00 0.00 0.00 0.00 0.00 0.00 0.00 0.02 0.04 0.06 0.06 0.09 0.09 0.09 0.06 0.03 0.03 0.03 0.02 0.01 0.00 0.00 0.00 0.00 0.00 0.00 0.00 0.00 0.00 0.00
0.00 0.00 0.00 0.00 0.00 0.00 0.00 0.00 0.00 0.00 0.00 0.00 0.00 0.00 0.00 0.00 0.00 0.00 0.00 0.00 0.00 0.00 0.01 0.02 0.04 0.07 0.10 0.10 0.07 0.06 0.05 0.04 0.02 0.02 0.01 0.01 0.00 0.00 0.00 0.00 0.00 0.00 0.00 0.00
0.00 0.00 0.00 0.00 0.00 0.00 0.00 0.00 0.00 0.00 0.00 0.00 0.00 0.00 0.00 0.00 0.00 0.00 0.00 0.00 0.00 0.00 0.01 0.01 0.02 0.04 0.08 0.09 0.07 0.06 0.04 0.02 0.01 0.01 0.00 0.00 0.00 0.00 0.00 0.00 0.00 0.00 0.00 0.00
0.00 0.00 0.00 0.00 0.00 0.00 0.00 0.00 0.00 0.00 0.00 0.00 0.00 0.00 0.00 0.00 0.00 0.00 0.00 0.00 0.00 0.01 0.01 0.01 0.01 0.02 0.05 0.07 0.07 0.06 0.04 0.03 0.01 0.00 0.00 0.00 0.00 0.00 0.00 0.00 0.00 0.00 0.00 0.00
0.00 0.00 0.00 0.00 0.00 0.00 0.00 0.00 0.00 0.00 0.00 0.00 0.00 0.00 0.00 0.00 0.00 0.00 0.00 0.00 0.01 0.01 0.01 0.01 0.01 0.02 0.05 0.07 0.08 0.07 0.04 0.02 0.00 0.00 0.00 0.00 0.00 0.00 0.00 0.00 0.00 0.00 0.00 0.00
0.00 0.00 0.00 0.00 0.00 0.00 0.00 0.00 0.00 0.00 0.00 0.00 0.00 0.00 0.00 0.00 0.00 0.00 0.00 0.00 0.01 0.03 0.03 0.02 0.02 0.04 0.07 0.08 0.07 0.05 0.02 0.00 0.00 0.00 0.00 0.00 0.00 0.00 0.00 0.00 0.00 0.00 0.00 0.00
0.00 0.00 0.00 0.00 0.00 0.00 0.00 0.00 0.00 0.00 0.00 0.00 0.00 0.00 0.00 0.00 0.00 0.00 0.00 0.00 0.02 0.03 0.03 0.03 0.04 0.06 0.07 0.05 0.04 0.02 0.00 0.00 0.00 0.00 0.00 0.00 0.00 0.00 0.00 0.00 0.00 0.00 0.00 0.00
0.00 0.00 0.00 0.00 0.00 0.00 0.00 0.00 0.00 0.00 0.00 0.00 0.00 0.00 0.00 0.00 0.00 0.00 0.00 0.01 0.01 0.02 0.02 0.02 0.03 0.04 0.05 0.03 0.02 0.01 0.00 0.00 0.00 0.00 0.00 0.00 0.00 0.00 0.00 0.00 0.00 0.00 0.00 0.00
0.00 0.00 0.00 0.00 0.00 0.00 0.00 0.00 0.00 0.00 0.00 0.00 0.00 0.00 0.00 0.00 0.00 0.00 0.00 0.01 0.02 0.02 0.02 0.03 0.03 0.04 0.04 0.03 0.02 0.01 0.01 0.01 0.00 0.00 0.00 0.00 0.00 0.00 0.00 0.00 0.00 0.00 0.00 0.00
0.00 0.00 0.00 0.00 0.00 0.00 0.00 0.00 0.00 0.00 0.00 0.00 0.00 0.00 0.00 0.00 0.00 0.00 0.00 0.01 0.03 0.03 0.02 0.04 0.04 0.04 0.04 0.04 0.03 0.02 0.02 0.02 0.01 0.01 0.00 0.00 0.00 0.00 0.00 0.00 0.00 0.00 0.00 0.00
0.00 0.00 0.00 0.00 0.00 0.00 0.00 0.00 0.00 0.00 0.00 0.00 0.00 0.00 0.00 0.00 0.00 0.00 0.00 0.01 0.03 0.03 0.03 0.03 0.03 0.04 0.04 0.04 0.03 0.03 0.02 0.01 0.00 0.00 0.00 0.00 0.00 0.00 0.00 0.00 0.00 0.00 0.00 0.00
0.00 0.00 0.00 0.00 0.00 0.00 0.00 0.00 0.00 0.00 0.00 0.00 0.00 0.00 0.00 0.00 0.00 0.00 0.00 0.01 0.03 0.04 0.04 0.03 0.02 0.04 0.03 0.02 0.01 0.01 0.00 0.00 0.00 0.00 0.00 0.00 0.00 0.00 0.00 0.00 0.00 0.00 0.00 0.00
0.00 0.00 0.00 0.00 0.00 0.00 0.00 0.00 0.00 0.00 0.00 0.00 0.00 0.00 0.00 0.00 0.00 0.00 0.00 0.02 0.03 0.03 0.02 0.02 0.04 0.05 0.03 0.01 0.01 0.00 0.00 0.00 0.00 0.00 0.00 0.00 0.00 0.00 0.00 0.00 0.00 0.00 0.00 0.00
0.00 0.00 0.00 0.00 0.00 0.00 0.00 0.00 0.00 0.00 0.00 0.00 0.00 0.00 0.00 0.00 0.00 0.00 0.01 0.02 0.04 0.04 0.03 0.06 0.09 0.07 0.03 0.02 0.01 0.01 0.00 0.00 0.00 0.00 0.00 0.00 0.00 0.00 0.00 0.00 0.00 0.00 0.00 0.00
0.00 0.00 0.00 0.00 0.00 0.00 0.00 0.00 0.00 0.00 0.00 0.00 0.00 0.00 0.00 0.00 0.00 0.00 0.00 0.01 0.02 0.04 0.08 0.11 0.11 0.07 0.05 0.04 0.03 0.02 0.00 0.00 0.00 0.00 0.00 0.00 0.00 0.00 0.00 0.00 0.00 0.00 0.00 0.00
0.00 0.00 0.00 0.00 0.00 0.00 0.00 0.00 0.00 0.00 0.00 0.00 0.00 0.00 0.00 0.00 0.00 0.00 0.00 0.01 0.03 0.07 0.11 0.14 0.14 0.12 0.09 0.07 0.05 0.02 0.00 0.00 0.00 0.00 0.00 0.00 0.00 0.00 0.00 0.00 0.00 0.00 0.00 0.00
0.00 0.00 0.00 0.00 0.00 0.00 0.00 0.00 0.00 0.00 0.00 0.00 0.00 0.00 0.00 0.00 0.00 0.00 0.00 0.00 0.02 0.05 0.11 0.16 0.18 0.15 0.12 0.08 0.03 0.01 0.00 0.00 0.00 0.00 0.00 0.00 0.00 0.00 0.00 0.00 0.00 0.00 0.00 0.00
0.00 0.00 0.00 0.00 0.00 0.00 0.00 0.00 0.00 0.00 0.00 0.00 0.00 0.00 0.00 0.00 0.01 0.00 0.00 0.01 0.02 0.06 0.11 0.19 0.22 0.18 0.10 0.03 0.01 0.00 0.00 0.00 0.00 0.00 0.00 0.00 0.00 0.00 0.00 0.00 0.00 0.00 0.00 0.00
0.00 0.00 0.00 0.00 0.00 0.00 0.00 0.00 0.00 0.00 0.00 0.00 0.00 0.00 0.00 0.00 0.00 0.00 0.01 0.01 0.03 0.06 0.13 0.16 0.13 0.07 0.03 0.01 0.00 0.00 0.00 0.00 0.00 0.00 0.00 0.00 0.00 0.00 0.00 0.00 0.00 0.00 0.00 0.00
0.00 0.00 0.00 0.00 0.00 0.00 0.00 0.00 0.00 0.00 0.00 0.00 0.00 0.00 0.00 0.01 0.01 0.01 0.01 0.02 0.03 0.05 0.06 0.05 0.03 0.01 0.00 0.00 0.00 0.00 0.00 0.00 0.00 0.00 0.00 0.00 0.00 0.00 0.00 0.00 0.00 0.00 0.00 0.01
0.00 0.00 0.00 0.00 0.00 0.00 0.00 0.00 0.00 0.00 0.00 0.00 0.00 0.01 0.01 0.01 0.01 0.01 0.01 0.01 0.01 0.01 0.01 0.00 0.00 0.00 0.00 0.00 0.00 0.00 0.00 0.00 0.00 0.00 0.00 0.00 0.00 0.00 0.00 0.00 0.00 0.00 0.00 0.01
0.00 0.00 0.00 0.00 0.00 0.00 0.00 0.00 0.00 0.00 0.00 0.00 0.01 0.03 0.04 0.03 0.01 0.01 0.01 0.00 0.00 0.00 0.00 0.00 0.00 0.00 0.00 0.00 0.00 0.00 0.00 0.00 0.00 0.00 0.00 0.00 0.00 0.00 0.00 0.00 0.00 0.00 0.00 0.00
0.00 0.01 0.01 0.01 0.01 0.01 0.01 0.01 0.01 0.01 0.01 0.01 0.05 0.10 0.07 0.03 0.01 0.00 0.00 0.00 0.00 0.00 0.00 0.00 0.00 0.00 0.00 0.00 0.00 0.00 0.00 0.00 0.00 0.00 0.00 0.00 0.00 0.00 0.00 0.00 0.00 0.00 0.00 0.00

GEFSCGP_prec_meanprecacc_012.txt.gz
Total_Precipitation_Accumulation
0.00 0.00 0.00 0.00 0.00 0.00 0.00 0.00 0.00 0.00 0.00 0.00 0.00 0.00 0.00 0.00 0.00 0.00 0.00 0.00 0.02 0.03 0.07 0.09 0.03 0.02 0.01 0.00 0.00 0.00 0.00 0.01 0.02 0.04 0.05 0.04 0.03 0.02 0.01 0.00 0.00 0.00 0.00 0.00
0.00 0.00 0.00 0.00 0.00 0.00 0.00 0.00 0.00 0.00 0.00 0.00 0.00 0.00 0.00 0.00 0.00 0.00 0.00 0.00 0.02 0.05 0.11 0.16 0.10 0.09 0.07 0.02 0.00 0.00 0.00 0.01 0.02 0.04 0.05 0.03 0.01 0.00 0.00 0.00 0.00 0.00 0.00 0.00
0.00 0.00 0.00 0.00 0.00 0.00 0.00 0.00 0.00 0.00 0.00 0.00 0.00 0.00 0.00 0.00 0.00 0.00 0.00 0.00 0.01 0.05 0.11 0.16 0.14 0.16 0.11 0.06 0.03 0.01 0.02 0.03 0.04 0.03 0.01 0.01 0.01 0.00 0.00 0.00 0.00 0.00 0.00 0.00
0.00 0.00 0.00 0.00 0.00 0.00 0.00 0.00 0.00 0.00 0.00 0.00 0.00 0.00 0.00 0.00 0.00 0.00 0.00 0.00 0.00 0.02 0.04 0.06 0.09 0.12 0.10 0.10 0.08 0.07 0.10 0.10 0.06 0.03 0.02 0.02 0.02 0.01 0.01 0.01 0.01 0.00 0.00 0.00
0.00 0.00 0.00 0.00 0.00 0.00 0.00 0.00 0.00 0.00 0.00 0.00 0.00 0.00 0.00 0.00 0.00 0.00 0.00 0.00 0.00 0.00 0.01 0.02 0.04 0.09 0.12 0.16 0.15 0.16 0.16 0.12 0.07 0.05 0.05 0.03 0.03 0.03 0.02 0.01 0.00 0.00 0.00 0.00
0.00 0.00 0.00 0.00 0.00 0.00 0.00 0.00 0.00 0.00 0.00 0.00 0.00 0.00 0.00 0.00 0.00 0.00 0.00 0.00 0.00 0.00 0.01 0.01 0.04 0.09 0.15 0.20 0.20 0.20 0.18 0.14 0.11 0.08 0.07 0.06 0.04 0.03 0.02 0.01 0.00 0.00 0.00 0.00
0.00 0.00 0.00 0.00 0.00 0.00 0.00 0.00 0.00 0.00 0.00 0.00 0.00 0.00 0.00 0.00 0.00 0.00 0.00 0.00 0.00 0.01 0.01 0.03 0.06 0.07 0.12 0.16 0.18 0.17 0.15 0.13 0.10 0.07 0.06 0.04 0.03 0.01 0.01 0.00 0.00 0.00 0.00 0.00
0.00 0.00 0.00 0.00 0.00 0.00 0.00 0.00 0.00 0.00 0.00 0.00 0.00 0.00 0.00 0.00 0.00 0.00 0.00 0.00 0.01 0.01 0.03 0.05 0.05 0.05 0.09 0.13 0.16 0.15 0.12 0.09 0.06 0.04 0.04 0.02 0.01 0.01 0.01 0.00 0.00 0.00 0.00 0.00
0.00 0.00 0.00 0.00 0.00 0.00 0.00 0.00 0.00 0.00 0.00 0.00 0.00 0.00 0.00 0.00 0.00 0.00 0.00 0.00 0.01 0.03 0.05 0.05 0.04 0.06 0.09 0.11 0.11 0.12 0.09 0.06 0.04 0.03 0.02 0.01 0.01 0.00 0.00 0.00 0.00 0.00 0.00 0.00
0.00 0.00 0.00 0.00 0.00 0.00 0.00 0.00 0.00 0.00 0.00 0.00 0.00 0.00 0.00 0.00 0.00 0.00 0.00 0.01 0.03 0.04 0.04 0.03 0.04 0.06 0.08 0.07 0.09 0.08 0.06 0.04 0.03 0.02 0.01 0.01 0.01 0.00 0.00 0.00 0.00 0.00 0.00 0.00
0.00 0.00 0.00 0.00 0.00 0.00 0.00 0.00 0.00 0.00 0.00 0.00 0.00 0.00 0.00 0.00 0.00 0.00 0.00 0.02 0.03 0.03 0.02 0.02 0.03 0.05 0.06 0.05 0.08 0.08 0.06 0.05 0.03 0.02 0.01 0.01 0.00 0.00 0.00 0.00 0.00 0.00 0.00 0.00
0.00 0.00 0.00 0.00 0.00 0.00 0.00 0.00 0.00 0.00 0.00 0.00 0.00 0.00 0.00 0.00 0.00 0.00 0.00 0.02 0.03 0.03 0.02 0.03 0.04 0.04 0.05 0.05 0.07 0.09 0.09 0.06 0.03 0.02 0.01 0.00 0.00 0.00 0.00 0.00 0.00 0.00 0.00 0.00
0.00 0.00 0.00 0.00 0.00 0.00 0.00 0.00 0.00 0.00 0.00 0.00 0.00 0.00 0.00 0.00 0.00 0.01 0.03 0.04 0.06 0.04 0.02 0.04 0.04 0.04 0.06 0.09 0.11 0.11 0.09 0.05 0.03 0.01 0.00 0.00 0.00 0.00 0.00 0.00 0.00 0.00 0.00 0.00
0.00 0.00 0.00 0.00 0.00 0.00 0.00 0.00 0.00 0.00 0.00 0.00 0.00 0.00 0.01 0.02 0.03 0.09 0.21 0.18 0.09 0.04 0.03 0.03 0.03 0.05 0.08 0.11 0.11 0.08 0.06 0.03 0.02 0.01 0.01 0.00 0.00 0.00 0.00 0.00 0.00 0.00 0.00 0.00
0.00 0.00 0.00 0.00 0.00 0.00 0.00 0.00 0.00 0.00 0.00 0.00 0.00 0.00 0.02 0.07 0.13 0.19 0.26 0.16 0.07 0.04 0.04 0.03 0.03 0.05 0.08 0.08 0.06 0.04 0.04 0.03 0.02 0.02 0.01 0.01 0.00 0.00 0.00 0.00 0.00 0.01 0.01 0.01
0.00 0.00 0.00 0.00 0.00 0.00 0.00 0.00 0.00 0.00 0.00 0.00 0.00 0.00 0.01 0.01 0.04 0.09 0.14 0.12 0.06 0.03 0.02 0.02 0.04 0.07 0.08 0.06 0.05 0.05 0.05 0.04 0.04 0.03 0.02 0.01 0.00 0.00 0.00 0.00 0.00 0.00 0.00 0.00
0.00 0.00 0.00 0.00 0.00 0.00 0.00 0.00 0.00 0.00 0.00 0.00 0.00 0.01 0.01 0.02 0.03 0.04 0.08 0.12 0.11 0.05 0.03 0.06 0.09 0.10 0.08 0.07 0.07 0.07 0.08 0.07 0.05 0.03 0.02 0.02 0.01 0.01 0.01 0.00 0.00 0.00 0.00 0.00
0.00 0.00 0.00 0.00 0.00 0.00 0.00 0.00 0.00 0.00 0.00 0.00 0.00 0.00 0.00 0.00 0.01 0.00 0.01 0.04 0.07 0.07 0.08 0.12 0.12 0.11 0.11 0.12 0.13 0.13 0.11 0.09 0.06 0.05 0.04 0.03 0.02 0.01 0.00 0.00 0.00 0.00 0.00 0.00
0.00 0.00 0.00 0.00 0.00 0.00 0.00 0.00 0.00 0.00 0.00 0.00 0.00 0.00 0.00 0.00 0.00 0.01 0.01 0.02 0.04 0.08 0.14 0.18 0.21 0.22 0.22 0.21 0.20 0.17 0.12 0.09 0.07 0.06 0.04 0.02 0.01 0.00 0.00 0.00 0.00 0.00 0.00 0.00
0.00 0.00 0.00 0.00 0.00 0.00 0.01 0.00 0.00 0.00 0.02 0.01 0.00 0.00 0.00 0.00 0.02 0.02 0.00 0.01 0.03 0.08 0.16 0.25 0.29 0.29 0.28 0.23 0.17 0.13 0.10 0.08 0.06 0.03 0.01 0.01 0.00 0.00 0.00 0.00 0.00 0.00 0.01 0.01
0.02 0.01 0.00 0.01 0.02 0.01 0.01 0.00 0.00 0.01 0.04 0.01 0.00 0.01 0.02 0.02 0.02 0.01 0.00 0.01 0.03 0.08 0.16 0.26 0.31 0.29 0.23 0.15 0.10 0.08 0.05 0.03 0.02 0.01 0.00 0.00 0.00 0.00 0.00 0.00 0.01 0.01 0.01 0.01
0.03 0.04 0.04 0.04 0.06 0.06 0.02 0.00 0.00 0.02 0.01 0.00 0.00 0.02 0.05 0.03 0.01 0.01 0.01 0.02 0.04 0.08 0.16 0.20 0.19 0.14 0.09 0.05 0.04 0.03 0.02 0.01 0.00 0.00 0.00 0.00 0.00 0.00 0.00 0.00 0.01 0.01 0.01 0.01
0.01 0.02 0.05 0.06 0.06 0.05 0.01 0.00 0.00 0.00 0.00 0.00 0.00 0.04 0.05 0.02 0.01 0.01 0.01 0.02 0.04 0.06 0.08 0.07 0.05 0.03 0.02 0.02 0.02 0.01 0.01 0.00 0.00 0.00 0.00 0.00 0.00 0.00 0.00 0.00 0.01 0.01 0.01 0.01
0.02 0.00 0.00 0.00 0.00 0.00 0.00 0.00 0.00 0.00 0.00 0.00 0.02 0.05 0.04 0.01 0.01 0.01 0.01 0.02 0.02 0.02 0.02 0.01 0.01 0.01 0.01 0.01 0.01 0.00 0.00 0.00 0.00 0.00 0.00 0.00 0.01 0.00 0.00 0.00 0.00 0.01 0.01 0.01
0.02 0.01 0.01 0.01 0.01 0.01 0.01 0.01 0.00 0.01 0.01 0.02 0.04 0.07 0.06 0.03 0.02 0.02 0.02 0.02 0.01 0.01 0.01 0.01 0.01 0.01 0.01 0.00 0.00 0.00 0.00 0.00 0.00 0.00 0.00 0.00 0.00 0.01 0.01 0.01 0.00 0.01 0.01 0.00
0.01 0.02 0.04 0.05 0.06 0.07 0.06 0.04 0.02 0.05 0.06 0.06 0.08 0.12 0.08 0.04 0.02 0.02 0.02 0.01 0.01 0.01 0.01 0.01 0.01 0.00 0.00 0.00 0.00 0.00 0.00 0.00 0.00 0.00 0.00 0.00 0.00 0.00 0.01 0.02 0.02 0.00 0.00 0.00

GEFSCGP_prec_meanprecacc_018.txt.gz
Total_Precipitation_Accumulation
0.00 0.00 0.00 0.00 0.00 0.00 0.00 0.00 0.00 0.00 0.00 0.00 0.00 0.00 0.00 0.00 0.00 0.00 0.00 0.00 0.02 0.03 0.07 0.11 0.08 0.12 0.12 0.07 0.04 0.02 0.01 0.02 0.02 0.04 0.05 0.04 0.03 0.02 0.02 0.02 0.03 0.02 0.02 0.01
0.00 0.00 0.00 0.00 0.00 0.00 0.00 0.00 0.00 0.00 0.00 0.00 0.00 0.00 0.00 0.00 0.00 0.00 0.00 0.00 0.02 0.05 0.11 0.20 0.18 0.19 0.15 0.06 0.04 0.03 0.02 0.05 0.05 0.06 0.07 0.04 0.03 0.03 0.05 0.07 0.06 0.05 0.03 0.02
0.00 0.00 0.00 0.00 0.00 0.00 0.00 0.00 0.00 0.00 0.00 0.00 0.00 0.00 0.00 0.00 0.00 0.00 0.00 0.00 0.01 0.05 0.11 0.16 0.15 0.18 0.14 0.10 0.09 0.06 0.07 0.14 0.16 0.11 0.08 0.06 0.06 0.07 0.10 0.11 0.11 0.09 0.07 0.05
0.00 0.00 0.00 0.00 0.00 0.00 0.00 0.00 0.00 0.00 0.00 0.00 0.00 0.00 0.00 0.00 0.00 0.00 0.00 0.00 0.00 0.02 0.04 0.07 0.10 0.15 0.15 0.16 0.15 0.13 0.20 0.28 0.27 0.19 0.16 0.17 0.16 0.16 0.19 0.20 0.19 0.14 0.09 0.05
0.00 0.00 0.00 0.00 0.00 0.00 0.00 0.00 0.00 0.00 0.00 0.00 0.00 0.00 0.00 0.00 0.00 0.00 0.00 0.00 0.00 0.00 0.01 0.03 0.08 0.15 0.18 0.23 0.24 0.26 0.34 0.39 0.37 0.32 0.29 0.29 0.29 0.30 0.29 0.26 0.19 0.11 0.06 0.03
0.00 0.00 0.00 0.00 0.00 0.00 0.00 0.00 0.00 0.00 0.00 0.00 0.00 0.00 0.00 0.00 0.00 0.00 0.00 0.00 0.00 0.00 0.01 0.03 0.11 0.19 0.26 0.31 0.31 0.33 0.34 0.33 0.31 0.28 0.30 0.30 0.34 0.32 0.25 0.18 0.11 0.05 0.03 0.01
0.00 0.00 0.00 0.00 0.00 0.00 0.00 0.00 0.00 0.00 0.00 0.00 0.00 0.00 0.00 0.00 0.00 0.00 0.00 0.00 0.00 0.01 0.02 0.06 0.15 0.20 0.28 0.28 0.29 0.31 0.29 0.25 0.21 0.22 0.26 0.25 0.22 0.16 0.12 0.08 0.04 0.02 0.01 0.00
0.00 0.00 0.00 0.00 0.00 0.00 0.00 0.00 0.00 0.00 0.00 0.00 0.00 0.00 0.00 0.00 0.00 0.00 0.00 0.00 0.01 0.02 0.05 0.12 0.17 0.20 0.25 0.26 0.24 0.23 0.19 0.16 0.14 0.14 0.15 0.11 0.08 0.06 0.05 0.03 0.01 0.01 0.00 0.00
0.00 0.00 0.00 0.00 0.00 0.00 0.00 0.00 0.00 0.00 0.00 0.00 0.00 0.00 0.00 0.00 0.00 0.00 0.00 0.01 0.02 0.06 0.10 0.14 0.18 0.21 0.24 0.23 0.20 0.18 0.14 0.11 0.10 0.09 0.07 0.05 0.05 0.04 0.03 0.01 0.01 0.00 0.00 0.00
0.00 0.00 0.00 0.00 0.00 0.00 0.00 0.00 0.00 0.00 0.00 0.00 0.00 0.00 0.00 0.00 0.00 0.00 0.01 0.03 0.06 0.11 0.13 0.16 0.19 0.21 0.20 0.15 0.15 0.14 0.12 0.09 0.07 0.06 0.06 0.06 0.05 0.03 0.01 0.01 0.00 0.00 0.00 0.00
0.00 0.00 0.00 0.00 0.00 0.00 0.00 0.00 0.00 0.00 0.00 0.00 0.00 0.00 0.00 0.01 0.01 0.01 0.03 0.06 0.10 0.13 0.15 0.16 0.18 0.19 0.18 0.15 0.15 0.13 0.11 0.09 0.07 0.06 0.06 0.04 0.03 0.01 0.01 0.00 0.00 0.00 0.00 0.00
0.00 0.00 0.00 0.00 0.00 0.00 0.00 0.00 0.00 0.00 0.00 0.00 0.00 0.00 0.01 0.01 0.02 0.02 0.04 0.08 0.13 0.17 0.19 0.18 0.17 0.14 0.13 0.12 0.11 0.11 0.11 0.09 0.07 0.05 0.04 0.03 0.02 0.01 0.01 0.00 0.00 0.00 0.00 0.00
0.00 0.00 0.00 0.00 0.00 0.00 0.00 0.00 0.00 0.00 0.00 0.00 0.00 0.02 0.02 0.02 0.02 0.05 0.12 0.24 0.35 0.34 0.26 0.19 0.12 0.08 0.08 0.11 0.12 0.12 0.10 0.07 0.05 0.03 0.02 0.01 0.01 0.01 0.01 0.00 0.00 0.00 0.00 0.00
0.00 0.00 0.00 0.00 0.00 0.00 0.00 0.00 0.00 0.00 0.01 0.01 0.01 0.02 0.03 0.04 0.06 0.15 0.36 0.53 0.51 0.33 0.18 0.09 0.05 0.05 0.08 0.12 0.11 0.09 0.07 0.04 0.02 0.01 0.01 0.01 0.01 0.01 0.01 0.01 0.01 0.01 0.01 0.01
0.00 0.00 0.00 0.00 0.00 0.00 0.00 0.00 0.01 0.01 0.01 0.01 0.01 0.03 0.05 0.10 0.16 0.24 0.36 0.32 0.21 0.12 0.07 0.04 0.03 0.05 0.08 0.08 0.07 0.05 0.04 0.03 0.02 0.02 0.02 0.01 0.01 0.02 0.02 0.01 0.01 0.02 0.02 0.01
0.00 0.00 0.00 0.00 0.00 0.00 0.00 0.00 0.00 0.00 0.01 0.01 0.02 0.06 0.06 0.07 0.12 0.20 0.29 0.30 0.20 0.11 0.05 0.03 0.05 0.07 0.08 0.06 0.05 0.05 0.05 0.05 0.04 0.04 0.03 0.04 0.04 0.04 0.03 0.02 0.02 0.01 0.01 0.00
0.00 0.00 0.00 0.00 0.00 0.00 0.00 0.00 0.00 0.00 0.00 0.01 0.03 0.07 0.08 0.10 0.12 0.15 0.22 0.30 0.26 0.14 0.08 0.08 0.10 0.10 0.08 0.07 0.07 0.08 0.09 0.08 0.07 0.07 0.08 0.08 0.06 0.04 0.02 0.01 0.01 0.00 0.00 0.00
0.00 0.00 0.00 0.00 0.00 0.00 0.00 0.01 0.01 0.01 0.02 0.02 0.02 0.03 0.03 0.03 0.04 0.04 0.06 0.10 0.12 0.10 0.11 0.13 0.14 0.12 0.12 0.13 0.15 0.17 0.16 0.15 0.13 0.12 0.09 0.06 0.04 0.02 0.01 0.01 0.00 0.00 0.00 0.00
0.00 0.00 0.00 0.00 0.00 0.00 0.01 0.01 0.01 0.02 0.03 0.02 0.02 0.01 0.01 0.00 0.01 0.01 0.01 0.02 0.05 0.09 0.15 0.20 0.22 0.24 0.25 0.27 0.27 0.24 0.20 0.15 0.12 0.09 0.06 0.03 0.02 0.01 0.01 0.01 0.00 0.00 0.00 0.00
0.01 0.01 0.01 0.00 0.01 0.01 0.01 0.01 0.01 0.01 0.06 0.01 0.01 0.02 0.01 0.01 0.03 0.02 0.00 0.01 0.03 0.08 0.17 0.26 0.31 0.32 0.33 0.29 0.22 0.18 0.14 0.10 0.07 0.04 0.02 0.01 0.00 0.00 0.01 0.01 0.00 0.00 0.01 0.01
0.06 0.05 0.04 0.03 0.04 0.03 0.02 0.00 0.01 0.03 0.07 0.02 0.00 0.01 0.02 0.03 0.02 0.01 0.00 0.01 0.03 0.08 0.16 0.26 0.32 0.31 0.24 0.16 0.11 0.09 0.06 0.04 0.02 0.01 0.01 0.01 0.00 0.00 0.01 0.01 0.01 0.01 0.01 0.01
0.13 0.13 0.10 0.10 0.12 0.12 0.04 0.01 0.01 0.03 0.01 0.00 0.01 0.02 0.05 0.03 0.01 0.01 0.01 0.02 0.04 0.08 0.16 0.21 0.19 0.14 0.09 0.06 0.04 0.03 0.02 0.01 0.00 0.00 0.01 0.00 0.00 0.00 0.00 0.00 0.01 0.01 0.01 0.01
0.06 0.07 0.10 0.12 0.13 0.10 0.02 0.01 0.00 0.00 0.00 0.01 0.01 0.05 0.06 0.02 0.01 0.01 0.01 0.02 0.04 0.06 0.08 0.07 0.05 0.03 0.02 0.02 0.02 0.02 0.01 0.00 0.00 0.00 0.00 0.00 0.00 0.00 0.00 0.00 0.01 0.01 0.01 0.01
0.04 0.01 0.01 0.02 0.03 0.02 0.01 0.00 0.00 0.00 0.00 0.01 0.03 0.06 0.05 0.01 0.01 0.01 0.01 0.02 0.02 0.02 0.02 0.01 0.01 0.01 0.02 0.01 0.01 0.01 0.00 0.00 0.00 0.00 0.00 0.01 0.01 0.01 0.00 0.00 0.00 0.01 0.01 0.01
0.03 0.01 0.01 0.01 0.02 0.02 0.02 0.02 0.01 0.01 0.02 0.03 0.06 0.09 0.07 0.03 0.02 0.02 0.02 0.02 0.01 0.01 0.01 0.02 0.02 0.02 0.01 0.01 0.00 0.00 0.00 0.00 0.00 0.00 0.01 0.01 0.01 0.01 0.01 0.01 0.00 0.01 0.01 0.00
0.02 0.02 0.04 0.06 0.07 0.08 0.07 0.05 0.03 0.05 0.08 0.08 0.11 0.15 0.09 0.05 0.03 0.02 0.02 0.02 0.02 0.02 0.02 0.02 0.02 0.01 0.00 0.00 0.00 0.00 0.00 0.00 0.00 0.01 0.01 0.00 0.00 0.00 0.01 0.02 0.02 0.01 0.00 0.00

GEFSCGP_prec_meanprecacc_024.txt.gz
Total_Precipitation_Accumulation
0.00 0.00 0.00 0.00 0.00 0.00 0.00 0.00 0.00 0.00 0.00 0.00 0.00 0.00 0.00 0.00 0.00 0.00 0.00 0.00 0.02 0.03 0.07 0.11 0.09 0.12 0.13 0.08 0.05 0.02 0.02 0.04 0.08 0.12 0.13 0.16 0.21 0.22 0.22 0.22 0.24 0.24 0.25 0.24
0.00 0.00 0.00 0.00 0.00 0.00 0.00 0.00 0.00 0.00 0.00 0.00 0.00 0.00 0.00 0.00 0.00 0.00 0.00 0.00 0.02 0.05 0.11 0.20 0.18 0.19 0.15 0.08 0.06 0.05 0.06 0.11 0.18 0.29 0.35 0.39 0.41 0.41 0.43 0.46 0.47 0.45 0.42 0.38
0.00 0.00 0.00 0.00 0.00 0.00 0.00 0.00 0.00 0.00 0.00 0.00 0.00 0.00 0.00 0.00 0.00 0.00 0.00 0.00 0.01 0.05 0.11 0.16 0.15 0.18 0.14 0.12 0.13 0.10 0.13 0.27 0.41 0.46 0.48 0.53 0.55 0.52 0.53 0.57 0.60 0.60 0.57 0.50
0.00 0.00 0.00 0.00 0.00 0.00 0.00 0.00 0.00 0.00 0.00 0.00 0.00 0.00 0.00 0.00 0.00 0.00 0.00 0.00 0.00 0.02 0.04 0.07 0.10 0.15 0.16 0.20 0.22 0.22 0.31 0.50 0.61 0.66 0.73 0.79 0.77 0.76 0.74 0.74 0.76 0.72 0.61 0.48
0.00 0.00 0.00 0.00 0.00 0.00 0.00 0.00 0.00 0.00 0.00 0.00 0.00 0.00 0.00 0.00 0.00 0.00 0.00 0.00 0.00 0.00 0.01 0.03 0.08 0.16 0.21 0.29 0.34 0.38 0.51 0.69 0.84 0.96 1.04 1.02 0.98 0.93 0.85 0.80 0.73 0.60 0.46 0.34
0.00 0.00 0.00 0.00 0.00 0.00 0.00 0.00 0.00 0.00 0.00 0.00 0.00 0.00 0.00 0.00 0.00 0.00 0.00 0.00 0.00 0.00 0.01 0.03 0.11 0.20 0.30 0.40 0.45 0.49 0.58 0.73 0.90 1.03 1.06 0.97 0.93 0.86 0.76 0.68 0.60 0.44 0.32 0.23
0.00 0.00 0.00 0.00 0.00 0.00 0.00 0.00 0.00 0.00 0.00 0.00 0.00 0.00 0.00 0.00 0.00 0.00 0.00 0.00 0.00 0.01 0.02 0.06 0.15 0.23 0.36 0.40 0.46 0.56 0.65 0.74 0.83 0.94 1.02 0.95 0.78 0.64 0.57 0.45 0.32 0.21 0.14 0.08
0.00 0.00 0.00 0.00 0.00 0.00 0.00 0.00 0.00 0.00 0.00 0.00 0.00 0.00 0.00 0.00 0.00 0.00 0.00 0.00 0.01 0.02 0.06 0.13 0.19 0.27 0.39 0.47 0.53 0.64 0.73 0.80 0.79 0.77 0.73 0.62 0.49 0.41 0.32 0.21 0.14 0.09 0.05 0.03
0.00 0.00 0.00 0.00 0.00 0.00 0.00 0.00 0.00 0.00 0.00 0.00 0.00 0.00 0.00 0.00 0.01 0.01 0.01 0.01 0.03 0.07 0.11 0.17 0.24 0.33 0.43 0.52 0.59 0.66 0.70 0.71 0.65 0.57 0.47 0.38 0.34 0.27 0.20 0.13 0.07 0.04 0.02 0.01
0.00 0.00 0.00 0.00 0.00 0.00 0.00 0.00 0.00 0.00 0.00 0.00 0.00 0.00 0.00 0.01 0.02 0.01 0.02 0.04 0.07 0.12 0.16 0.21 0.27 0.32 0.35 0.35 0.39 0.41 0.42 0.42 0.40 0.36 0.33 0.30 0.23 0.16 0.10 0.06 0.04 0.02 0.01 0.01
0.00 0.00 0.00 0.00 0.00 0.00 0.00 0.00 0.00 0.00 0.00 0.00 0.00 0.00 0.01 0.02 0.03 0.02 0.04 0.07 0.12 0.16 0.19 0.22 0.25 0.26 0.29 0.30 0.34 0.35 0.35 0.34 0.29 0.25 0.20 0.14 0.09 0.06 0.05 0.03 0.02 0.02 0.01 0.01
0.00 0.00 0.00 0.00 0.00 0.00 0.00 0.00 0.00 0.00 0.00 0.00 0.00 0.00 0.01 0.02 0.03 0.03 0.07 0.11 0.16 0.20 0.22 0.22 0.20 0.18 0.19 0.19 0.19 0.20 0.20 0.18 0.16 0.12 0.08 0.06 0.05 0.04 0.03 0.02 0.01 0.01 0.00 0.00
0.00 0.00 0.00 0.00 0.00 0.00 0.00 0.00 0.00 0.00 0.00 0.00 0.00 0.02 0.02 0.03 0.03 0.06 0.14 0.27 0.37 0.37 0.28 0.20 0.13 0.09 0.10 0.13 0.14 0.14 0.12 0.10 0.08 0.05 0.04 0.03 0.02 0.02 0.01 0.01 0.00 0.00 0.00 0.00
0.00 0.00 0.00 0.00 0.00 0.00 0.00 0.00 0.00 0.00 0.01 0.01 0.01 0.02 0.04 0.05 0.08 0.17 0.38 0.55 0.53 0.35 0.19 0.10 0.06 0.06 0.09 0.13 0.12 0.09 0.07 0.04 0.03 0.02 0.02 0.01 0.01 0.01 0.01 0.01 0.01 0.01 0.01 0.01
0.00 0.00 0.00 0.00 0.00 0.00 0.00 0.01 0.01 0.01 0.01 0.01 0.02 0.04 0.07 0.12 0.18 0.27 0.38 0.34 0.23 0.13 0.08 0.05 0.04 0.06 0.09 0.09 0.07 0.05 0.04 0.03 0.03 0.02 0.02 0.02 0.02 0.02 0.02 0.02 0.02 0.02 0.02 0.01
0.00 0.00 0.00 0.00 0.00 0.00 0.00 0.00 0.00 0.00 0.01 0.01 0.03 0.08 0.10 0.11 0.14 0.23 0.32 0.32 0.22 0.12 0.06 0.03 0.05 0.08 0.08 0.07 0.05 0.05 0.05 0.05 0.05 0.04 0.04 0.05 0.05 0.05 0.04 0.03 0.02 0.01 0.01 0.00
0.00 0.00 0.00 0.00 0.00 0.01 0.01 0.01 0.01 0.01 0.01 0.03 0.06 0.10 0.12 0.15 0.17 0.20 0.27 0.35 0.31 0.17 0.10 0.09 0.11 0.11 0.08 0.07 0.07 0.08 0.09 0.09 0.09 0.09 0.10 0.11 0.09 0.06 0.03 0.01 0.01 0.01 0.00 0.00
0.01 0.01 0.00 0.00 0.01 0.02 0.02 0.02 0.02 0.03 0.05 0.06 0.07 0.07 0.08 0.11 0.11 0.09 0.10 0.15 0.16 0.12 0.12 0.14 0.14 0.12 0.12 0.14 0.16 0.18 0.18 0.18 0.17 0.16 0.13 0.09 0.06 0.03 0.02 0.01 0.01 0.00 0.00 0.00
0.01 0.01 0.01 0.01 0.01 0.01 0.02 0.01 0.02 0.04 0.05 0.05 0.06 0.05 0.05 0.05 0.05 0.04 0.04 0.05 0.07 0.10 0.16 0.20 0.23 0.24 0.26 0.28 0.29 0.28 0.25 0.20 0.16 0.12 0.08 0.05 0.03 0.02 0.01 0.01 0.01 0.00 0.00 0.00
0.01 0.01 0.02 0.01 0.02 0.02 0.02 0.01 0.01 0.02 0.06 0.03 0.03 0.04 0.04 0.04 0.06 0.04 0.01 0.01 0.04 0.09 0.17 0.26 0.31 0.33 0.34 0.31 0.25 0.21 0.17 0.13 0.09 0.06 0.03 0.02 0.01 0.01 0.01 0.01 0.00 0.00 0.01 0.01
0.06 0.06 0.05 0.05 0.05 0.04 0.03 0.01 0.02 0.04 0.08 0.04 0.03 0.03 0.04 0.03 0.03 0.01 0.00 0.01 0.03 0.08 0.16 0.26 0.33 0.32 0.26 0.18 0.13 0.10 0.07 0.05 0.03 0.02 0.01 0.01 0.00 0.00 0.01 0.01 0.01 0.01 0.01 0.01
0.13 0.14 0.12 0.12 0.13 0.14 0.05 0.01 0.02 0.04 0.03 0.04 0.03 0.03 0.05 0.03 0.01 0.01 0.01 0.02 0.04 0.08 0.17 0.21 0.20 0.15 0.10 0.07 0.05 0.04 0.02 0.01 0.01 0.00 0.01 0.00 0.00 0.00 0.00 0.00 0.01 0.01 0.01 0.01
0.07 0.08 0.11 0.13 0.15 0.11 0.03 0.01 0.01 0.01 0.02 0.02 0.02 0.05 0.06 0.02 0.01 0.01 0.01 0.02 0.04 0.06 0.08 0.08 0.05 0.04 0.03 0.02 0.02 0.02 0.01 0.00 0.00 0.00 0.00 0.00 0.00 0.00 0.00 0.00 0.01 0.01 0.01 0.01
0.04 0.01 0.01 0.02 0.04 0.03 0.02 0.01 0.01 0.01 0.01 0.02 0.03 0.07 0.05 0.01 0.01 0.01 0.01 0.02 0.03 0.02 0.02 0.01 0.01 0.02 0.02 0.01 0.01 0.01 0.00 0.00 0.00 0.00 0.00 0.01 0.01 0.01 0.00 0.00 0.00 0.01 0.01 0.01
0.03 0.01 0.01 0.02 0.02 0.03 0.03 0.02 0.01 0.02 0.02 0.04 0.07 0.09 0.07 0.04 0.02 0.02 0.02 0.02 0.01 0.01 0.01 0.02 0.02 0.02 0.01 0.01 0.00 0.00 0.00 0.00 0.00 0.00 0.01 0.01 0.01 0.01 0.01 0.01 0.00 0.01 0.01 0.00
0.02 0.02 0.04 0.06 0.07 0.08 0.08 0.05 0.03 0.06 0.08 0.10 0.13 0.16 0.10 0.07 0.04 0.03 0.02 0.02 0.02 0.02 0.02 0.02 0.02 0.01 0.00 0.00 0.00 0.00 0.00 0.00 0.00 0.01 0.01 0.01 0.00 0.01 0.01 0.02 0.02 0.01 0.00 0.00

GEFSCGP_prec_meanprecacc_030.txt.gz
Total_Precipitation_Accumulation
0.00 0.00 0.00 0.00 0.00 0.00 0.00 0.00 0.00 0.00 0.00 0.00 0.00 0.00 0.00 0.00 0.00 0.00 0.00 0.00 0.02 0.03 0.07 0.11 0.09 0.12 0.13 0.08 0.05 0.02 0.02 0.04 0.09 0.15 0.17 0.23 0.35 0.45 0.55 0.66 0.74 0.72 0.69 0.66
0.00 0.00 0.00 0.00 0.00 0.00 0.00 0.00 0.00 0.00 0.00 0.00 0.00 0.00 0.00 0.00 0.00 0.00 0.00 0.00 0.02 0.05 0.11 0.20 0.18 0.19 0.15 0.08 0.06 0.06 0.07 0.14 0.24 0.39 0.55 0.74 0.91 0.97 1.05 1.08 1.09 1.07 1.04 0.98
0.00 0.00 0.00 0.00 0.00 0.00 0.00 0.00 0.00 0.00 0.00 0.00 0.00 0.00 0.00 0.00 0.00 0.00 0.00 0.00 0.01 0.05 0.11 0.16 0.15 0.18 0.14 0.12 0.14 0.11 0.15 0.35 0.56 0.72 0.92 1.17 1.32 1.33 1.35 1.34 1.30 1.25 1.24 1.16
0.00 0.00 0.00 0.00 0.00 0.00 0.00 0.00 0.00 0.00 0.00 0.00 0.00 0.00 0.00 0.00 0.00 0.00 0.00 0.00 0.00 0.02 0.04 0.07 0.10 0.15 0.16 0.20 0.23 0.25 0.35 0.66 0.88 1.04 1.30 1.54 1.73 1.90 1.91 1.77 1.56 1.38 1.22 1.07
0.00 0.00 0.00 0.00 0.00 0.00 0.00 0.00 0.00 0.00 0.00 0.00 0.00 0.00 0.00 0.00 0.00 0.00 0.00 0.00 0.00 0.00 0.01 0.03 0.08 0.16 0.21 0.30 0.35 0.42 0.59 0.86 1.15 1.41 1.66 1.79 1.96 2.01 1.92 1.65 1.36 1.15 1.00 0.88
0.00 0.00 0.00 0.00 0.00 0.00 0.00 0.00 0.00 0.00 0.00 0.00 0.00 0.00 0.00 0.00 0.00 0.00 0.00 0.00 0.00 0.00 0.01 0.04 0.11 0.20 0.31 0.41 0.46 0.52 0.65 0.87 1.15 1.40 1.54 1.58 1.65 1.58 1.37 1.20 1.11 0.98 0.80 0.63
0.00 0.00 0.00 0.00 0.00 0.00 0.00 0.00 0.00 0.00 0.00 0.00 0.00 0.00 0.00 0.00 0.00 0.00 0.01 0.01 0.01 0.01 0.03 0.07 0.16 0.24 0.37 0.42 0.48 0.60 0.73 0.90 1.06 1.22 1.37 1.41 1.31 1.16 1.04 0.90 0.74 0.58 0.46 0.33
0.00 0.00 0.00 0.00 0.00 0.00 0.00 0.00 0.00 0.00 0.00 0.00 0.00 0.00 0.00 0.01 0.01 0.01 0.01 0.01 0.02 0.03 0.07 0.14 0.20 0.28 0.40 0.49 0.56 0.68 0.81 0.93 0.96 0.95 0.94 0.87 0.78 0.70 0.63 0.49 0.36 0.28 0.20 0.14
0.00 0.00 0.00 0.00 0.00 0.00 0.00 0.00 0.00 0.00 0.00 0.00 0.00 0.00 0.00 0.01 0.01 0.01 0.02 0.02 0.04 0.08 0.13 0.18 0.25 0.35 0.45 0.53 0.61 0.70 0.75 0.80 0.76 0.69 0.60 0.51 0.45 0.37 0.30 0.23 0.17 0.11 0.06 0.04
0.00 0.00 0.00 0.00 0.00 0.00 0.00 0.00 0.00 0.00 0.00 0.00 0.00 0.00 0.00 0.01 0.02 0.02 0.03 0.05 0.09 0.14 0.18 0.23 0.28 0.34 0.37 0.36 0.41 0.43 0.45 0.47 0.45 0.42 0.39 0.34 0.27 0.19 0.13 0.09 0.06 0.04 0.02 0.01
0.00 0.00 0.00 0.00 0.00 0.00 0.00 0.00 0.00 0.00 0.00 0.00 0.00 0.00 0.01 0.02 0.04 0.03 0.05 0.09 0.14 0.18 0.20 0.23 0.26 0.28 0.30 0.31 0.35 0.37 0.37 0.37 0.32 0.27 0.22 0.15 0.10 0.07 0.05 0.04 0.03 0.02 0.02 0.01
0.00 0.00 0.00 0.00 0.00 0.00 0.00 0.00 0.00 0.00 0.00 0.00 0.00 0.01 0.01 0.03 0.05 0.04 0.08 0.13 0.19 0.22 0.24 0.23 0.21 0.19 0.19 0.19 0.19 0.21 0.21 0.19 0.17 0.13 0.09 0.07 0.06 0.05 0.04 0.03 0.02 0.01 0.00 0.00
0.00 0.00 0.00 0.00 0.00 0.00 0.00 0.00 0.00 0.00 0.00 0.00 0.01 0.03 0.03 0.04 0.04 0.07 0.15 0.29 0.39 0.38 0.30 0.21 0.14 0.10 0.11 0.13 0.15 0.15 0.13 0.10 0.08 0.05 0.04 0.03 0.02 0.02 0.02 0.01 0.00 0.00 0.00 0.00
0.00 0.00 0.00 0.00 0.00 0.00 0.00 0.00 0.00 0.00 0.01 0.01 0.01 0.03 0.06 0.07 0.09 0.18 0.40 0.57 0.54 0.36 0.20 0.11 0.07 0.07 0.10 0.13 0.12 0.09 0.07 0.04 0.03 0.02 0.02 0.01 0.01 0.01 0.01 0.01 0.01 0.01 0.01 0.01
0.00 0.00 0.00 0.00 0.00 0.00 0.00 0.01 0.01 0.01 0.01 0.01 0.02 0.05 0.10 0.16 0.22 0.30 0.41 0.37 0.25 0.15 0.09 0.05 0.04 0.06 0.09 0.09 0.07 0.05 0.04 0.03 0.03 0.02 0.02 0.02 0.02 0.02 0.02 0.02 0.02 0.02 0.02 0.01
0.00 0.00 0.00 0.00 0.00 0.00 0.00 0.00 0.00 0.00 0.01 0.01 0.04 0.10 0.14 0.17 0.21 0.29 0.38 0.36 0.25 0.13 0.06 0.04 0.05 0.08 0.08 0.07 0.05 0.05 0.05 0.05 0.05 0.04 0.04 0.05 0.06 0.06 0.05 0.04 0.03 0.02 0.01 0.00
0.00 0.00 0.01 0.01 0.00 0.01 0.01 0.01 0.01 0.01 0.02 0.04 0.09 0.14 0.16 0.21 0.26 0.30 0.35 0.41 0.35 0.20 0.11 0.10 0.12 0.11 0.09 0.07 0.07 0.08 0.10 0.10 0.09 0.10 0.12 0.12 0.10 0.08 0.05 0.03 0.02 0.01 0.01 0.00
0.01 0.01 0.01 0.01 0.01 0.03 0.03 0.02 0.03 0.04 0.05 0.08 0.09 0.11 0.14 0.19 0.21 0.20 0.21 0.25 0.24 0.18 0.15 0.16 0.16 0.13 0.13 0.14 0.17 0.20 0.20 0.19 0.18 0.18 0.15 0.12 0.08 0.05 0.03 0.02 0.01 0.01 0.01 0.00
0.01 0.02 0.02 0.02 0.03 0.03 0.04 0.02 0.03 0.06 0.09 0.09 0.10 0.10 0.11 0.13 0.13 0.12 0.11 0.13 0.14 0.16 0.20 0.23 0.25 0.26 0.28 0.30 0.31 0.29 0.27 0.23 0.19 0.15 0.11 0.07 0.04 0.03 0.02 0.02 0.01 0.01 0.01 0.01
0.01 0.02 0.04 0.04 0.05 0.07 0.06 0.02 0.03 0.06 0.15 0.09 0.08 0.09 0.10 0.11 0.14 0.09 0.06 0.07 0.08 0.13 0.21 0.29 0.33 0.34 0.35 0.32 0.26 0.23 0.20 0.16 0.12 0.08 0.05 0.03 0.02 0.01 0.01 0.01 0.01 0.01 0.01 0.01
0.07 0.07 0.07 0.09 0.11 0.10 0.04 0.02 0.06 0.13 0.17 0.14 0.13 0.12 0.10 0.08 0.07 0.04 0.02 0.03 0.05 0.09 0.17 0.27 0.33 0.33 0.27 0.19 0.14 0.12 0.10 0.08 0.05 0.03 0.02 0.01 0.01 0.01 0.01 0.01 0.01 0.01 0.01 0.01
0.13 0.15 0.14 0.15 0.19 0.20 0.07 0.04 0.09 0.12 0.10 0.15 0.14 0.10 0.09 0.05 0.02 0.01 0.01 0.02 0.04 0.09 0.17 0.21 0.20 0.16 0.11 0.08 0.06 0.06 0.05 0.03 0.02 0.02 0.02 0.01 0.01 0.00 0.00 0.01 0.01 0.01 0.01 0.01
0.07 0.08 0.12 0.17 0.20 0.16 0.06 0.07 0.08 0.08 0.11 0.10 0.08 0.08 0.07 0.02 0.01 0.01 0.02 0.02 0.04 0.07 0.09 0.08 0.06 0.04 0.04 0.04 0.04 0.04 0.03 0.02 0.02 0.02 0.02 0.01 0.01 0.01 0.01 0.01 0.01 0.01 0.01 0.02
0.05 0.01 0.02 0.04 0.08 0.06 0.05 0.04 0.05 0.06 0.07 0.07 0.07 0.10 0.06 0.02 0.01 0.01 0.02 0.02 0.03 0.03 0.02 0.02 0.02 0.03 0.04 0.03 0.02 0.02 0.01 0.02 0.02 0.02 0.02 0.02 0.02 0.01 0.01 0.01 0.01 0.01 0.02 0.02
0.03 0.01 0.01 0.02 0.04 0.05 0.06 0.05 0.03 0.04 0.04 0.05 0.09 0.11 0.09 0.04 0.02 0.02 0.02 0.02 0.02 0.02 0.02 0.03 0.03 0.04 0.02 0.01 0.01 0.01 0.01 0.02 0.02 0.02 0.02 0.02 0.02 0.02 0.02 0.02 0.01 0.01 0.02 0.01
0.02 0.02 0.05 0.06 0.07 0.10 0.10 0.07 0.04 0.08 0.11 0.11 0.14 0.18 0.12 0.08 0.05 0.04 0.03 0.03 0.03 0.03 0.03 0.03 0.03 0.02 0.01 0.01 0.00 0.00 0.00 0.01 0.02 0.02 0.02 0.01 0.01 0.02 0.02 0.03 0.03 0.01 0.00 0.00

GEFSCGP_prec_meanprecacc_036.txt.gz
Total_Precipitation_Accumulation
0.00 0.00 0.00 0.00 0.00 0.00 0.00 0.00 0.00 0.00 0.00 0.00 0.00 0.00 0.00 0.00 0.00 0.00 0.00 0.00 0.02 0.03 0.07 0.11 0.09 0.12 0.14 0.09 0.05 0.04 0.05 0.08 0.12 0.18 0.20 0.27 0.43 0.54 0.65 0.77 0.89 0.88 0.84 0.81
0.00 0.00 0.00 0.00 0.00 0.00 0.00 0.00 0.00 0.00 0.00 0.00 0.00 0.00 0.00 0.00 0.00 0.00 0.00 0.00 0.02 0.05 0.11 0.20 0.18 0.19 0.15 0.08 0.07 0.09 0.13 0.23 0.34 0.51 0.67 0.88 1.08 1.15 1.24 1.30 1.30 1.24 1.20 1.14
0.00 0.00 0.00 0.00 0.00 0.00 0.00 0.00 0.00 0.00 0.00 0.00 0.00 0.00 0.00 0.00 0.00 0.00 0.00 0.00 0.01 0.05 0.11 0.16 0.15 0.18 0.15 0.13 0.15 0.15 0.24 0.50 0.76 0.93 1.11 1.38 1.59 1.61 1.64 1.64 1.59 1.49 1.43 1.33
0.00 0.00 0.00 0.00 0.00 0.00 0.00 0.00 0.00 0.00 0.00 0.00 0.00 0.00 0.00 0.00 0.00 0.00 0.00 0.00 0.00 0.02 0.04 0.07 0.10 0.15 0.16 0.21 0.25 0.29 0.47 0.86 1.13 1.28 1.54 1.82 2.01 2.17 2.23 2.06 1.81 1.53 1.33 1.17
0.00 0.00 0.00 0.00 0.00 0.00 0.00 0.00 0.00 0.00 0.00 0.00 0.00 0.00 0.00 0.00 0.00 0.00 0.00 0.00 0.00 0.00 0.01 0.03 0.08 0.16 0.22 0.31 0.38 0.49 0.71 1.03 1.34 1.63 1.93 2.06 2.21 2.26 2.14 1.83 1.46 1.21 1.06 0.94
0.00 0.00 0.00 0.00 0.00 0.00 0.00 0.00 0.00 0.00 0.00 0.00 0.00 0.00 0.00 0.00 0.00 0.00 0.00 0.00 0.01 0.01 0.01 0.04 0.12 0.21 0.32 0.43 0.50 0.59 0.74 0.99 1.31 1.58 1.77 1.77 1.83 1.75 1.50 1.29 1.16 1.01 0.84 0.67
0.00 0.00 0.00 0.00 0.00 0.00 0.00 0.00 0.00 0.00 0.00 0.00 0.00 0.00 0.00 0.00 0.00 0.01 0.01 0.01 0.01 0.02 0.03 0.08 0.17 0.24 0.38 0.44 0.51 0.66 0.81 1.00 1.18 1.35 1.52 1.57 1.49 1.34 1.15 0.96 0.79 0.62 0.48 0.34
0.00 0.00 0.00 0.00 0.00 0.00 0.00 0.00 0.00 0.00 0.00 0.00 0.00 0.00 0.01 0.01 0.01 0.01 0.01 0.02 0.03 0.04 0.07 0.15 0.22 0.29 0.42 0.50 0.58 0.71 0.85 0.98 1.03 1.04 1.05 1.00 0.93 0.82 0.70 0.53 0.38 0.28 0.20 0.14
0.00 0.00 0.00 0.00 0.00 0.00 0.00 0.00 0.00 0.00 0.00 0.00 0.00 0.01 0.01 0.01 0.01 0.02 0.02 0.02 0.05 0.09 0.13 0.19 0.26 0.36 0.46 0.55 0.64 0.72 0.78 0.83 0.81 0.75 0.67 0.59 0.52 0.43 0.34 0.25 0.18 0.11 0.07 0.05
0.00 0.00 0.00 0.00 0.00 0.00 0.00 0.00 0.00 0.00 0.00 0.00 0.00 0.01 0.01 0.02 0.03 0.03 0.04 0.06 0.10 0.15 0.19 0.24 0.30 0.36 0.39 0.38 0.43 0.45 0.47 0.50 0.50 0.47 0.43 0.38 0.30 0.21 0.14 0.10 0.06 0.04 0.03 0.02
0.00 0.00 0.00 0.00 0.00 0.00 0.00 0.00 0.00 0.00 0.00 0.00 0.00 0.03 0.04 0.07 0.07 0.05 0.06 0.10 0.14 0.18 0.21 0.25 0.28 0.30 0.32 0.33 0.37 0.39 0.39 0.38 0.34 0.29 0.24 0.16 0.11 0.08 0.06 0.04 0.04 0.03 0.02 0.02
0.00 0.00 0.00 0.00 0.00 0.00 0.00 0.00 0.00 0.00 0.00 0.00 0.01 0.07 0.05 0.08 0.12 0.09 0.10 0.14 0.19 0.23 0.25 0.24 0.23 0.21 0.22 0.21 0.21 0.23 0.23 0.20 0.18 0.14 0.09 0.07 0.06 0.05 0.04 0.03 0.02 0.01 0.01 0.00
0.00 0.00 0.01 0.02 0.01 0.00 0.00 0.00 0.00 0.00 0.00 0.00 0.01 0.12 0.12 0.12 0.14 0.14 0.18 0.30 0.41 0.40 0.32 0.24 0.16 0.12 0.12 0.15 0.16 0.16 0.14 0.11 0.09 0.06 0.04 0.03 0.03 0.02 0.02 0.01 0.01 0.00 0.00 0.00
0.00 0.00 0.02 0.06 0.06 0.02 0.01 0.01 0.00 0.01 0.01 0.01 0.03 0.13 0.17 0.19 0.21 0.27 0.44 0.60 0.57 0.39 0.23 0.13 0.10 0.09 0.11 0.14 0.13 0.10 0.08 0.05 0.04 0.03 0.02 0.02 0.02 0.02 0.01 0.01 0.01 0.01 0.01 0.02
0.00 0.01 0.00 0.01 0.01 0.02 0.03 0.02 0.02 0.02 0.02 0.03 0.06 0.17 0.31 0.41 0.47 0.48 0.52 0.44 0.30 0.19 0.13 0.08 0.06 0.08 0.10 0.10 0.07 0.05 0.05 0.04 0.03 0.03 0.02 0.02 0.03 0.03 0.03 0.03 0.02 0.03 0.02 0.02
0.00 0.01 0.01 0.00 0.01 0.01 0.02 0.03 0.03 0.04 0.04 0.05 0.13 0.32 0.49 0.55 0.57 0.56 0.55 0.48 0.33 0.20 0.11 0.08 0.08 0.10 0.10 0.08 0.06 0.06 0.06 0.06 0.05 0.05 0.05 0.06 0.06 0.06 0.05 0.04 0.03 0.02 0.01 0.01
0.01 0.01 0.01 0.01 0.01 0.02 0.05 0.05 0.04 0.05 0.05 0.08 0.20 0.33 0.41 0.48 0.51 0.55 0.57 0.59 0.50 0.31 0.20 0.18 0.19 0.17 0.13 0.11 0.10 0.11 0.11 0.11 0.11 0.11 0.12 0.12 0.11 0.08 0.05 0.03 0.02 0.02 0.01 0.01
0.01 0.02 0.02 0.02 0.04 0.07 0.12 0.06 0.05 0.07 0.11 0.12 0.17 0.23 0.29 0.36 0.38 0.38 0.41 0.48 0.48 0.39 0.34 0.33 0.30 0.27 0.26 0.25 0.25 0.26 0.24 0.22 0.21 0.19 0.17 0.13 0.09 0.06 0.04 0.03 0.02 0.02 0.02 0.02
0.01 0.03 0.04 0.04 0.07 0.13 0.16 0.06 0.05 0.11 0.19 0.16 0.19 0.19 0.20 0.21 0.22 0.22 0.25 0.31 0.37 0.42 0.47 0.48 0.45 0.43 0.41 0.40 0.38 0.34 0.30 0.25 0.21 0.17 0.12 0.08 0.05 0.05 0.04 0.03 0.03 0.02 0.02 0.02
0.01 0.03 0.06 0.08 0.11 0.19 0.20 0.06 0.04 0.10 0.28 0.20 0.19 0.21 0.22 0.25 0.25 0.17 0.17 0.20 0.25 0.31 0.38 0.45 0.47 0.45 0.43 0.37 0.30 0.26 0.22 0.17 0.13 0.09 0.06 0.04 0.04 0.03 0.03 0.03 0.02 0.02 0.02 0.02
0.08 0.09 0.12 0.15 0.19 0.22 0.08 0.03 0.08 0.23 0.34 0.30 0.26 0.25 0.23 0.20 0.18 0.13 0.12 0.14 0.18 0.22 0.27 0.35 0.39 0.36 0.30 0.21 0.16 0.15 0.12 0.10 0.07 0.05 0.04 0.03 0.02 0.02 0.02 0.02 0.02 0.02 0.02 0.03
0.14 0.17 0.18 0.22 0.28 0.32 0.11 0.06 0.15 0.23 0.24 0.27 0.25 0.20 0.15 0.09 0.06 0.06 0.06 0.06 0.07 0.11 0.19 0.23 0.22 0.17 0.13 0.10 0.09 0.10 0.08 0.06 0.05 0.05 0.05 0.03 0.02 0.01 0.01 0.02 0.03 0.03 0.04 0.04
0.07 0.09 0.15 0.23 0.30 0.24 0.10 0.11 0.14 0.15 0.20 0.19 0.16 0.15 0.11 0.04 0.03 0.03 0.04 0.04 0.06 0.08 0.10 0.09 0.07 0.06 0.06 0.06 0.07 0.08 0.07 0.05 0.05 0.06 0.05 0.03 0.02 0.02 0.01 0.02 0.03 0.03 0.04 0.05
0.06 0.02 0.03 0.07 0.16 0.12 0.09 0.07 0.07 0.09 0.13 0.12 0.13 0.16 0.11 0.04 0.02 0.02 0.02 0.03 0.04 0.04 0.03 0.03 0.04 0.05 0.06 0.06 0.05 0.05 0.05 0.05 0.06 0.06 0.05 0.04 0.03 0.03 0.02 0.02 0.01 0.02 0.04 0.04
0.04 0.02 0.02 0.04 0.08 0.09 0.11 0.08 0.05 0.06 0.07 0.09 0.14 0.18 0.15 0.07 0.04 0.03 0.03 0.03 0.03 0.03 0.04 0.05 0.06 0.06 0.04 0.03 0.02 0.02 0.03 0.05 0.06 0.06 0.04 0.04 0.05 0.05 0.04 0.04 0.03 0.02 0.02 0.01
0.02 0.02 0.06 0.09 0.10 0.12 0.13 0.09 0.06 0.11 0.15 0.17 0.21 0.25 0.18 0.11 0.06 0.05 0.05 0.05 0.05 0.05 0.05 0.05 0.05 0.03 0.02 0.01 0.01 0.00 0.01 0.02 0.04 0.05 0.03 0.03 0.03 0.04 0.04 0.06 0.07 0.02 0.00 0.00

GEFSCGP_prec_meanprecacc_042.txt.gz
Total_Precipitation_Accumulation
0.00 0.00 0.00 0.00 0.00 0.00 0.00 0.00 0.00 0.00 0.00 0.00 0.00 0.00 0.00 0.00 0.00 0.00 0.00 0.01 0.04 0.08 0.13 0.19 0.20 0.25 0.30 0.20 0.12 0.09 0.08 0.11 0.16 0.22 0.22 0.29 0.46 0.59 0.72 0.88 1.03 1.05 0.98 0.89
0.00 0.00 0.00 0.00 0.00 0.00 0.00 0.00 0.00 0.00 0.00 0.00 0.00 0.00 0.00 0.00 0.00 0.00 0.00 0.00 0.02 0.07 0.16 0.27 0.29 0.31 0.31 0.22 0.17 0.18 0.19 0.29 0.42 0.61 0.78 0.98 1.20 1.28 1.41 1.51 1.54 1.45 1.33 1.23
0.00 0.00 0.00 0.00 0.00 0.00 0.00 0.00 0.00 0.00 0.00 0.00 0.00 0.00 0.00 0.00 0.00 0.00 0.00 0.00 0.01 0.05 0.12 0.19 0.21 0.27 0.28 0.28 0.29 0.29 0.41 0.69 0.98 1.16 1.31 1.59 1.84 1.87 1.91 1.91 1.82 1.67 1.55 1.43
0.00 0.00 0.00 0.00 0.00 0.00 0.00 0.00 0.00 0.00 0.00 0.00 0.00 0.00 0.00 0.00 0.00 0.00 0.00 0.00 0.00 0.02 0.05 0.08 0.13 0.20 0.25 0.35 0.41 0.48 0.73 1.21 1.54 1.67 1.93 2.21 2.40 2.52 2.52 2.31 2.01 1.71 1.48 1.30
0.00 0.00 0.00 0.00 0.00 0.00 0.00 0.00 0.00 0.00 0.00 0.00 0.00 0.00 0.00 0.00 0.00 0.00 0.00 0.00 0.01 0.01 0.03 0.04 0.09 0.19 0.26 0.40 0.53 0.68 0.97 1.34 1.69 2.05 2.42 2.55 2.63 2.62 2.43 2.07 1.66 1.39 1.20 1.03
0.00 0.00 0.00 0.00 0.00 0.00 0.00 0.00 0.00 0.00 0.00 0.00 0.00 0.00 0.00 0.00 0.00 0.00 0.01 0.01 0.01 0.02 0.03 0.06 0.14 0.24 0.37 0.51 0.62 0.76 0.96 1.23 1.60 1.92 2.13 2.10 2.12 2.01 1.75 1.52 1.37 1.18 0.95 0.74
0.00 0.00 0.00 0.00 0.00 0.00 0.00 0.00 0.00 0.00 0.00 0.00 0.00 0.00 0.00 0.01 0.01 0.01 0.01 0.02 0.02 0.03 0.05 0.10 0.20 0.28 0.43 0.51 0.61 0.77 0.94 1.14 1.34 1.54 1.73 1.76 1.67 1.52 1.32 1.14 0.94 0.73 0.55 0.39
0.00 0.00 0.00 0.00 0.00 0.00 0.00 0.00 0.00 0.00 0.00 0.00 0.00 0.00 0.02 0.02 0.02 0.02 0.02 0.03 0.04 0.06 0.10 0.18 0.25 0.34 0.47 0.57 0.65 0.79 0.93 1.08 1.14 1.16 1.19 1.15 1.07 0.97 0.84 0.66 0.48 0.36 0.25 0.17
0.00 0.00 0.00 0.00 0.00 0.00 0.00 0.00 0.00 0.00 0.00 0.00 0.00 0.05 0.06 0.04 0.04 0.03 0.03 0.04 0.07 0.12 0.17 0.22 0.30 0.39 0.50 0.59 0.68 0.77 0.84 0.90 0.90 0.85 0.78 0.69 0.64 0.56 0.47 0.37 0.27 0.19 0.11 0.06
0.00 0.00 0.00 0.00 0.00 0.00 0.00 0.00 0.00 0.00 0.00 0.00 0.01 0.06 0.09 0.08 0.08 0.07 0.07 0.09 0.13 0.18 0.22 0.27 0.32 0.38 0.41 0.40 0.46 0.49 0.52 0.56 0.56 0.53 0.50 0.46 0.39 0.30 0.22 0.16 0.11 0.07 0.04 0.02
0.00 0.00 0.00 0.00 0.00 0.00 0.00 0.00 0.00 0.00 0.00 0.00 0.01 0.08 0.14 0.20 0.20 0.15 0.13 0.14 0.17 0.21 0.24 0.27 0.30 0.32 0.34 0.35 0.39 0.41 0.41 0.42 0.38 0.34 0.29 0.22 0.16 0.12 0.09 0.07 0.05 0.04 0.03 0.02
0.01 0.01 0.00 0.00 0.00 0.00 0.00 0.00 0.00 0.00 0.00 0.00 0.02 0.15 0.23 0.33 0.37 0.28 0.21 0.21 0.24 0.25 0.27 0.26 0.25 0.23 0.23 0.23 0.23 0.25 0.25 0.23 0.21 0.17 0.12 0.10 0.09 0.07 0.05 0.04 0.02 0.01 0.01 0.00
0.00 0.00 0.02 0.03 0.02 0.01 0.00 0.00 0.00 0.00 0.00 0.00 0.03 0.25 0.38 0.42 0.42 0.36 0.32 0.39 0.47 0.45 0.36 0.27 0.19 0.14 0.14 0.16 0.18 0.18 0.16 0.13 0.10 0.08 0.06 0.05 0.05 0.04 0.03 0.02 0.01 0.01 0.01 0.01
0.00 0.01 0.03 0.11 0.11 0.04 0.02 0.01 0.01 0.01 0.01 0.02 0.07 0.24 0.35 0.43 0.47 0.55 0.70 0.81 0.75 0.54 0.35 0.22 0.15 0.13 0.14 0.17 0.15 0.12 0.10 0.08 0.06 0.05 0.04 0.04 0.04 0.03 0.03 0.02 0.02 0.02 0.02 0.02
0.01 0.02 0.02 0.03 0.04 0.03 0.04 0.03 0.03 0.03 0.04 0.08 0.15 0.28 0.48 0.68 0.82 0.86 0.92 0.81 0.61 0.45 0.33 0.23 0.17 0.15 0.15 0.14 0.11 0.08 0.08 0.07 0.06 0.06 0.06 0.06 0.05 0.05 0.04 0.04 0.03 0.03 0.03 0.02
0.01 0.01 0.02 0.02 0.03 0.04 0.06 0.06 0.06 0.09 0.12 0.18 0.29 0.50 0.73 0.83 0.88 0.92 0.95 0.84 0.65 0.47 0.35 0.29 0.26 0.23 0.20 0.17 0.14 0.12 0.11 0.11 0.09 0.08 0.08 0.08 0.08 0.07 0.06 0.05 0.04 0.02 0.01 0.01
0.01 0.02 0.02 0.03 0.03 0.07 0.15 0.16 0.18 0.20 0.21 0.24 0.37 0.54 0.66 0.70 0.71 0.77 0.83 0.87 0.79 0.58 0.47 0.45 0.44 0.39 0.33 0.28 0.24 0.22 0.21 0.18 0.16 0.16 0.17 0.16 0.13 0.10 0.07 0.04 0.03 0.02 0.02 0.02
0.02 0.03 0.02 0.03 0.06 0.13 0.19 0.13 0.17 0.21 0.24 0.27 0.31 0.38 0.46 0.50 0.51 0.52 0.59 0.67 0.70 0.64 0.63 0.65 0.60 0.53 0.48 0.44 0.41 0.37 0.34 0.30 0.26 0.24 0.20 0.15 0.10 0.07 0.05 0.04 0.03 0.02 0.02 0.02
0.02 0.04 0.05 0.06 0.12 0.21 0.23 0.11 0.09 0.18 0.27 0.25 0.29 0.29 0.29 0.29 0.30 0.32 0.37 0.42 0.48 0.55 0.61 0.63 0.59 0.55 0.52 0.49 0.44 0.39 0.34 0.28 0.23 0.18 0.13 0.08 0.06 0.05 0.05 0.04 0.03 0.02 0.02 0.02
0.01 0.03 0.07 0.09 0.14 0.25 0.26 0.10 0.06 0.13 0.35 0.30 0.27 0.30 0.31 0.32 0.29 0.21 0.21 0.25 0.30 0.37 0.44 0.51 0.53 0.50 0.47 0.41 0.32 0.28 0.24 0.19 0.14 0.09 0.06 0.05 0.04 0.03 0.03 0.03 0.02 0.02 0.02 0.02
0.08 0.09 0.13 0.17 0.23 0.28 0.11 0.05 0.10 0.27 0.39 0.38 0.34 0.32 0.30 0.25 0.20 0.14 0.14 0.16 0.20 0.25 0.30 0.38 0.41 0.39 0.32 0.23 0.18 0.16 0.14 0.11 0.08 0.05 0.04 0.04 0.03 0.03 0.02 0.02 0.02 0.02 0.03 0.03
0.14 0.18 0.19 0.24 0.31 0.35 0.12 0.07 0.17 0.25 0.27 0.30 0.29 0.24 0.19 0.13 0.09 0.09 0.09 0.09 0.09 0.13 0.21 0.25 0.23 0.18 0.14 0.11 0.10 0.10 0.09 0.07 0.05 0.05 0.05 0.04 0.03 0.02 0.02 0.03 0.04 0.03 0.04 0.04
0.07 0.10 0.16 0.24 0.32 0.27 0.11 0.11 0.15 0.16 0.21 0.19 0.17 0.16 0.12 0.05 0.04 0.04 0.05 0.06 0.07 0.09 0.11 0.10 0.08 0.07 0.07 0.07 0.08 0.08 0.07 0.06 0.06 0.07 0.06 0.03 0.02 0.02 0.02 0.02 0.03 0.03 0.05 0.05
0.06 0.02 0.03 0.09 0.18 0.14 0.09 0.07 0.08 0.10 0.14 0.12 0.13 0.17 0.12 0.05 0.03 0.02 0.03 0.04 0.04 0.04 0.04 0.04 0.04 0.05 0.06 0.06 0.06 0.06 0.05 0.06 0.06 0.07 0.06 0.04 0.04 0.04 0.03 0.02 0.02 0.03 0.04 0.04
0.04 0.02 0.02 0.05 0.10 0.11 0.12 0.08 0.05 0.07 0.08 0.10 0.15 0.21 0.17 0.08 0.05 0.04 0.04 0.04 0.03 0.04 0.04 0.05 0.06 0.06 0.04 0.04 0.03 0.03 0.03 0.05 0.07 0.07 0.05 0.05 0.05 0.05 0.05 0.05 0.04 0.02 0.03 0.01
0.02 0.02 0.06 0.10 0.11 0.13 0.14 0.09 0.06 0.11 0.16 0.18 0.23 0.28 0.20 0.11 0.07 0.06 0.06 0.06 0.06 0.06 0.06 0.06 0.05 0.03 0.02 0.01 0.01 0.01 0.01 0.02 0.05 0.05 0.04 0.03 0.04 0.04 0.06 0.09 0.09 0.03 0.01 0.01

GEFSCGP_prec_meanprecacc_048.txt.gz
Total_Precipitation_Accumulation
0.00 0.00 0.00 0.00 0.00 0.00 0.00 0.00 0.00 0.00 0.00 0.00 0.00 0.00 0.00 0.00 0.00 0.00 0.00 0.01 0.04 0.08 0.13 0.20 0.21 0.26 0.32 0.22 0.15 0.13 0.16 0.22 0.27 0.32 0.35 0.43 0.61 0.74 0.89 1.06 1.23 1.30 1.21 1.12
0.00 0.00 0.00 0.00 0.00 0.00 0.00 0.00 0.00 0.00 0.00 0.00 0.00 0.00 0.00 0.00 0.00 0.00 0.00 0.00 0.03 0.07 0.16 0.28 0.29 0.32 0.33 0.25 0.22 0.23 0.29 0.45 0.63 0.87 1.08 1.31 1.52 1.60 1.75 1.86 1.87 1.79 1.61 1.45
0.00 0.00 0.00 0.00 0.00 0.00 0.00 0.00 0.00 0.00 0.00 0.00 0.00 0.00 0.00 0.00 0.00 0.00 0.00 0.00 0.01 0.06 0.12 0.20 0.22 0.28 0.30 0.33 0.34 0.36 0.52 0.85 1.22 1.46 1.70 2.09 2.38 2.41 2.39 2.29 2.16 1.99 1.84 1.69
0.00 0.00 0.00 0.00 0.00 0.00 0.00 0.00 0.00 0.00 0.00 0.00 0.00 0.00 0.01 0.01 0.01 0.01 0.01 0.01 0.01 0.02 0.05 0.09 0.14 0.21 0.26 0.38 0.45 0.53 0.81 1.35 1.76 1.99 2.37 2.73 2.94 3.05 3.02 2.70 2.33 2.00 1.76 1.55
0.00 0.00 0.00 0.00 0.00 0.00 0.00 0.00 0.00 0.00 0.00 0.00 0.00 0.00 0.01 0.02 0.01 0.02 0.02 0.02 0.02 0.03 0.04 0.05 0.11 0.21 0.29 0.43 0.57 0.72 1.04 1.46 1.91 2.40 2.88 3.09 3.17 3.11 2.83 2.38 1.94 1.65 1.46 1.27
0.00 0.00 0.00 0.00 0.00 0.00 0.00 0.00 0.00 0.00 0.00 0.00 0.00 0.00 0.01 0.02 0.02 0.03 0.03 0.04 0.05 0.05 0.06 0.09 0.17 0.27 0.41 0.55 0.67 0.83 1.06 1.40 1.86 2.29 2.60 2.60 2.60 2.44 2.08 1.79 1.61 1.44 1.21 0.96
0.00 0.00 0.00 0.00 0.00 0.00 0.00 0.00 0.00 0.00 0.00 0.00 0.00 0.00 0.02 0.03 0.03 0.03 0.04 0.05 0.07 0.07 0.10 0.16 0.25 0.33 0.50 0.60 0.73 0.92 1.13 1.42 1.69 1.99 2.24 2.25 2.14 1.94 1.69 1.43 1.18 0.95 0.75 0.56
0.00 0.00 0.00 0.00 0.00 0.00 0.00 0.00 0.00 0.00 0.00 0.00 0.00 0.02 0.06 0.05 0.05 0.04 0.05 0.06 0.07 0.10 0.16 0.26 0.33 0.43 0.59 0.70 0.83 1.02 1.25 1.47 1.53 1.53 1.59 1.56 1.46 1.34 1.17 0.90 0.69 0.55 0.42 0.32
0.00 0.00 0.00 0.00 0.00 0.00 0.00 0.00 0.00 0.00 0.00 0.00 0.01 0.07 0.11 0.08 0.07 0.05 0.06 0.07 0.11 0.16 0.22 0.30 0.38 0.49 0.62 0.76 0.88 1.01 1.12 1.21 1.22 1.15 1.08 1.00 0.94 0.84 0.72 0.58 0.46 0.35 0.24 0.17
0.00 0.00 0.00 0.00 0.00 0.00 0.00 0.00 0.00 0.00 0.00 0.00 0.01 0.08 0.13 0.12 0.11 0.09 0.09 0.11 0.16 0.22 0.26 0.32 0.40 0.46 0.50 0.53 0.61 0.65 0.70 0.77 0.77 0.73 0.69 0.67 0.60 0.50 0.41 0.32 0.24 0.17 0.11 0.07
0.01 0.00 0.00 0.00 0.00 0.00 0.00 0.00 0.00 0.00 0.00 0.00 0.01 0.10 0.20 0.27 0.26 0.19 0.17 0.17 0.20 0.24 0.28 0.31 0.36 0.37 0.39 0.40 0.45 0.49 0.51 0.52 0.50 0.46 0.42 0.34 0.28 0.22 0.19 0.16 0.12 0.08 0.06 0.04
0.01 0.01 0.01 0.00 0.00 0.00 0.00 0.00 0.00 0.00 0.00 0.00 0.02 0.18 0.29 0.40 0.44 0.33 0.26 0.25 0.29 0.31 0.33 0.33 0.31 0.29 0.29 0.28 0.29 0.30 0.31 0.29 0.29 0.25 0.20 0.18 0.16 0.14 0.10 0.08 0.06 0.03 0.02 0.02
0.01 0.01 0.02 0.04 0.03 0.01 0.00 0.00 0.00 0.00 0.00 0.00 0.04 0.29 0.45 0.49 0.48 0.41 0.36 0.45 0.55 0.53 0.45 0.35 0.26 0.21 0.21 0.23 0.25 0.26 0.24 0.22 0.20 0.17 0.13 0.12 0.11 0.09 0.07 0.05 0.03 0.03 0.03 0.03
0.01 0.01 0.04 0.12 0.12 0.05 0.02 0.01 0.01 0.01 0.02 0.03 0.09 0.29 0.42 0.50 0.52 0.61 0.78 0.91 0.86 0.68 0.51 0.37 0.28 0.24 0.25 0.27 0.25 0.21 0.19 0.16 0.13 0.12 0.10 0.09 0.08 0.07 0.06 0.05 0.05 0.05 0.05 0.05
0.01 0.02 0.03 0.04 0.05 0.04 0.04 0.04 0.03 0.04 0.05 0.11 0.19 0.33 0.53 0.75 0.89 0.92 1.00 0.91 0.74 0.62 0.53 0.44 0.37 0.33 0.31 0.27 0.24 0.21 0.21 0.18 0.14 0.12 0.11 0.11 0.09 0.08 0.08 0.07 0.08 0.08 0.08 0.06
0.02 0.02 0.03 0.04 0.04 0.05 0.06 0.07 0.08 0.11 0.16 0.22 0.35 0.54 0.80 0.91 0.95 1.00 1.04 0.96 0.79 0.62 0.50 0.46 0.44 0.42 0.37 0.31 0.27 0.24 0.21 0.20 0.16 0.13 0.12 0.12 0.12 0.11 0.10 0.08 0.07 0.06 0.05 0.03
0.02 0.02 0.03 0.03 0.04 0.08 0.16 0.17 0.19 0.23 0.25 0.30 0.45 0.63 0.76 0.82 0.82 0.88 0.94 0.97 0.88 0.69 0.58 0.58 0.61 0.59 0.52 0.43 0.37 0.33 0.30 0.25 0.22 0.21 0.21 0.19 0.16 0.12 0.09 0.06 0.04 0.03 0.02 0.02
0.02 0.03 0.03 0.04 0.07 0.14 0.20 0.14 0.19 0.23 0.27 0.31 0.36 0.48 0.57 0.62 0.62 0.64 0.72 0.80 0.82 0.76 0.75 0.78 0.74 0.66 0.59 0.54 0.48 0.44 0.39 0.35 0.32 0.29 0.24 0.18 0.12 0.08 0.06 0.05 0.04 0.03 0.02 0.02
0.02 0.04 0.05 0.06 0.12 0.22 0.26 0.14 0.12 0.21 0.30 0.28 0.32 0.34 0.33 0.33 0.35 0.40 0.49 0.56 0.62 0.69 0.74 0.74 0.70 0.64 0.58 0.53 0.48 0.42 0.37 0.32 0.26 0.20 0.14 0.10 0.07 0.06 0.05 0.05 0.04 0.03 0.02 0.02
0.02 0.03 0.07 0.09 0.15 0.25 0.27 0.12 0.08 0.16 0.37 0.33 0.30 0.32 0.33 0.34 0.32 0.26 0.29 0.34 0.39 0.45 0.51 0.58 0.59 0.55 0.51 0.44 0.35 0.30 0.25 0.20 0.15 0.10 0.07 0.05 0.04 0.03 0.03 0.03 0.02 0.02 0.02 0.02
0.08 0.09 0.13 0.17 0.23 0.28 0.12 0.05 0.12 0.29 0.41 0.41 0.37 0.35 0.32 0.28 0.22 0.16 0.17 0.19 0.23 0.28 0.35 0.43 0.46 0.42 0.35 0.26 0.19 0.17 0.14 0.12 0.08 0.05 0.04 0.04 0.03 0.03 0.02 0.02 0.02 0.02 0.03 0.03
0.14 0.18 0.19 0.24 0.31 0.35 0.12 0.07 0.18 0.26 0.27 0.32 0.30 0.26 0.21 0.14 0.10 0.11 0.12 0.11 0.11 0.15 0.23 0.28 0.26 0.20 0.15 0.12 0.11 0.11 0.09 0.07 0.05 0.05 0.05 0.04 0.03 0.02 0.02 0.03 0.04 0.03 0.04 0.04
0.07 0.10 0.16 0.24 0.32 0.27 0.11 0.11 0.15 0.16 0.21 0.20 0.17 0.16 0.12 0.06 0.05 0.06 0.07 0.08 0.09 0.11 0.14 0.14 0.10 0.07 0.07 0.08 0.08 0.09 0.07 0.06 0.06 0.07 0.06 0.03 0.02 0.02 0.02 0.02 0.03 0.03 0.05 0.05
0.06 0.02 0.03 0.09 0.18 0.14 0.09 0.07 0.08 0.10 0.14 0.12 0.14 0.17 0.12 0.05 0.03 0.03 0.03 0.04 0.05 0.06 0.06 0.06 0.05 0.06 0.07 0.06 0.06 0.06 0.05 0.06 0.06 0.07 0.06 0.04 0.04 0.04 0.03 0.02 0.02 0.03 0.04 0.04
0.04 0.02 0.02 0.05 0.10 0.11 0.12 0.08 0.05 0.07 0.08 0.10 0.15 0.21 0.17 0.08 0.05 0.04 0.04 0.04 0.04 0.05 0.06 0.06 0.06 0.06 0.05 0.04 0.03 0.03 0.03 0.05 0.07 0.07 0.05 0.05 0.05 0.05 0.05 0.05 0.04 0.02 0.03 0.01
0.02 0.02 0.06 0.10 0.11 0.13 0.14 0.09 0.06 0.11 0.16 0.18 0.23 0.28 0.20 0.11 0.07 0.06 0.06 0.06 0.06 0.06 0.06 0.06 0.05 0.03 0.02 0.01 0.01 0.01 0.01 0.02 0.05 0.05 0.04 0.03 0.04 0.04 0.06 0.09 0.09 0.03 0.01 0.01

GEFSCGP_prec_meanprecacc_054.txt.gz
Total_Precipitation_Accumulation
0.00 0.00 0.00 0.00 0.00 0.00 0.00 0.00 0.00 0.00 0.00 0.00 0.00 0.00 0.00 0.00 0.00 0.00 0.00 0.01 0.04 0.08 0.13 0.20 0.21 0.26 0.32 0.22 0.16 0.14 0.17 0.23 0.28 0.35 0.37 0.45 0.63 0.78 0.94 1.13 1.34 1.45 1.36 1.28
0.00 0.00 0.00 0.00 0.00 0.00 0.00 0.00 0.00 0.00 0.00 0.00 0.00 0.00 0.00 0.00 0.00 0.00 0.00 0.00 0.03 0.07 0.16 0.28 0.30 0.33 0.34 0.26 0.23 0.25 0.31 0.47 0.66 0.91 1.14 1.36 1.58 1.68 1.85 2.03 2.09 2.02 1.86 1.72
0.00 0.00 0.00 0.00 0.00 0.00 0.00 0.00 0.00 0.00 0.00 0.00 0.00 0.00 0.00 0.01 0.01 0.00 0.00 0.00 0.01 0.06 0.12 0.20 0.22 0.29 0.32 0.35 0.37 0.41 0.57 0.91 1.30 1.57 1.83 2.22 2.51 2.55 2.56 2.50 2.41 2.32 2.19 2.04
0.00 0.00 0.00 0.00 0.00 0.00 0.00 0.00 0.00 0.00 0.00 0.00 0.00 0.00 0.01 0.01 0.01 0.01 0.01 0.01 0.01 0.03 0.05 0.09 0.14 0.23 0.28 0.40 0.48 0.57 0.87 1.42 1.85 2.12 2.51 2.93 3.16 3.29 3.29 3.01 2.66 2.32 2.05 1.82
0.00 0.00 0.00 0.00 0.00 0.00 0.00 0.00 0.00 0.00 0.00 0.00 0.00 0.00 0.02 0.03 0.02 0.03 0.04 0.03 0.03 0.04 0.05 0.06 0.12 0.23 0.31 0.45 0.61 0.78 1.11 1.55 2.02 2.56 3.08 3.37 3.51 3.51 3.26 2.77 2.27 1.95 1.75 1.54
0.00 0.00 0.00 0.00 0.00 0.00 0.00 0.00 0.00 0.00 0.00 0.00 0.00 0.01 0.03 0.04 0.04 0.05 0.06 0.07 0.08 0.07 0.08 0.11 0.19 0.31 0.44 0.59 0.72 0.90 1.14 1.51 2.00 2.48 2.86 2.88 2.95 2.87 2.53 2.18 1.96 1.78 1.51 1.22
0.00 0.00 0.00 0.00 0.00 0.00 0.00 0.00 0.00 0.00 0.00 0.00 0.00 0.02 0.05 0.07 0.05 0.05 0.07 0.08 0.11 0.11 0.13 0.19 0.29 0.38 0.56 0.67 0.80 1.00 1.24 1.59 1.89 2.21 2.46 2.50 2.46 2.32 2.05 1.78 1.51 1.26 1.02 0.77
0.00 0.00 0.00 0.00 0.00 0.00 0.00 0.00 0.00 0.00 0.00 0.00 0.02 0.05 0.10 0.08 0.07 0.06 0.06 0.08 0.10 0.13 0.19 0.30 0.38 0.49 0.65 0.77 0.91 1.13 1.37 1.62 1.71 1.75 1.86 1.86 1.79 1.68 1.52 1.23 0.99 0.83 0.67 0.51
0.00 0.00 0.00 0.00 0.00 0.00 0.00 0.00 0.00 0.00 0.00 0.01 0.03 0.10 0.16 0.12 0.08 0.07 0.07 0.09 0.13 0.19 0.26 0.34 0.43 0.54 0.67 0.82 0.96 1.12 1.24 1.36 1.42 1.41 1.36 1.30 1.24 1.13 1.02 0.85 0.69 0.54 0.40 0.30
0.01 0.00 0.00 0.00 0.00 0.00 0.00 0.00 0.00 0.00 0.00 0.01 0.03 0.11 0.17 0.16 0.13 0.11 0.11 0.13 0.18 0.24 0.29 0.35 0.43 0.49 0.53 0.57 0.67 0.74 0.81 0.88 0.92 0.91 0.90 0.86 0.79 0.68 0.59 0.50 0.41 0.32 0.24 0.18
0.01 0.01 0.00 0.00 0.00 0.00 0.00 0.00 0.00 0.00 0.00 0.00 0.03 0.13 0.24 0.32 0.29 0.21 0.18 0.19 0.22 0.26 0.30 0.33 0.37 0.39 0.42 0.43 0.48 0.53 0.58 0.61 0.60 0.57 0.53 0.45 0.40 0.33 0.29 0.26 0.22 0.18 0.16 0.13
0.02 0.02 0.01 0.00 0.00 0.00 0.00 0.00 0.00 0.00 0.00 0.00 0.03 0.22 0.32 0.45 0.47 0.35 0.27 0.27 0.30 0.32 0.35 0.34 0.32 0.30 0.30 0.30 0.31 0.33 0.34 0.34 0.36 0.32 0.26 0.25 0.24 0.22 0.19 0.18 0.17 0.15 0.14 0.13
0.01 0.02 0.04 0.06 0.04 0.02 0.01 0.00 0.00 0.00 0.00 0.01 0.05 0.32 0.47 0.51 0.50 0.43 0.38 0.46 0.56 0.55 0.46 0.36 0.27 0.22 0.22 0.25 0.27 0.28 0.27 0.26 0.25 0.23 0.20 0.21 0.21 0.21 0.20 0.18 0.16 0.14 0.12 0.10
0.01 0.02 0.05 0.15 0.14 0.06 0.03 0.01 0.01 0.01 0.02 0.04 0.11 0.31 0.45 0.52 0.56 0.64 0.81 0.94 0.88 0.70 0.53 0.38 0.29 0.26 0.26 0.29 0.28 0.25 0.24 0.22 0.20 0.20 0.21 0.21 0.20 0.19 0.17 0.14 0.12 0.11 0.11 0.10
0.02 0.04 0.04 0.05 0.06 0.05 0.06 0.04 0.04 0.05 0.06 0.13 0.22 0.36 0.57 0.79 0.93 0.96 1.03 0.94 0.77 0.65 0.56 0.47 0.39 0.35 0.33 0.30 0.27 0.25 0.26 0.25 0.22 0.20 0.20 0.19 0.17 0.15 0.14 0.13 0.12 0.11 0.11 0.09
0.02 0.03 0.04 0.05 0.06 0.06 0.08 0.08 0.09 0.13 0.17 0.26 0.38 0.57 0.84 0.96 1.01 1.06 1.11 1.02 0.85 0.68 0.55 0.52 0.49 0.45 0.40 0.34 0.30 0.27 0.25 0.24 0.22 0.19 0.17 0.16 0.15 0.14 0.12 0.10 0.09 0.07 0.06 0.04
0.03 0.03 0.05 0.06 0.06 0.10 0.19 0.18 0.20 0.24 0.27 0.34 0.50 0.68 0.84 0.91 0.91 0.98 1.05 1.09 0.99 0.80 0.70 0.69 0.71 0.66 0.57 0.48 0.40 0.36 0.33 0.28 0.24 0.23 0.23 0.21 0.18 0.14 0.10 0.07 0.05 0.04 0.03 0.02
0.03 0.04 0.04 0.06 0.09 0.17 0.23 0.16 0.20 0.25 0.30 0.34 0.40 0.52 0.63 0.70 0.71 0.76 0.85 0.94 0.95 0.89 0.89 0.92 0.86 0.78 0.69 0.60 0.52 0.46 0.41 0.36 0.33 0.30 0.25 0.19 0.13 0.09 0.06 0.05 0.04 0.03 0.02 0.02
0.02 0.05 0.06 0.07 0.14 0.24 0.28 0.16 0.14 0.25 0.33 0.31 0.35 0.37 0.39 0.39 0.42 0.53 0.63 0.69 0.74 0.80 0.85 0.85 0.80 0.74 0.68 0.60 0.51 0.44 0.39 0.33 0.27 0.21 0.15 0.11 0.07 0.06 0.05 0.05 0.04 0.03 0.02 0.02
0.02 0.03 0.08 0.10 0.16 0.28 0.29 0.12 0.09 0.21 0.43 0.37 0.33 0.35 0.37 0.42 0.41 0.36 0.40 0.45 0.51 0.56 0.62 0.67 0.66 0.61 0.57 0.48 0.37 0.31 0.27 0.21 0.16 0.11 0.07 0.05 0.04 0.04 0.03 0.03 0.03 0.02 0.02 0.02
0.08 0.09 0.13 0.17 0.24 0.30 0.12 0.06 0.15 0.36 0.49 0.47 0.42 0.39 0.37 0.35 0.32 0.26 0.25 0.27 0.32 0.38 0.44 0.49 0.51 0.48 0.39 0.29 0.22 0.19 0.16 0.13 0.09 0.05 0.04 0.04 0.03 0.03 0.02 0.03 0.03 0.03 0.03 0.04
0.14 0.18 0.20 0.24 0.32 0.36 0.12 0.08 0.21 0.29 0.30 0.38 0.35 0.31 0.25 0.17 0.14 0.16 0.16 0.14 0.15 0.19 0.27 0.32 0.29 0.22 0.17 0.13 0.12 0.12 0.11 0.08 0.06 0.05 0.06 0.04 0.03 0.02 0.03 0.04 0.04 0.04 0.04 0.05
0.07 0.10 0.16 0.24 0.32 0.27 0.11 0.12 0.15 0.16 0.22 0.22 0.20 0.19 0.13 0.07 0.07 0.08 0.09 0.10 0.11 0.13 0.16 0.16 0.13 0.09 0.09 0.09 0.10 0.10 0.08 0.07 0.07 0.07 0.06 0.04 0.02 0.03 0.02 0.03 0.03 0.04 0.05 0.05
0.06 0.02 0.03 0.09 0.18 0.14 0.09 0.07 0.09 0.10 0.14 0.14 0.16 0.19 0.13 0.06 0.04 0.04 0.05 0.06 0.07 0.07 0.08 0.08 0.08 0.08 0.09 0.08 0.07 0.07 0.06 0.06 0.07 0.08 0.06 0.04 0.04 0.04 0.03 0.03 0.02 0.03 0.05 0.04
0.04 0.02 0.02 0.05 0.10 0.11 0.12 0.08 0.05 0.07 0.08 0.11 0.16 0.22 0.18 0.08 0.05 0.04 0.05 0.05 0.05 0.06 0.07 0.08 0.08 0.08 0.05 0.04 0.04 0.03 0.04 0.06 0.08 0.07 0.05 0.05 0.06 0.05 0.05 0.06 0.04 0.02 0.03 0.01
0.02 0.02 0.06 0.10 0.11 0.13 0.14 0.09 0.06 0.11 0.16 0.19 0.24 0.29 0.20 0.12 0.07 0.06 0.06 0.06 0.07 0.07 0.07 0.06 0.06 0.04 0.03 0.02 0.01 0.01 0.02 0.03 0.06 0.06 0.04 0.04 0.04 0.05 0.06 0.09 0.09 0.04 0.01 0.01

GEFSCGP_prec_meanprecacc_060.txt.gz
Total_Precipitation_Accumulation
0.00 0.00 0.00 0.00 0.00 0.00 0.00 0.00 0.00 0.00 0.00 0.00 0.00 0.00 0.00 0.00 0.00 0.01 0.02 0.03 0.06 0.12 0.16 0.24 0.26 0.29 0.33 0.24 0.18 0.17 0.19 0.25 0.31 0.38 0.41 0.49 0.69 0.85 0.99 1.19 1.40 1.53 1.46 1.39
0.00 0.00 0.00 0.00 0.00 0.00 0.00 0.00 0.00 0.00 0.00 0.00 0.00 0.01 0.01 0.01 0.02 0.04 0.05 0.03 0.06 0.14 0.21 0.32 0.34 0.36 0.36 0.30 0.28 0.30 0.36 0.52 0.70 0.96 1.20 1.44 1.67 1.76 1.92 2.09 2.17 2.11 1.95 1.84
0.00 0.00 0.00 0.00 0.00 0.00 0.00 0.00 0.00 0.00 0.00 0.00 0.00 0.02 0.03 0.03 0.03 0.06 0.06 0.05 0.08 0.15 0.23 0.32 0.33 0.36 0.39 0.44 0.45 0.50 0.68 1.03 1.42 1.68 1.92 2.31 2.63 2.67 2.65 2.59 2.51 2.43 2.32 2.19
0.00 0.00 0.00 0.00 0.00 0.00 0.00 0.00 0.00 0.00 0.00 0.00 0.00 0.04 0.05 0.04 0.03 0.04 0.06 0.07 0.11 0.18 0.19 0.22 0.26 0.33 0.38 0.52 0.61 0.69 1.03 1.59 2.02 2.30 2.71 3.12 3.34 3.47 3.48 3.18 2.83 2.49 2.21 2.00
0.00 0.00 0.00 0.00 0.00 0.00 0.00 0.00 0.00 0.00 0.00 0.00 0.00 0.04 0.11 0.07 0.06 0.06 0.06 0.07 0.10 0.14 0.19 0.14 0.19 0.30 0.39 0.55 0.74 0.92 1.27 1.72 2.21 2.78 3.30 3.61 3.77 3.78 3.51 3.01 2.50 2.17 1.97 1.74
0.00 0.00 0.00 0.00 0.00 0.00 0.00 0.00 0.00 0.00 0.00 0.00 0.00 0.03 0.17 0.23 0.16 0.12 0.10 0.10 0.12 0.12 0.18 0.21 0.26 0.37 0.50 0.66 0.82 1.02 1.28 1.64 2.15 2.64 3.04 3.09 3.17 3.12 2.79 2.43 2.19 1.99 1.70 1.39
0.00 0.00 0.00 0.00 0.00 0.00 0.00 0.00 0.00 0.00 0.00 0.00 0.00 0.06 0.26 0.36 0.25 0.19 0.13 0.11 0.13 0.13 0.16 0.26 0.42 0.42 0.60 0.72 0.86 1.09 1.36 1.71 2.02 2.35 2.62 2.66 2.65 2.56 2.34 2.05 1.74 1.46 1.19 0.93
0.01 0.01 0.00 0.00 0.00 0.00 0.00 0.00 0.00 0.00 0.00 0.00 0.02 0.11 0.24 0.27 0.18 0.13 0.10 0.09 0.11 0.15 0.22 0.33 0.44 0.54 0.69 0.82 0.96 1.19 1.44 1.70 1.80 1.88 2.01 2.04 2.02 1.93 1.81 1.50 1.21 1.02 0.84 0.66
0.05 0.03 0.01 0.00 0.00 0.00 0.00 0.00 0.00 0.00 0.00 0.02 0.09 0.18 0.26 0.22 0.15 0.11 0.10 0.10 0.15 0.21 0.28 0.37 0.47 0.58 0.71 0.87 1.02 1.18 1.30 1.43 1.52 1.53 1.51 1.50 1.47 1.38 1.26 1.06 0.88 0.72 0.55 0.42
0.04 0.07 0.02 0.00 0.00 0.00 0.00 0.00 0.00 0.00 0.00 0.05 0.15 0.21 0.25 0.24 0.19 0.14 0.13 0.14 0.20 0.27 0.31 0.38 0.47 0.53 0.57 0.61 0.72 0.81 0.88 0.95 1.00 1.01 1.00 0.99 0.95 0.86 0.74 0.64 0.53 0.43 0.34 0.27
0.05 0.09 0.04 0.01 0.00 0.00 0.00 0.00 0.00 0.00 0.00 0.03 0.15 0.39 0.44 0.45 0.36 0.23 0.20 0.20 0.24 0.29 0.32 0.35 0.40 0.42 0.45 0.46 0.53 0.58 0.64 0.67 0.67 0.65 0.61 0.55 0.51 0.45 0.41 0.37 0.32 0.29 0.26 0.23
0.06 0.10 0.09 0.03 0.01 0.00 0.00 0.00 0.00 0.00 0.00 0.01 0.14 0.58 0.71 0.66 0.57 0.38 0.29 0.28 0.32 0.34 0.37 0.36 0.33 0.32 0.33 0.33 0.34 0.36 0.37 0.38 0.40 0.37 0.33 0.32 0.32 0.29 0.26 0.26 0.24 0.22 0.22 0.21
0.04 0.09 0.16 0.14 0.08 0.02 0.01 0.00 0.00 0.00 0.00 0.02 0.13 0.67 0.87 0.70 0.59 0.47 0.40 0.48 0.58 0.56 0.47 0.37 0.28 0.23 0.23 0.26 0.29 0.30 0.29 0.28 0.28 0.25 0.23 0.25 0.26 0.26 0.25 0.23 0.22 0.20 0.18 0.16
0.03 0.09 0.21 0.37 0.27 0.11 0.05 0.02 0.01 0.01 0.02 0.06 0.19 0.47 0.61 0.62 0.62 0.69 0.84 0.96 0.90 0.71 0.53 0.39 0.30 0.26 0.27 0.30 0.29 0.26 0.25 0.23 0.21 0.22 0.22 0.23 0.22 0.22 0.21 0.19 0.17 0.15 0.14 0.13
0.06 0.14 0.13 0.14 0.14 0.12 0.10 0.06 0.05 0.06 0.07 0.19 0.39 0.55 0.72 0.89 0.99 1.00 1.07 0.97 0.79 0.67 0.58 0.49 0.41 0.37 0.34 0.31 0.28 0.26 0.27 0.25 0.22 0.21 0.20 0.19 0.18 0.17 0.16 0.15 0.14 0.12 0.11 0.09
0.04 0.09 0.09 0.09 0.09 0.11 0.11 0.10 0.11 0.14 0.21 0.35 0.54 0.77 1.03 1.10 1.10 1.12 1.15 1.05 0.88 0.71 0.58 0.55 0.52 0.48 0.42 0.36 0.31 0.28 0.26 0.25 0.23 0.19 0.18 0.17 0.16 0.15 0.13 0.11 0.09 0.08 0.06 0.05
0.03 0.05 0.09 0.10 0.09 0.14 0.24 0.20 0.22 0.26 0.32 0.43 0.61 0.79 0.95 1.03 1.03 1.07 1.13 1.16 1.06 0.86 0.76 0.75 0.76 0.72 0.62 0.52 0.43 0.38 0.34 0.29 0.25 0.24 0.24 0.22 0.18 0.15 0.11 0.07 0.06 0.04 0.03 0.03
0.03 0.05 0.07 0.08 0.14 0.26 0.31 0.17 0.21 0.28 0.33 0.40 0.45 0.58 0.71 0.79 0.83 0.90 0.99 1.06 1.05 0.98 0.98 1.01 0.95 0.86 0.76 0.65 0.56 0.48 0.42 0.37 0.34 0.31 0.26 0.20 0.14 0.09 0.07 0.05 0.05 0.04 0.03 0.03
0.02 0.05 0.07 0.10 0.21 0.34 0.33 0.18 0.16 0.30 0.38 0.37 0.39 0.42 0.44 0.45 0.50 0.66 0.80 0.83 0.84 0.90 0.94 0.93 0.87 0.81 0.74 0.63 0.54 0.46 0.40 0.34 0.28 0.22 0.16 0.11 0.08 0.06 0.06 0.06 0.05 0.04 0.04 0.03
0.02 0.04 0.10 0.13 0.22 0.37 0.36 0.14 0.09 0.25 0.50 0.43 0.38 0.39 0.41 0.47 0.47 0.44 0.50 0.56 0.62 0.65 0.68 0.72 0.71 0.66 0.61 0.52 0.40 0.34 0.28 0.23 0.17 0.11 0.07 0.05 0.04 0.04 0.04 0.04 0.04 0.03 0.03 0.04
0.08 0.10 0.15 0.20 0.29 0.36 0.14 0.06 0.17 0.45 0.61 0.55 0.49 0.44 0.43 0.44 0.40 0.32 0.33 0.37 0.42 0.46 0.51 0.55 0.57 0.53 0.44 0.33 0.25 0.22 0.18 0.14 0.10 0.06 0.05 0.04 0.03 0.03 0.03 0.04 0.04 0.04 0.05 0.06
0.14 0.19 0.21 0.27 0.37 0.40 0.13 0.09 0.26 0.36 0.37 0.43 0.42 0.37 0.30 0.21 0.18 0.22 0.23 0.24 0.24 0.28 0.36 0.39 0.36 0.29 0.23 0.18 0.16 0.15 0.12 0.09 0.06 0.06 0.06 0.05 0.03 0.03 0.03 0.05 0.06 0.05 0.06 0.07
0.07 0.10 0.16 0.26 0.35 0.28 0.11 0.12 0.17 0.19 0.26 0.26 0.24 0.22 0.15 0.09 0.10 0.12 0.14 0.16 0.18 0.19 0.22 0.22 0.18 0.14 0.13 0.13 0.13 0.12 0.10 0.07 0.07 0.07 0.07 0.04 0.02 0.03 0.03 0.03 0.05 0.05 0.07 0.07
0.06 0.02 0.03 0.09 0.19 0.15 0.10 0.08 0.10 0.13 0.17 0.16 0.18 0.22 0.14 0.07 0.06 0.08 0.09 0.10 0.11 0.11 0.12 0.12 0.11 0.10 0.11 0.10 0.10 0.09 0.07 0.07 0.08 0.09 0.07 0.05 0.04 0.05 0.04 0.03 0.02 0.04 0.05 0.05
0.04 0.02 0.02 0.05 0.10 0.12 0.12 0.09 0.06 0.08 0.10 0.12 0.17 0.24 0.20 0.10 0.08 0.07 0.09 0.10 0.10 0.10 0.11 0.11 0.11 0.11 0.08 0.07 0.06 0.05 0.05 0.07 0.09 0.08 0.06 0.06 0.06 0.06 0.06 0.07 0.04 0.03 0.03 0.01
0.02 0.02 0.06 0.10 0.11 0.14 0.14 0.10 0.06 0.12 0.17 0.20 0.25 0.30 0.22 0.13 0.09 0.08 0.09 0.09 0.10 0.10 0.10 0.10 0.09 0.07 0.05 0.03 0.03 0.03 0.03 0.04 0.06 0.07 0.05 0.04 0.05 0.05 0.06 0.10 0.10 0.04 0.01 0.01

GEFSCGP_prec_meanprecacc_066.txt.gz
Total_Precipitation_Accumulation
0.00 0.00 0.00 0.00 0.00 0.00 0.00 0.00 0.00 0.00 0.00 0.00 0.01 0.01 0.02 0.02 0.01 0.02 0.03 0.06 0.11 0.19 0.26 0.44 0.50 0.59 0.61 0.48 0.39 0.31 0.30 0.37 0.42 0.47 0.50 0.59 0.80 0.97 1.15 1.38 1.59 1.67 1.61 1.55
0.00 0.00 0.00 0.00 0.00 0.00 0.00 0.00 0.00 0.00 0.00 0.00 0.01 0.03 0.04 0.04 0.04 0.07 0.10 0.10 0.13 0.25 0.36 0.56 0.69 0.89 0.91 0.77 0.65 0.58 0.58 0.73 0.91 1.12 1.35 1.59 1.80 1.90 2.07 2.25 2.32 2.26 2.11 2.00
0.00 0.00 0.00 0.00 0.00 0.00 0.00 0.00 0.00 0.00 0.01 0.01 0.01 0.06 0.09 0.09 0.09 0.10 0.14 0.16 0.24 0.35 0.45 0.59 0.75 0.93 1.02 1.06 1.00 0.94 1.02 1.36 1.81 2.01 2.16 2.51 2.81 2.86 2.86 2.77 2.67 2.60 2.49 2.36
0.00 0.00 0.00 0.00 0.00 0.00 0.00 0.00 0.00 0.00 0.01 0.02 0.01 0.08 0.13 0.12 0.12 0.10 0.14 0.20 0.29 0.40 0.48 0.63 0.80 0.95 1.02 1.21 1.26 1.27 1.52 1.98 2.38 2.65 3.03 3.44 3.66 3.77 3.79 3.49 3.13 2.79 2.49 2.25
0.00 0.00 0.00 0.00 0.00 0.00 0.00 0.00 0.00 0.01 0.00 0.01 0.02 0.09 0.23 0.22 0.17 0.15 0.15 0.18 0.23 0.30 0.45 0.56 0.72 0.87 0.93 1.05 1.27 1.45 1.80 2.20 2.68 3.22 3.73 4.06 4.19 4.17 3.87 3.32 2.80 2.47 2.24 1.97
0.00 0.00 0.00 0.00 0.00 0.00 0.00 0.00 0.00 0.00 0.01 0.02 0.01 0.07 0.28 0.43 0.33 0.24 0.24 0.27 0.28 0.24 0.33 0.48 0.67 0.75 0.90 1.10 1.27 1.49 1.74 2.10 2.61 3.10 3.51 3.54 3.61 3.56 3.20 2.78 2.47 2.23 1.90 1.55
0.00 0.00 0.00 0.00 0.00 0.00 0.00 0.00 0.00 0.00 0.01 0.03 0.02 0.10 0.36 0.54 0.45 0.33 0.27 0.28 0.31 0.24 0.27 0.50 0.73 0.67 0.82 1.08 1.38 1.62 1.88 2.19 2.51 2.87 3.13 3.14 3.11 2.98 2.69 2.34 1.98 1.65 1.34 1.06
0.02 0.01 0.01 0.00 0.00 0.01 0.00 0.00 0.00 0.00 0.01 0.01 0.05 0.19 0.34 0.44 0.39 0.29 0.23 0.20 0.22 0.25 0.30 0.44 0.62 0.70 0.89 1.03 1.25 1.53 1.81 2.06 2.16 2.21 2.35 2.37 2.31 2.21 2.06 1.72 1.39 1.16 0.96 0.76
0.06 0.05 0.02 0.01 0.00 0.00 0.00 0.00 0.00 0.01 0.01 0.04 0.18 0.29 0.40 0.37 0.30 0.24 0.18 0.17 0.21 0.27 0.34 0.43 0.54 0.67 0.87 1.08 1.24 1.40 1.51 1.64 1.74 1.74 1.70 1.68 1.65 1.55 1.43 1.23 1.02 0.83 0.64 0.49
0.07 0.11 0.04 0.01 0.00 0.00 0.00 0.00 0.00 0.01 0.01 0.07 0.24 0.37 0.46 0.50 0.41 0.26 0.19 0.20 0.25 0.31 0.35 0.42 0.51 0.58 0.65 0.71 0.87 0.98 1.01 1.07 1.11 1.13 1.11 1.10 1.05 0.97 0.86 0.75 0.63 0.51 0.41 0.32
0.07 0.13 0.07 0.01 0.01 0.01 0.00 0.00 0.01 0.01 0.01 0.06 0.24 0.58 0.77 0.90 0.77 0.44 0.29 0.26 0.28 0.32 0.35 0.38 0.43 0.45 0.49 0.50 0.57 0.65 0.70 0.73 0.73 0.71 0.67 0.61 0.58 0.53 0.48 0.44 0.41 0.37 0.33 0.28
0.09 0.14 0.12 0.04 0.02 0.01 0.01 0.01 0.01 0.01 0.02 0.05 0.23 0.86 1.31 1.31 1.02 0.63 0.41 0.35 0.36 0.38 0.39 0.38 0.35 0.34 0.35 0.35 0.36 0.39 0.40 0.41 0.43 0.40 0.36 0.36 0.36 0.34 0.31 0.31 0.30 0.27 0.26 0.24
0.06 0.12 0.21 0.16 0.09 0.03 0.02 0.02 0.02 0.02 0.02 0.06 0.24 1.07 1.71 1.56 1.17 0.78 0.53 0.55 0.62 0.59 0.50 0.39 0.30 0.25 0.25 0.28 0.30 0.31 0.30 0.29 0.29 0.27 0.25 0.26 0.28 0.28 0.27 0.25 0.24 0.22 0.20 0.18
0.04 0.12 0.26 0.42 0.30 0.14 0.07 0.04 0.03 0.03 0.06 0.14 0.30 0.66 0.95 1.01 0.97 0.92 0.96 1.02 0.93 0.73 0.55 0.41 0.32 0.28 0.29 0.31 0.30 0.27 0.26 0.24 0.22 0.22 0.23 0.24 0.24 0.23 0.22 0.20 0.18 0.16 0.15 0.14
0.08 0.18 0.17 0.17 0.18 0.17 0.15 0.12 0.08 0.08 0.11 0.26 0.48 0.70 0.93 1.06 1.12 1.08 1.13 1.01 0.82 0.69 0.59 0.50 0.42 0.38 0.35 0.32 0.29 0.26 0.27 0.26 0.23 0.21 0.21 0.20 0.18 0.17 0.17 0.15 0.14 0.12 0.11 0.10
0.06 0.12 0.12 0.14 0.15 0.18 0.18 0.17 0.16 0.19 0.26 0.41 0.61 0.91 1.22 1.27 1.22 1.21 1.21 1.09 0.90 0.72 0.60 0.56 0.53 0.49 0.43 0.37 0.31 0.28 0.26 0.25 0.23 0.20 0.18 0.17 0.16 0.15 0.13 0.11 0.09 0.08 0.06 0.05
0.05 0.10 0.15 0.17 0.15 0.23 0.34 0.28 0.27 0.31 0.37 0.50 0.69 0.90 1.09 1.14 1.13 1.17 1.20 1.21 1.11 0.90 0.78 0.77 0.78 0.73 0.64 0.53 0.44 0.39 0.35 0.30 0.25 0.24 0.24 0.22 0.19 0.15 0.11 0.07 0.06 0.05 0.04 0.03
0.06 0.08 0.11 0.13 0.21 0.38 0.42 0.23 0.28 0.34 0.38 0.45 0.51 0.65 0.82 0.89 0.91 0.98 1.07 1.14 1.13 1.06 1.04 1.07 1.01 0.89 0.78 0.67 0.56 0.49 0.42 0.38 0.34 0.31 0.26 0.20 0.14 0.09 0.07 0.05 0.05 0.04 0.03 0.03
0.04 0.07 0.10 0.14 0.27 0.43 0.40 0.22 0.19 0.34 0.42 0.41 0.44 0.46 0.49 0.51 0.56 0.74 0.89 0.93 0.94 0.98 1.01 0.99 0.92 0.85 0.76 0.65 0.54 0.46 0.41 0.35 0.28 0.22 0.16 0.12 0.08 0.06 0.06 0.06 0.05 0.05 0.04 0.04
0.02 0.05 0.11 0.15 0.27 0.43 0.41 0.17 0.11 0.27 0.53 0.48 0.43 0.44 0.46 0.51 0.52 0.52 0.58 0.62 0.67 0.69 0.72 0.75 0.73 0.68 0.63 0.53 0.41 0.35 0.29 0.23 0.18 0.11 0.08 0.06 0.05 0.04 0.04 0.04 0.04 0.03 0.03 0.04
0.08 0.11 0.16 0.22 0.32 0.40 0.16 0.08 0.18 0.47 0.64 0.58 0.52 0.49 0.48 0.49 0.44 0.35 0.36 0.41 0.47 0.51 0.55 0.59 0.61 0.57 0.47 0.35 0.27 0.22 0.18 0.15 0.10 0.06 0.05 0.04 0.03 0.03 0.04 0.04 0.05 0.05 0.05 0.06
0.14 0.20 0.23 0.29 0.39 0.42 0.14 0.10 0.27 0.38 0.39 0.44 0.44 0.40 0.33 0.24 0.21 0.24 0.26 0.27 0.28 0.32 0.40 0.44 0.41 0.34 0.26 0.20 0.18 0.16 0.13 0.09 0.06 0.06 0.06 0.05 0.04 0.03 0.03 0.05 0.06 0.05 0.07 0.07
0.07 0.10 0.17 0.26 0.36 0.29 0.12 0.13 0.18 0.20 0.27 0.27 0.25 0.23 0.16 0.10 0.11 0.14 0.17 0.19 0.21 0.22 0.26 0.27 0.25 0.20 0.18 0.17 0.15 0.13 0.10 0.08 0.07 0.07 0.07 0.04 0.02 0.03 0.03 0.04 0.05 0.05 0.07 0.07
0.06 0.02 0.03 0.09 0.19 0.15 0.10 0.08 0.10 0.13 0.18 0.17 0.19 0.22 0.15 0.08 0.07 0.10 0.14 0.16 0.16 0.14 0.15 0.15 0.15 0.14 0.15 0.13 0.11 0.10 0.07 0.07 0.08 0.09 0.07 0.05 0.05 0.05 0.04 0.04 0.02 0.04 0.05 0.05
0.04 0.02 0.02 0.05 0.11 0.12 0.13 0.09 0.06 0.08 0.10 0.12 0.18 0.24 0.20 0.11 0.09 0.09 0.11 0.13 0.14 0.13 0.13 0.13 0.14 0.13 0.09 0.08 0.07 0.05 0.06 0.08 0.10 0.08 0.06 0.06 0.06 0.06 0.06 0.07 0.04 0.03 0.03 0.01
0.02 0.02 0.06 0.10 0.11 0.14 0.15 0.10 0.06 0.12 0.17 0.20 0.25 0.31 0.22 0.14 0.10 0.09 0.10 0.11 0.12 0.11 0.11 0.11 0.10 0.08 0.06 0.04 0.04 0.04 0.03 0.04 0.07 0.07 0.05 0.04 0.05 0.05 0.06 0.10 0.10 0.04 0.01 0.01

GEFSCGP_prec_meanprecacc_072.txt.gz
Total_Precipitation_Accumulation
0.00 0.00 0.00 0.00 0.00 0.00 0.00 0.00 0.00 0.00 0.00 0.00 0.01 0.02 0.03 0.03 0.02 0.02 0.04 0.07 0.12 0.20 0.28 0.48 0.58 0.72 0.84 0.84 0.84 0.79 0.70 0.65 0.66 0.69 0.70 0.76 0.98 1.17 1.36 1.59 1.82 1.92 1.87 1.81
0.00 0.00 0.00 0.00 0.00 0.00 0.00 0.00 0.00 0.00 0.01 0.01 0.02 0.04 0.06 0.06 0.06 0.08 0.11 0.11 0.14 0.26 0.38 0.59 0.75 1.00 1.12 1.13 1.14 1.15 1.16 1.23 1.38 1.55 1.72 1.92 2.10 2.17 2.32 2.49 2.59 2.54 2.38 2.26
0.00 0.00 0.00 0.00 0.00 0.00 0.00 0.00 0.00 0.01 0.02 0.03 0.03 0.09 0.12 0.12 0.11 0.13 0.16 0.19 0.26 0.37 0.47 0.62 0.80 1.02 1.15 1.27 1.35 1.41 1.59 2.07 2.56 2.70 2.83 3.06 3.28 3.22 3.13 3.01 2.91 2.83 2.74 2.61
0.00 0.00 0.00 0.00 0.00 0.00 0.00 0.00 0.00 0.01 0.01 0.04 0.03 0.10 0.18 0.15 0.15 0.13 0.18 0.24 0.33 0.43 0.52 0.67 0.85 1.05 1.20 1.46 1.56 1.70 2.12 2.77 3.30 3.52 3.86 4.24 4.31 4.30 4.22 3.83 3.40 3.01 2.70 2.46
0.00 0.00 0.00 0.00 0.00 0.00 0.00 0.00 0.00 0.01 0.01 0.02 0.03 0.11 0.28 0.28 0.21 0.19 0.20 0.23 0.28 0.35 0.50 0.62 0.80 0.98 1.10 1.32 1.62 1.86 2.34 2.91 3.51 4.09 4.56 4.81 4.92 4.78 4.37 3.71 3.09 2.72 2.46 2.18
0.00 0.00 0.00 0.00 0.00 0.00 0.00 0.00 0.00 0.01 0.01 0.02 0.03 0.09 0.33 0.50 0.39 0.28 0.29 0.33 0.35 0.31 0.40 0.55 0.76 0.85 1.07 1.31 1.53 1.84 2.13 2.60 3.22 3.75 4.16 4.21 4.29 4.21 3.76 3.27 2.85 2.54 2.14 1.70
0.00 0.00 0.00 0.00 0.00 0.00 0.00 0.00 0.00 0.01 0.01 0.04 0.04 0.13 0.41 0.63 0.54 0.40 0.33 0.35 0.38 0.31 0.34 0.57 0.80 0.76 0.97 1.27 1.59 1.87 2.17 2.49 2.86 3.30 3.61 3.69 3.71 3.58 3.22 2.79 2.36 1.96 1.57 1.22
0.02 0.01 0.01 0.00 0.00 0.01 0.00 0.01 0.01 0.01 0.01 0.03 0.09 0.25 0.41 0.53 0.48 0.37 0.30 0.28 0.29 0.31 0.37 0.51 0.68 0.76 0.98 1.17 1.43 1.74 2.01 2.26 2.39 2.48 2.65 2.71 2.67 2.56 2.39 2.03 1.65 1.36 1.12 0.89
0.06 0.05 0.02 0.01 0.00 0.00 0.00 0.01 0.01 0.01 0.01 0.05 0.23 0.35 0.47 0.47 0.37 0.33 0.28 0.26 0.28 0.33 0.39 0.47 0.59 0.72 0.93 1.19 1.40 1.63 1.73 1.82 1.93 1.96 1.93 1.92 1.89 1.77 1.62 1.42 1.21 0.98 0.77 0.59
0.07 0.11 0.04 0.01 0.01 0.01 0.01 0.01 0.01 0.01 0.01 0.08 0.28 0.45 0.54 0.61 0.54 0.39 0.29 0.29 0.31 0.36 0.39 0.46 0.54 0.62 0.70 0.80 1.03 1.18 1.24 1.28 1.31 1.31 1.29 1.26 1.21 1.12 1.01 0.90 0.78 0.64 0.52 0.41
0.08 0.13 0.07 0.01 0.01 0.01 0.01 0.01 0.01 0.01 0.02 0.07 0.25 0.62 0.84 1.00 0.91 0.60 0.41 0.37 0.38 0.41 0.41 0.43 0.48 0.50 0.53 0.55 0.67 0.80 0.88 0.92 0.93 0.92 0.86 0.77 0.72 0.64 0.60 0.57 0.52 0.46 0.41 0.36
0.09 0.14 0.12 0.04 0.02 0.01 0.01 0.02 0.01 0.02 0.02 0.05 0.24 0.88 1.37 1.41 1.16 0.80 0.56 0.49 0.48 0.48 0.48 0.45 0.41 0.39 0.38 0.39 0.42 0.47 0.51 0.53 0.55 0.53 0.50 0.50 0.48 0.42 0.38 0.37 0.34 0.30 0.28 0.26
0.06 0.12 0.21 0.16 0.10 0.04 0.03 0.03 0.02 0.02 0.03 0.07 0.25 1.10 1.79 1.68 1.40 1.08 0.79 0.71 0.73 0.68 0.57 0.45 0.34 0.28 0.28 0.31 0.34 0.35 0.35 0.33 0.34 0.32 0.31 0.34 0.35 0.34 0.31 0.28 0.26 0.23 0.20 0.18
0.05 0.13 0.27 0.42 0.31 0.15 0.08 0.05 0.04 0.04 0.07 0.15 0.31 0.68 1.00 1.10 1.15 1.19 1.22 1.23 1.08 0.82 0.63 0.47 0.36 0.32 0.33 0.35 0.33 0.30 0.29 0.26 0.24 0.25 0.25 0.26 0.27 0.25 0.24 0.22 0.19 0.17 0.15 0.14
0.08 0.19 0.18 0.19 0.20 0.19 0.17 0.13 0.10 0.09 0.12 0.27 0.50 0.72 0.96 1.10 1.18 1.23 1.31 1.17 0.97 0.81 0.69 0.57 0.46 0.42 0.39 0.34 0.30 0.28 0.29 0.27 0.24 0.23 0.22 0.21 0.19 0.18 0.17 0.16 0.14 0.13 0.12 0.10
0.07 0.14 0.14 0.16 0.17 0.21 0.20 0.18 0.17 0.20 0.27 0.42 0.63 0.93 1.25 1.31 1.27 1.27 1.31 1.20 1.00 0.81 0.68 0.62 0.57 0.53 0.46 0.39 0.33 0.29 0.27 0.26 0.24 0.20 0.18 0.17 0.17 0.15 0.13 0.11 0.09 0.08 0.06 0.05
0.06 0.11 0.16 0.19 0.17 0.25 0.37 0.30 0.29 0.33 0.39 0.52 0.72 0.94 1.13 1.20 1.18 1.22 1.26 1.27 1.17 0.95 0.83 0.81 0.82 0.77 0.66 0.55 0.45 0.40 0.35 0.30 0.26 0.25 0.24 0.23 0.19 0.15 0.11 0.07 0.06 0.05 0.04 0.03
0.07 0.09 0.12 0.15 0.24 0.41 0.45 0.26 0.30 0.35 0.39 0.47 0.55 0.72 0.89 0.97 0.99 1.07 1.15 1.21 1.20 1.12 1.10 1.12 1.05 0.93 0.81 0.69 0.58 0.50 0.43 0.38 0.34 0.31 0.27 0.20 0.14 0.09 0.07 0.05 0.05 0.04 0.03 0.03
0.04 0.08 0.12 0.16 0.29 0.45 0.43 0.25 0.21 0.35 0.43 0.42 0.47 0.50 0.54 0.57 0.62 0.85 0.98 1.01 1.04 1.08 1.08 1.04 0.97 0.89 0.81 0.67 0.56 0.48 0.41 0.35 0.29 0.22 0.16 0.12 0.08 0.07 0.06 0.06 0.05 0.05 0.04 0.04
0.03 0.05 0.12 0.16 0.27 0.44 0.42 0.18 0.12 0.28 0.54 0.49 0.45 0.46 0.48 0.54 0.56 0.60 0.66 0.69 0.76 0.78 0.80 0.80 0.78 0.72 0.66 0.56 0.43 0.36 0.30 0.23 0.18 0.11 0.08 0.06 0.05 0.04 0.04 0.04 0.04 0.03 0.03 0.04
0.09 0.12 0.17 0.22 0.33 0.40 0.17 0.08 0.19 0.48 0.65 0.59 0.54 0.51 0.52 0.53 0.47 0.38 0.41 0.48 0.54 0.58 0.61 0.64 0.64 0.60 0.49 0.37 0.28 0.23 0.19 0.15 0.10 0.06 0.05 0.04 0.03 0.03 0.04 0.04 0.05 0.05 0.05 0.06
0.15 0.20 0.23 0.29 0.39 0.42 0.14 0.10 0.28 0.38 0.39 0.45 0.45 0.43 0.38 0.30 0.25 0.27 0.29 0.31 0.34 0.38 0.47 0.49 0.44 0.36 0.29 0.22 0.19 0.17 0.13 0.09 0.06 0.06 0.06 0.05 0.04 0.03 0.03 0.05 0.06 0.05 0.07 0.07
0.07 0.10 0.17 0.26 0.36 0.29 0.12 0.13 0.18 0.20 0.27 0.28 0.27 0.25 0.19 0.14 0.14 0.17 0.20 0.23 0.26 0.27 0.29 0.31 0.28 0.23 0.21 0.18 0.16 0.14 0.10 0.08 0.07 0.08 0.07 0.04 0.02 0.03 0.03 0.04 0.05 0.05 0.07 0.07
0.06 0.02 0.03 0.09 0.19 0.15 0.10 0.08 0.10 0.13 0.18 0.17 0.20 0.24 0.18 0.12 0.10 0.13 0.16 0.19 0.19 0.18 0.17 0.18 0.17 0.16 0.16 0.14 0.13 0.11 0.08 0.07 0.08 0.09 0.07 0.05 0.05 0.05 0.04 0.04 0.02 0.04 0.05 0.05
0.04 0.02 0.02 0.05 0.11 0.12 0.13 0.09 0.06 0.08 0.10 0.13 0.19 0.26 0.23 0.15 0.13 0.12 0.13 0.15 0.16 0.16 0.16 0.16 0.15 0.14 0.10 0.09 0.08 0.06 0.06 0.08 0.10 0.08 0.06 0.06 0.07 0.06 0.06 0.07 0.04 0.03 0.03 0.01
0.02 0.02 0.06 0.10 0.11 0.14 0.15 0.10 0.07 0.12 0.17 0.20 0.26 0.32 0.24 0.16 0.13 0.11 0.12 0.13 0.13 0.13 0.13 0.13 0.11 0.09 0.07 0.06 0.05 0.04 0.04 0.05 0.07 0.08 0.05 0.04 0.05 0.05 0.06 0.10 0.10 0.04 0.01 0.01

GEFSCGP_prec_meanprecacc_078.txt.gz
Total_Precipitation_Accumulation
0.00 0.00 0.00 0.00 0.00 0.00 0.00 0.00 0.00 0.00 0.00 0.00 0.01 0.02 0.03 0.03 0.02 0.03 0.04 0.07 0.12 0.21 0.29 0.49 0.60 0.75 0.88 0.93 0.99 0.95 0.91 0.92 0.95 1.00 0.99 1.01 1.22 1.40 1.61 1.81 2.02 2.14 2.09 2.03
0.00 0.00 0.00 0.00 0.00 0.00 0.00 0.00 0.00 0.00 0.01 0.01 0.02 0.05 0.06 0.07 0.06 0.08 0.12 0.12 0.15 0.27 0.39 0.60 0.76 1.01 1.15 1.17 1.20 1.25 1.30 1.45 1.70 1.92 2.15 2.31 2.49 2.52 2.63 2.76 2.83 2.77 2.62 2.51
0.00 0.00 0.00 0.00 0.00 0.00 0.00 0.00 0.00 0.01 0.02 0.03 0.04 0.10 0.14 0.13 0.12 0.13 0.17 0.20 0.27 0.37 0.47 0.63 0.80 1.03 1.17 1.30 1.40 1.49 1.72 2.26 2.82 3.05 3.23 3.46 3.70 3.63 3.48 3.33 3.22 3.14 3.01 2.85
0.00 0.00 0.00 0.00 0.00 0.00 0.00 0.00 0.00 0.01 0.02 0.05 0.04 0.12 0.21 0.18 0.17 0.15 0.19 0.25 0.34 0.44 0.53 0.68 0.86 1.06 1.22 1.49 1.61 1.77 2.23 2.92 3.50 3.81 4.18 4.58 4.70 4.72 4.64 4.20 3.72 3.29 2.96 2.71
0.00 0.00 0.00 0.00 0.00 0.00 0.00 0.00 0.00 0.01 0.01 0.03 0.05 0.14 0.31 0.31 0.25 0.22 0.22 0.25 0.31 0.37 0.52 0.64 0.82 1.01 1.13 1.34 1.66 1.93 2.44 3.05 3.71 4.36 4.86 5.14 5.29 5.21 4.79 4.06 3.38 2.97 2.70 2.39
0.00 0.00 0.00 0.00 0.00 0.00 0.00 0.00 0.00 0.01 0.02 0.04 0.04 0.11 0.37 0.55 0.45 0.33 0.33 0.37 0.39 0.34 0.43 0.57 0.78 0.87 1.09 1.34 1.57 1.90 2.22 2.74 3.38 3.93 4.38 4.45 4.56 4.51 4.08 3.58 3.11 2.76 2.34 1.87
0.00 0.00 0.00 0.00 0.00 0.00 0.00 0.01 0.01 0.01 0.02 0.05 0.05 0.16 0.45 0.68 0.62 0.47 0.40 0.42 0.44 0.35 0.37 0.59 0.83 0.78 1.00 1.31 1.64 1.93 2.24 2.58 2.96 3.42 3.80 3.92 3.96 3.83 3.48 3.04 2.60 2.16 1.75 1.37
0.02 0.01 0.01 0.00 0.00 0.01 0.00 0.01 0.01 0.01 0.02 0.04 0.12 0.29 0.46 0.57 0.55 0.44 0.37 0.36 0.35 0.36 0.40 0.54 0.72 0.79 1.01 1.21 1.48 1.80 2.07 2.32 2.46 2.59 2.81 2.89 2.90 2.79 2.59 2.19 1.80 1.51 1.27 1.04
0.06 0.05 0.02 0.01 0.00 0.00 0.01 0.01 0.01 0.01 0.02 0.07 0.27 0.40 0.52 0.51 0.43 0.40 0.36 0.32 0.33 0.38 0.43 0.52 0.64 0.76 0.96 1.22 1.44 1.69 1.81 1.90 2.00 2.04 2.03 2.01 2.01 1.90 1.74 1.53 1.31 1.09 0.89 0.70
0.07 0.11 0.04 0.01 0.01 0.01 0.01 0.01 0.01 0.02 0.02 0.09 0.32 0.52 0.60 0.67 0.62 0.50 0.40 0.37 0.37 0.40 0.43 0.49 0.58 0.66 0.74 0.84 1.07 1.24 1.32 1.38 1.42 1.41 1.40 1.37 1.32 1.23 1.12 1.00 0.87 0.73 0.60 0.48
0.08 0.13 0.07 0.01 0.01 0.01 0.01 0.02 0.02 0.03 0.03 0.08 0.28 0.67 0.88 1.04 1.00 0.74 0.54 0.48 0.48 0.48 0.47 0.48 0.51 0.53 0.57 0.59 0.72 0.85 0.94 1.00 1.06 1.09 1.03 0.94 0.93 0.87 0.76 0.69 0.63 0.56 0.48 0.42
0.09 0.14 0.12 0.04 0.02 0.01 0.02 0.02 0.02 0.04 0.04 0.07 0.27 0.92 1.39 1.44 1.23 0.92 0.72 0.65 0.63 0.61 0.58 0.52 0.49 0.44 0.44 0.46 0.49 0.54 0.58 0.61 0.66 0.69 0.67 0.67 0.66 0.66 0.65 0.59 0.51 0.41 0.35 0.31
0.06 0.13 0.23 0.17 0.11 0.05 0.03 0.03 0.03 0.03 0.05 0.10 0.29 1.13 1.80 1.70 1.45 1.17 0.96 0.91 0.89 0.83 0.70 0.55 0.43 0.36 0.35 0.39 0.41 0.42 0.41 0.40 0.42 0.42 0.42 0.46 0.46 0.44 0.43 0.41 0.39 0.34 0.27 0.22
0.05 0.14 0.28 0.45 0.33 0.16 0.10 0.06 0.05 0.06 0.11 0.18 0.35 0.70 1.02 1.13 1.19 1.25 1.36 1.41 1.24 0.97 0.77 0.58 0.46 0.40 0.40 0.41 0.39 0.36 0.34 0.31 0.30 0.31 0.32 0.34 0.33 0.30 0.28 0.25 0.22 0.21 0.19 0.17
0.09 0.20 0.19 0.20 0.20 0.20 0.19 0.15 0.11 0.12 0.14 0.31 0.54 0.74 0.99 1.13 1.21 1.28 1.44 1.37 1.17 0.98 0.82 0.68 0.56 0.53 0.48 0.40 0.35 0.32 0.33 0.32 0.29 0.27 0.26 0.26 0.22 0.20 0.19 0.18 0.16 0.15 0.14 0.12
0.07 0.15 0.16 0.19 0.18 0.22 0.22 0.20 0.19 0.23 0.29 0.45 0.67 0.97 1.28 1.33 1.30 1.32 1.41 1.35 1.16 0.95 0.81 0.73 0.68 0.65 0.56 0.45 0.37 0.34 0.31 0.29 0.27 0.25 0.21 0.19 0.18 0.17 0.15 0.13 0.11 0.09 0.07 0.06
0.07 0.14 0.19 0.22 0.20 0.27 0.40 0.33 0.32 0.36 0.41 0.54 0.77 0.97 1.16 1.25 1.24 1.29 1.36 1.40 1.28 1.07 0.95 0.92 0.92 0.87 0.75 0.61 0.50 0.44 0.40 0.34 0.29 0.28 0.26 0.24 0.20 0.16 0.12 0.09 0.07 0.05 0.04 0.03
0.07 0.11 0.15 0.18 0.27 0.46 0.50 0.28 0.32 0.37 0.40 0.49 0.57 0.74 0.91 1.02 1.07 1.19 1.30 1.34 1.30 1.23 1.20 1.21 1.15 1.02 0.88 0.75 0.62 0.53 0.46 0.41 0.36 0.33 0.28 0.21 0.15 0.10 0.08 0.07 0.06 0.05 0.04 0.03
0.04 0.09 0.14 0.19 0.33 0.50 0.46 0.27 0.22 0.37 0.44 0.44 0.49 0.52 0.57 0.60 0.68 0.97 1.13 1.15 1.17 1.20 1.18 1.11 1.04 0.96 0.87 0.72 0.60 0.50 0.43 0.36 0.30 0.24 0.18 0.12 0.09 0.08 0.07 0.07 0.06 0.06 0.05 0.04
0.03 0.06 0.14 0.19 0.30 0.47 0.45 0.20 0.12 0.29 0.56 0.51 0.47 0.47 0.51 0.57 0.62 0.70 0.78 0.79 0.85 0.89 0.90 0.89 0.85 0.79 0.71 0.60 0.47 0.38 0.31 0.25 0.19 0.12 0.09 0.06 0.05 0.05 0.05 0.05 0.05 0.04 0.04 0.05
0.10 0.13 0.18 0.24 0.35 0.42 0.18 0.09 0.20 0.50 0.69 0.60 0.55 0.52 0.55 0.57 0.52 0.43 0.46 0.54 0.62 0.69 0.73 0.72 0.70 0.66 0.54 0.40 0.31 0.25 0.20 0.16 0.10 0.06 0.05 0.05 0.04 0.04 0.04 0.05 0.05 0.06 0.07 0.07
0.16 0.21 0.24 0.30 0.40 0.43 0.14 0.11 0.29 0.42 0.41 0.46 0.46 0.45 0.42 0.35 0.29 0.30 0.33 0.37 0.40 0.48 0.57 0.56 0.49 0.41 0.32 0.25 0.21 0.19 0.14 0.10 0.07 0.06 0.07 0.06 0.05 0.04 0.04 0.06 0.07 0.07 0.08 0.09
0.07 0.10 0.17 0.27 0.37 0.30 0.12 0.13 0.18 0.20 0.28 0.29 0.29 0.29 0.24 0.19 0.20 0.21 0.24 0.29 0.32 0.34 0.38 0.37 0.32 0.26 0.23 0.21 0.18 0.15 0.11 0.09 0.08 0.09 0.08 0.06 0.04 0.04 0.04 0.05 0.06 0.06 0.08 0.08
0.06 0.02 0.03 0.09 0.19 0.15 0.10 0.08 0.10 0.13 0.18 0.19 0.22 0.28 0.22 0.16 0.15 0.16 0.20 0.23 0.25 0.25 0.23 0.23 0.21 0.19 0.19 0.16 0.14 0.12 0.09 0.08 0.10 0.10 0.08 0.07 0.06 0.07 0.05 0.05 0.03 0.04 0.06 0.06
0.04 0.02 0.02 0.06 0.11 0.12 0.13 0.09 0.06 0.08 0.10 0.13 0.21 0.30 0.27 0.19 0.17 0.15 0.16 0.19 0.20 0.21 0.21 0.21 0.19 0.16 0.12 0.10 0.09 0.07 0.07 0.09 0.11 0.10 0.07 0.08 0.08 0.08 0.08 0.07 0.04 0.03 0.03 0.02
0.02 0.02 0.06 0.11 0.11 0.14 0.15 0.10 0.07 0.12 0.17 0.20 0.26 0.34 0.27 0.21 0.18 0.14 0.15 0.15 0.16 0.16 0.17 0.17 0.15 0.11 0.08 0.07 0.06 0.06 0.05 0.06 0.09 0.09 0.07 0.06 0.07 0.07 0.07 0.11 0.10 0.04 0.01 0.01

GEFSCGP_prec_meanprecacc_084.txt.gz
Total_Precipitation_Accumulation
0.00 0.00 0.00 0.00 0.00 0.00 0.00 0.00 0.00 0.00 0.00 0.00 0.01 0.02 0.03 0.03 0.03 0.04 0.06 0.09 0.14 0.23 0.32 0.52 0.64 0.83 0.96 1.04 1.15 1.15 1.18 1.24 1.31 1.37 1.34 1.38 1.52 1.72 1.95 2.14 2.33 2.46 2.46 2.37
0.00 0.00 0.00 0.00 0.00 0.00 0.00 0.00 0.00 0.01 0.01 0.01 0.02 0.05 0.07 0.07 0.07 0.10 0.15 0.13 0.16 0.28 0.40 0.62 0.80 1.10 1.26 1.30 1.34 1.41 1.48 1.73 2.06 2.29 2.57 2.78 2.90 2.85 2.94 3.06 3.14 3.05 2.94 2.83
0.00 0.00 0.00 0.00 0.00 0.00 0.00 0.00 0.01 0.01 0.02 0.03 0.04 0.12 0.15 0.15 0.16 0.16 0.18 0.21 0.28 0.41 0.54 0.68 0.85 1.14 1.31 1.43 1.52 1.61 1.84 2.46 3.15 3.39 3.57 3.89 4.10 3.89 3.75 3.59 3.50 3.41 3.32 3.23
0.00 0.00 0.00 0.00 0.00 0.00 0.00 0.00 0.00 0.01 0.02 0.05 0.05 0.16 0.25 0.24 0.25 0.20 0.22 0.27 0.35 0.47 0.60 0.74 0.90 1.14 1.31 1.59 1.73 1.89 2.35 3.06 3.70 4.08 4.51 4.90 4.96 4.92 4.83 4.39 3.88 3.47 3.15 2.90
0.00 0.00 0.00 0.00 0.00 0.00 0.00 0.00 0.00 0.01 0.01 0.03 0.06 0.18 0.37 0.42 0.42 0.36 0.33 0.33 0.35 0.40 0.56 0.68 0.85 1.07 1.18 1.40 1.75 2.03 2.56 3.18 3.87 4.53 5.10 5.41 5.53 5.41 5.00 4.24 3.50 3.09 2.83 2.53
0.00 0.00 0.00 0.00 0.00 0.00 0.00 0.00 0.00 0.01 0.02 0.05 0.05 0.15 0.43 0.68 0.72 0.63 0.51 0.50 0.46 0.38 0.45 0.60 0.80 0.90 1.13 1.39 1.63 1.97 2.33 2.89 3.53 4.08 4.55 4.65 4.74 4.69 4.26 3.76 3.27 2.91 2.47 1.99
0.00 0.00 0.00 0.00 0.00 0.00 0.00 0.01 0.03 0.05 0.06 0.09 0.07 0.19 0.53 0.83 0.80 0.62 0.55 0.55 0.52 0.39 0.40 0.62 0.85 0.80 1.02 1.35 1.69 2.00 2.33 2.70 3.11 3.58 3.97 4.15 4.18 3.99 3.63 3.21 2.79 2.33 1.90 1.52
0.02 0.01 0.01 0.00 0.00 0.01 0.00 0.01 0.05 0.08 0.08 0.12 0.17 0.35 0.58 0.71 0.66 0.53 0.50 0.48 0.44 0.42 0.45 0.58 0.75 0.82 1.04 1.24 1.53 1.86 2.15 2.42 2.58 2.72 2.97 3.08 3.10 2.97 2.73 2.33 1.93 1.63 1.38 1.14
0.07 0.05 0.02 0.01 0.00 0.00 0.01 0.01 0.02 0.03 0.03 0.12 0.34 0.49 0.64 0.62 0.52 0.48 0.44 0.42 0.45 0.46 0.49 0.56 0.68 0.80 1.02 1.28 1.52 1.76 1.89 2.01 2.13 2.18 2.18 2.17 2.15 2.03 1.86 1.65 1.42 1.19 0.96 0.77
0.07 0.12 0.04 0.01 0.01 0.01 0.01 0.01 0.02 0.03 0.06 0.15 0.39 0.65 0.83 0.85 0.77 0.61 0.47 0.47 0.48 0.50 0.52 0.55 0.63 0.71 0.80 0.91 1.15 1.33 1.41 1.49 1.53 1.52 1.53 1.51 1.44 1.35 1.25 1.13 0.99 0.81 0.67 0.55
0.08 0.13 0.07 0.02 0.01 0.01 0.01 0.02 0.03 0.04 0.04 0.14 0.37 0.84 1.09 1.22 1.16 0.89 0.65 0.57 0.57 0.58 0.56 0.55 0.58 0.59 0.63 0.67 0.80 0.95 1.04 1.08 1.14 1.17 1.13 1.05 1.03 0.98 0.94 0.90 0.85 0.72 0.60 0.50
0.09 0.14 0.13 0.05 0.04 0.02 0.02 0.02 0.03 0.06 0.08 0.13 0.37 1.08 1.53 1.58 1.36 1.01 0.80 0.71 0.70 0.69 0.64 0.59 0.55 0.50 0.51 0.54 0.58 0.64 0.69 0.69 0.74 0.77 0.76 0.76 0.77 0.77 0.77 0.72 0.65 0.52 0.43 0.38
0.06 0.13 0.27 0.24 0.17 0.07 0.04 0.03 0.03 0.04 0.08 0.15 0.39 1.27 1.90 1.80 1.54 1.26 1.05 1.00 0.99 0.92 0.78 0.63 0.51 0.42 0.42 0.47 0.49 0.51 0.50 0.48 0.50 0.50 0.49 0.53 0.54 0.52 0.50 0.47 0.45 0.41 0.34 0.29
0.05 0.14 0.34 0.58 0.41 0.21 0.12 0.07 0.05 0.07 0.15 0.25 0.43 0.81 1.11 1.21 1.28 1.32 1.43 1.50 1.36 1.09 0.89 0.70 0.58 0.49 0.47 0.49 0.47 0.45 0.43 0.38 0.38 0.39 0.40 0.42 0.42 0.38 0.35 0.31 0.28 0.26 0.23 0.21
0.09 0.20 0.20 0.22 0.21 0.21 0.19 0.15 0.12 0.13 0.17 0.36 0.61 0.84 1.08 1.18 1.25 1.32 1.49 1.44 1.27 1.11 0.96 0.80 0.70 0.66 0.59 0.50 0.45 0.44 0.45 0.42 0.39 0.37 0.36 0.36 0.33 0.29 0.26 0.23 0.21 0.19 0.17 0.14
0.08 0.16 0.17 0.20 0.19 0.22 0.23 0.21 0.21 0.24 0.31 0.48 0.73 1.05 1.35 1.37 1.33 1.36 1.45 1.40 1.24 1.05 0.92 0.83 0.79 0.78 0.68 0.57 0.47 0.43 0.42 0.41 0.38 0.35 0.32 0.30 0.28 0.25 0.21 0.18 0.15 0.13 0.10 0.08
0.09 0.17 0.25 0.27 0.21 0.30 0.46 0.37 0.35 0.38 0.42 0.58 0.83 1.05 1.21 1.27 1.27 1.33 1.42 1.47 1.37 1.16 1.04 1.01 1.03 1.01 0.87 0.71 0.60 0.53 0.49 0.43 0.39 0.36 0.34 0.32 0.27 0.22 0.17 0.12 0.10 0.09 0.07 0.06
0.10 0.16 0.21 0.23 0.32 0.55 0.57 0.30 0.34 0.39 0.42 0.51 0.61 0.78 0.95 1.05 1.11 1.24 1.39 1.47 1.43 1.35 1.31 1.30 1.26 1.13 1.00 0.86 0.74 0.63 0.54 0.49 0.45 0.40 0.33 0.25 0.18 0.13 0.10 0.09 0.09 0.08 0.07 0.06
0.05 0.12 0.18 0.25 0.42 0.59 0.52 0.29 0.24 0.40 0.49 0.47 0.51 0.54 0.58 0.62 0.71 1.01 1.19 1.26 1.29 1.32 1.30 1.20 1.12 1.04 0.95 0.82 0.71 0.60 0.51 0.44 0.38 0.31 0.23 0.16 0.12 0.11 0.09 0.09 0.09 0.09 0.08 0.07
0.03 0.07 0.18 0.25 0.42 0.59 0.55 0.22 0.13 0.32 0.64 0.54 0.49 0.50 0.53 0.60 0.66 0.74 0.83 0.86 0.94 0.99 1.00 0.97 0.92 0.86 0.78 0.69 0.57 0.47 0.38 0.31 0.25 0.18 0.15 0.11 0.09 0.09 0.09 0.08 0.08 0.07 0.06 0.07
0.12 0.15 0.22 0.31 0.44 0.53 0.25 0.11 0.21 0.56 0.79 0.64 0.57 0.55 0.59 0.66 0.59 0.47 0.50 0.59 0.69 0.78 0.82 0.80 0.77 0.74 0.61 0.46 0.38 0.32 0.26 0.21 0.14 0.09 0.08 0.08 0.07 0.07 0.07 0.09 0.08 0.08 0.09 0.10
0.18 0.24 0.28 0.36 0.49 0.53 0.17 0.12 0.33 0.47 0.44 0.47 0.48 0.48 0.46 0.40 0.32 0.33 0.35 0.40 0.46 0.56 0.66 0.63 0.57 0.48 0.37 0.29 0.27 0.25 0.19 0.12 0.08 0.08 0.09 0.08 0.07 0.05 0.06 0.09 0.10 0.10 0.11 0.12
0.09 0.13 0.21 0.32 0.43 0.34 0.13 0.14 0.20 0.22 0.29 0.31 0.30 0.31 0.25 0.22 0.23 0.24 0.27 0.32 0.36 0.39 0.45 0.45 0.40 0.33 0.29 0.25 0.23 0.21 0.15 0.11 0.10 0.11 0.11 0.09 0.06 0.06 0.07 0.08 0.10 0.10 0.11 0.11
0.08 0.03 0.03 0.10 0.20 0.15 0.11 0.09 0.12 0.14 0.19 0.20 0.24 0.30 0.23 0.19 0.19 0.20 0.23 0.27 0.31 0.31 0.30 0.30 0.28 0.26 0.25 0.20 0.18 0.15 0.10 0.10 0.13 0.15 0.12 0.10 0.10 0.11 0.09 0.07 0.06 0.07 0.09 0.08
0.05 0.03 0.03 0.07 0.12 0.13 0.14 0.10 0.07 0.09 0.11 0.14 0.23 0.32 0.29 0.21 0.20 0.18 0.20 0.23 0.25 0.27 0.28 0.28 0.26 0.22 0.17 0.14 0.12 0.09 0.09 0.12 0.16 0.13 0.10 0.12 0.13 0.12 0.11 0.09 0.05 0.04 0.04 0.02
0.02 0.03 0.06 0.11 0.12 0.14 0.15 0.11 0.08 0.13 0.18 0.21 0.28 0.36 0.29 0.23 0.20 0.18 0.19 0.19 0.21 0.22 0.24 0.24 0.20 0.16 0.12 0.10 0.09 0.08 0.08 0.09 0.13 0.13 0.11 0.10 0.11 0.10 0.10 0.11 0.10 0.04 0.01 0.01

GEFSCGP_prec_meanprecacc_090.txt.gz
Total_Precipitation_Accumulation
0.00 0.00 0.00 0.00 0.00 0.00 0.00 0.00 0.00 0.01 0.00 0.00 0.01 0.03 0.04 0.04 0.04 0.05 0.08 0.12 0.18 0.26 0.37 0.57 0.69 0.92 1.12 1.24 1.37 1.38 1.44 1.56 1.69 1.88 1.88 1.95 2.12 2.38 2.63 2.79 2.84 2.86 2.79 2.74
0.00 0.00 0.00 0.00 0.00 0.00 0.00 0.00 0.00 0.01 0.01 0.01 0.02 0.06 0.08 0.10 0.10 0.13 0.20 0.20 0.21 0.30 0.42 0.66 0.85 1.17 1.41 1.53 1.62 1.70 1.77 2.05 2.42 2.75 3.09 3.37 3.47 3.42 3.54 3.62 3.64 3.51 3.34 3.17
0.00 0.00 0.00 0.00 0.00 0.00 0.00 0.00 0.01 0.01 0.02 0.03 0.05 0.14 0.17 0.17 0.20 0.23 0.26 0.27 0.32 0.43 0.57 0.71 0.92 1.23 1.45 1.59 1.76 1.88 2.12 2.73 3.45 3.71 3.94 4.40 4.62 4.38 4.17 4.01 3.91 3.83 3.76 3.65
0.00 0.00 0.00 0.00 0.00 0.00 0.00 0.00 0.00 0.01 0.02 0.05 0.06 0.17 0.27 0.27 0.29 0.26 0.29 0.33 0.40 0.51 0.66 0.79 0.94 1.21 1.52 1.82 1.90 2.06 2.55 3.27 3.89 4.28 4.73 5.18 5.31 5.30 5.20 4.75 4.24 3.80 3.47 3.23
0.00 0.00 0.00 0.00 0.00 0.00 0.00 0.00 0.00 0.01 0.01 0.04 0.06 0.18 0.39 0.45 0.47 0.45 0.43 0.42 0.41 0.47 0.66 0.81 0.94 1.15 1.32 1.59 1.96 2.21 2.74 3.40 4.05 4.69 5.26 5.58 5.76 5.66 5.26 4.51 3.75 3.31 3.04 2.74
0.00 0.00 0.00 0.01 0.00 0.00 0.00 0.00 0.00 0.01 0.02 0.06 0.06 0.15 0.46 0.72 0.79 0.72 0.62 0.63 0.58 0.47 0.53 0.68 0.87 0.97 1.23 1.49 1.78 2.18 2.48 3.09 3.73 4.27 4.73 4.84 4.95 4.85 4.41 3.94 3.42 3.05 2.64 2.15
0.01 0.01 0.01 0.00 0.00 0.00 0.00 0.01 0.03 0.05 0.06 0.10 0.08 0.20 0.56 0.88 0.87 0.72 0.64 0.64 0.62 0.48 0.48 0.70 0.95 0.89 1.10 1.43 1.77 2.12 2.46 2.86 3.33 3.80 4.21 4.41 4.49 4.27 3.80 3.36 2.95 2.49 2.07 1.69
0.02 0.02 0.02 0.01 0.00 0.01 0.00 0.01 0.06 0.09 0.10 0.14 0.18 0.39 0.67 0.83 0.79 0.65 0.60 0.55 0.52 0.49 0.52 0.65 0.82 0.90 1.12 1.33 1.62 1.96 2.27 2.57 2.75 2.93 3.20 3.34 3.43 3.28 2.96 2.47 2.03 1.74 1.51 1.28
0.07 0.06 0.02 0.01 0.01 0.01 0.01 0.01 0.02 0.03 0.05 0.16 0.39 0.57 0.75 0.77 0.67 0.64 0.59 0.53 0.53 0.54 0.55 0.63 0.74 0.85 1.07 1.35 1.61 1.86 1.99 2.13 2.27 2.34 2.36 2.35 2.38 2.25 2.02 1.78 1.51 1.27 1.04 0.84
0.07 0.12 0.05 0.01 0.01 0.01 0.01 0.02 0.03 0.04 0.09 0.20 0.45 0.73 0.93 1.05 1.00 0.85 0.71 0.62 0.56 0.57 0.58 0.61 0.68 0.75 0.84 0.96 1.23 1.45 1.54 1.62 1.66 1.67 1.68 1.66 1.59 1.51 1.42 1.29 1.11 0.90 0.75 0.60
0.08 0.13 0.08 0.02 0.02 0.02 0.02 0.03 0.04 0.06 0.07 0.18 0.43 0.90 1.16 1.32 1.28 1.07 0.86 0.74 0.68 0.66 0.63 0.61 0.63 0.63 0.68 0.72 0.87 1.05 1.17 1.20 1.26 1.29 1.24 1.15 1.13 1.07 1.04 1.01 0.94 0.80 0.66 0.54
0.09 0.14 0.13 0.06 0.04 0.03 0.03 0.04 0.05 0.10 0.11 0.16 0.41 1.14 1.59 1.65 1.46 1.15 0.96 0.87 0.85 0.77 0.68 0.62 0.57 0.53 0.55 0.59 0.64 0.72 0.78 0.79 0.84 0.86 0.84 0.84 0.84 0.84 0.82 0.76 0.68 0.55 0.46 0.39
0.07 0.14 0.28 0.25 0.19 0.09 0.05 0.05 0.05 0.06 0.11 0.19 0.43 1.32 1.96 1.86 1.61 1.34 1.11 1.06 1.07 0.97 0.80 0.65 0.53 0.45 0.45 0.51 0.55 0.57 0.57 0.57 0.59 0.57 0.57 0.60 0.61 0.59 0.55 0.51 0.48 0.44 0.37 0.31
0.06 0.14 0.35 0.61 0.45 0.24 0.14 0.08 0.07 0.09 0.18 0.28 0.47 0.87 1.18 1.27 1.32 1.35 1.45 1.52 1.39 1.12 0.92 0.73 0.61 0.52 0.50 0.53 0.53 0.52 0.50 0.46 0.45 0.46 0.47 0.49 0.48 0.46 0.41 0.35 0.31 0.28 0.25 0.23
0.10 0.21 0.22 0.24 0.22 0.24 0.22 0.17 0.14 0.14 0.19 0.39 0.65 0.89 1.13 1.21 1.26 1.33 1.50 1.46 1.30 1.14 0.99 0.84 0.74 0.70 0.63 0.55 0.50 0.50 0.53 0.49 0.45 0.44 0.42 0.42 0.39 0.36 0.33 0.30 0.26 0.23 0.19 0.16
0.09 0.18 0.20 0.24 0.21 0.24 0.25 0.25 0.24 0.27 0.33 0.51 0.76 1.09 1.38 1.39 1.34 1.37 1.46 1.42 1.27 1.09 0.96 0.88 0.83 0.82 0.71 0.62 0.53 0.48 0.50 0.50 0.46 0.42 0.38 0.36 0.35 0.32 0.28 0.25 0.21 0.18 0.14 0.10
0.12 0.22 0.29 0.31 0.23 0.34 0.50 0.41 0.38 0.41 0.46 0.61 0.86 1.08 1.23 1.28 1.28 1.34 1.43 1.50 1.41 1.21 1.08 1.06 1.08 1.05 0.92 0.77 0.65 0.59 0.55 0.51 0.49 0.46 0.41 0.38 0.32 0.28 0.24 0.18 0.15 0.13 0.11 0.08
0.13 0.20 0.26 0.27 0.35 0.62 0.62 0.34 0.38 0.43 0.46 0.53 0.62 0.80 0.97 1.05 1.11 1.25 1.40 1.50 1.47 1.39 1.35 1.35 1.31 1.18 1.05 0.91 0.79 0.69 0.61 0.56 0.53 0.48 0.40 0.31 0.23 0.18 0.16 0.15 0.13 0.12 0.10 0.08
0.07 0.16 0.24 0.32 0.49 0.69 0.58 0.34 0.30 0.44 0.51 0.48 0.53 0.56 0.60 0.63 0.71 1.02 1.21 1.28 1.31 1.34 1.32 1.24 1.15 1.08 1.01 0.88 0.76 0.65 0.58 0.52 0.46 0.39 0.30 0.22 0.18 0.16 0.15 0.15 0.14 0.13 0.10 0.08
0.06 0.11 0.25 0.35 0.52 0.71 0.62 0.27 0.16 0.34 0.67 0.56 0.50 0.51 0.54 0.61 0.66 0.75 0.84 0.88 0.95 1.00 1.02 1.00 0.95 0.90 0.82 0.73 0.63 0.53 0.45 0.39 0.32 0.25 0.22 0.17 0.15 0.15 0.14 0.13 0.12 0.10 0.09 0.09
0.18 0.20 0.30 0.39 0.53 0.62 0.30 0.14 0.23 0.59 0.82 0.66 0.58 0.56 0.60 0.67 0.60 0.48 0.51 0.60 0.70 0.80 0.85 0.83 0.80 0.77 0.64 0.50 0.42 0.38 0.33 0.28 0.20 0.14 0.13 0.13 0.11 0.11 0.11 0.12 0.12 0.11 0.12 0.12
0.25 0.33 0.36 0.43 0.58 0.64 0.21 0.13 0.34 0.48 0.44 0.49 0.49 0.49 0.47 0.41 0.33 0.34 0.36 0.42 0.48 0.59 0.70 0.67 0.60 0.51 0.40 0.32 0.30 0.28 0.26 0.19 0.14 0.12 0.13 0.12 0.10 0.08 0.08 0.11 0.12 0.11 0.13 0.13
0.20 0.21 0.27 0.38 0.48 0.37 0.14 0.14 0.20 0.22 0.30 0.31 0.31 0.32 0.26 0.22 0.23 0.25 0.29 0.34 0.38 0.42 0.48 0.49 0.43 0.36 0.31 0.27 0.26 0.23 0.18 0.15 0.14 0.15 0.15 0.12 0.09 0.09 0.09 0.10 0.11 0.11 0.12 0.11
0.18 0.08 0.07 0.15 0.24 0.17 0.12 0.10 0.12 0.14 0.19 0.20 0.24 0.31 0.25 0.20 0.20 0.21 0.24 0.28 0.33 0.35 0.34 0.33 0.31 0.28 0.27 0.23 0.20 0.17 0.13 0.13 0.17 0.19 0.15 0.13 0.13 0.12 0.10 0.08 0.06 0.08 0.09 0.08
0.14 0.09 0.08 0.10 0.14 0.14 0.15 0.10 0.07 0.09 0.11 0.15 0.23 0.33 0.31 0.23 0.21 0.19 0.21 0.24 0.28 0.31 0.31 0.30 0.27 0.24 0.19 0.17 0.15 0.11 0.11 0.13 0.17 0.16 0.13 0.14 0.15 0.13 0.12 0.09 0.05 0.04 0.04 0.02
0.09 0.10 0.12 0.14 0.14 0.15 0.16 0.11 0.08 0.13 0.18 0.22 0.28 0.36 0.30 0.25 0.21 0.18 0.20 0.21 0.23 0.25 0.27 0.27 0.23 0.19 0.15 0.12 0.11 0.10 0.09 0.10 0.14 0.15 0.12 0.12 0.12 0.11 0.10 0.11 0.10 0.04 0.01 0.01

GEFSCGP_prec_meanprecacc_096.txt.gz
Total_Precipitation_Accumulation
0.00 0.00 0.00 0.00 0.00 0.00 0.00 0.00 0.00 0.01 0.00 0.00 0.01 0.03 0.04 0.05 0.04 0.06 0.08 0.12 0.18 0.27 0.38 0.58 0.70 0.93 1.14 1.27 1.41 1.45 1.52 1.65 1.80 2.01 2.03 2.14 2.36 2.68 2.96 3.15 3.20 3.20 3.12 3.07
0.00 0.00 0.00 0.00 0.00 0.00 0.00 0.00 0.00 0.01 0.01 0.01 0.03 0.06 0.08 0.10 0.11 0.14 0.20 0.21 0.21 0.31 0.43 0.67 0.87 1.20 1.43 1.57 1.67 1.77 1.86 2.14 2.54 2.91 3.31 3.62 3.75 3.76 3.95 4.04 4.03 3.88 3.73 3.54
0.00 0.00 0.00 0.00 0.00 0.00 0.00 0.00 0.01 0.01 0.03 0.03 0.05 0.14 0.18 0.18 0.20 0.24 0.27 0.28 0.33 0.45 0.58 0.74 0.95 1.27 1.49 1.63 1.81 1.93 2.19 2.80 3.54 3.86 4.15 4.70 4.96 4.69 4.45 4.30 4.19 4.11 4.09 4.00
0.00 0.00 0.00 0.00 0.00 0.00 0.00 0.00 0.00 0.01 0.02 0.06 0.06 0.18 0.27 0.27 0.29 0.27 0.31 0.35 0.41 0.52 0.68 0.82 0.97 1.25 1.55 1.85 1.92 2.09 2.58 3.31 3.94 4.38 4.88 5.38 5.57 5.54 5.40 4.93 4.42 3.97 3.64 3.44
0.00 0.00 0.00 0.00 0.00 0.00 0.00 0.00 0.00 0.01 0.01 0.04 0.06 0.18 0.39 0.46 0.48 0.46 0.45 0.44 0.43 0.49 0.68 0.83 0.96 1.17 1.34 1.60 1.98 2.23 2.77 3.43 4.09 4.76 5.37 5.72 5.91 5.85 5.44 4.67 3.91 3.48 3.19 2.89
0.00 0.00 0.00 0.01 0.00 0.00 0.00 0.00 0.00 0.01 0.02 0.06 0.06 0.15 0.46 0.73 0.80 0.73 0.63 0.64 0.60 0.49 0.56 0.70 0.88 0.98 1.25 1.50 1.80 2.21 2.52 3.12 3.78 4.34 4.83 4.96 5.08 5.00 4.57 4.10 3.60 3.22 2.78 2.30
0.01 0.01 0.01 0.00 0.00 0.00 0.00 0.01 0.03 0.05 0.06 0.10 0.08 0.20 0.56 0.88 0.88 0.72 0.64 0.66 0.64 0.50 0.50 0.72 0.96 0.91 1.13 1.44 1.79 2.16 2.55 2.93 3.42 3.90 4.33 4.54 4.63 4.40 3.92 3.50 3.09 2.63 2.19 1.80
0.02 0.02 0.02 0.01 0.00 0.01 0.01 0.01 0.06 0.09 0.10 0.14 0.18 0.39 0.67 0.83 0.79 0.66 0.61 0.57 0.53 0.51 0.53 0.67 0.85 0.92 1.14 1.35 1.65 2.00 2.32 2.64 2.83 3.02 3.30 3.49 3.61 3.44 3.10 2.60 2.15 1.85 1.60 1.37
0.07 0.06 0.02 0.01 0.01 0.01 0.01 0.02 0.02 0.03 0.05 0.16 0.39 0.57 0.75 0.77 0.67 0.64 0.60 0.55 0.56 0.55 0.56 0.63 0.76 0.88 1.10 1.39 1.64 1.90 2.04 2.19 2.35 2.44 2.46 2.49 2.57 2.44 2.20 1.93 1.63 1.35 1.10 0.91
0.07 0.12 0.05 0.01 0.01 0.01 0.01 0.02 0.03 0.04 0.10 0.20 0.45 0.73 0.93 1.05 1.01 0.85 0.72 0.65 0.58 0.58 0.59 0.62 0.69 0.77 0.87 1.00 1.27 1.49 1.60 1.68 1.73 1.77 1.79 1.80 1.79 1.69 1.58 1.42 1.22 0.99 0.81 0.66
0.08 0.13 0.08 0.02 0.02 0.02 0.02 0.03 0.05 0.07 0.08 0.18 0.43 0.90 1.16 1.32 1.28 1.08 0.87 0.76 0.71 0.67 0.63 0.61 0.64 0.65 0.70 0.75 0.90 1.10 1.23 1.25 1.32 1.38 1.34 1.27 1.30 1.24 1.15 1.10 1.02 0.87 0.74 0.61
0.10 0.14 0.13 0.06 0.04 0.03 0.03 0.04 0.05 0.11 0.12 0.17 0.41 1.14 1.60 1.65 1.46 1.15 0.97 0.88 0.86 0.78 0.68 0.62 0.58 0.53 0.57 0.62 0.67 0.77 0.86 0.86 0.89 0.92 0.92 0.95 0.96 0.96 0.90 0.83 0.73 0.60 0.51 0.45
0.07 0.14 0.28 0.26 0.19 0.09 0.06 0.06 0.06 0.07 0.11 0.19 0.43 1.32 1.96 1.87 1.61 1.34 1.12 1.07 1.08 0.98 0.81 0.66 0.53 0.45 0.48 0.55 0.59 0.62 0.64 0.65 0.65 0.63 0.66 0.71 0.70 0.68 0.64 0.58 0.53 0.48 0.41 0.35
0.06 0.15 0.36 0.61 0.45 0.24 0.15 0.09 0.08 0.10 0.18 0.28 0.47 0.87 1.18 1.28 1.32 1.35 1.45 1.53 1.40 1.13 0.93 0.73 0.62 0.53 0.53 0.59 0.58 0.58 0.58 0.54 0.52 0.52 0.56 0.60 0.58 0.55 0.51 0.44 0.36 0.32 0.29 0.27
0.11 0.22 0.23 0.25 0.23 0.24 0.22 0.18 0.15 0.16 0.20 0.40 0.66 0.89 1.13 1.22 1.26 1.33 1.50 1.46 1.30 1.14 1.00 0.85 0.76 0.72 0.66 0.60 0.55 0.56 0.61 0.59 0.55 0.52 0.51 0.53 0.49 0.45 0.43 0.40 0.34 0.28 0.23 0.20
0.11 0.19 0.21 0.24 0.21 0.25 0.26 0.26 0.25 0.28 0.34 0.52 0.77 1.10 1.39 1.39 1.34 1.37 1.46 1.43 1.28 1.09 0.97 0.89 0.85 0.85 0.76 0.66 0.57 0.54 0.59 0.61 0.57 0.52 0.49 0.46 0.44 0.41 0.37 0.33 0.30 0.26 0.20 0.14
0.14 0.24 0.30 0.32 0.24 0.34 0.51 0.41 0.39 0.42 0.47 0.61 0.87 1.08 1.24 1.29 1.28 1.34 1.43 1.50 1.42 1.22 1.10 1.07 1.10 1.08 0.96 0.82 0.71 0.64 0.63 0.61 0.60 0.58 0.52 0.48 0.43 0.38 0.33 0.25 0.22 0.21 0.18 0.13
0.14 0.21 0.27 0.28 0.36 0.63 0.63 0.34 0.39 0.45 0.47 0.53 0.62 0.80 0.97 1.06 1.11 1.25 1.40 1.50 1.47 1.40 1.36 1.36 1.33 1.21 1.08 0.97 0.86 0.74 0.67 0.63 0.64 0.62 0.54 0.43 0.33 0.26 0.22 0.21 0.20 0.16 0.14 0.13
0.08 0.17 0.26 0.33 0.50 0.70 0.59 0.35 0.31 0.46 0.52 0.49 0.53 0.56 0.60 0.63 0.72 1.03 1.21 1.28 1.32 1.36 1.34 1.25 1.17 1.11 1.04 0.92 0.82 0.70 0.63 0.57 0.56 0.52 0.44 0.35 0.28 0.23 0.21 0.21 0.21 0.17 0.14 0.12
0.07 0.12 0.28 0.38 0.53 0.72 0.63 0.28 0.18 0.35 0.67 0.56 0.51 0.51 0.54 0.61 0.67 0.75 0.85 0.89 0.97 1.02 1.04 1.02 0.97 0.92 0.85 0.77 0.66 0.57 0.51 0.45 0.41 0.37 0.34 0.28 0.24 0.23 0.22 0.19 0.18 0.14 0.13 0.12
0.19 0.22 0.31 0.41 0.55 0.63 0.31 0.15 0.24 0.60 0.82 0.66 0.58 0.56 0.60 0.67 0.60 0.48 0.51 0.61 0.72 0.81 0.86 0.84 0.83 0.80 0.68 0.54 0.46 0.42 0.39 0.35 0.28 0.23 0.24 0.22 0.20 0.19 0.18 0.18 0.16 0.14 0.15 0.15
0.26 0.34 0.37 0.44 0.59 0.65 0.21 0.15 0.36 0.49 0.44 0.49 0.49 0.49 0.47 0.41 0.33 0.34 0.37 0.43 0.49 0.60 0.71 0.69 0.62 0.55 0.45 0.38 0.36 0.34 0.32 0.26 0.20 0.19 0.21 0.19 0.17 0.14 0.13 0.15 0.15 0.13 0.14 0.14
0.21 0.22 0.29 0.40 0.50 0.39 0.15 0.15 0.21 0.22 0.30 0.31 0.31 0.32 0.26 0.22 0.24 0.26 0.31 0.36 0.40 0.44 0.51 0.52 0.47 0.41 0.37 0.34 0.32 0.29 0.24 0.21 0.20 0.21 0.21 0.18 0.14 0.12 0.12 0.13 0.13 0.12 0.13 0.12
0.19 0.10 0.09 0.18 0.26 0.19 0.12 0.10 0.12 0.14 0.19 0.20 0.25 0.31 0.25 0.20 0.21 0.22 0.25 0.31 0.35 0.38 0.37 0.37 0.35 0.32 0.31 0.27 0.24 0.21 0.17 0.17 0.22 0.24 0.21 0.18 0.16 0.15 0.12 0.10 0.08 0.08 0.09 0.09
0.16 0.11 0.10 0.12 0.16 0.15 0.15 0.11 0.07 0.09 0.11 0.15 0.24 0.33 0.31 0.23 0.22 0.21 0.22 0.26 0.30 0.34 0.35 0.34 0.31 0.28 0.22 0.20 0.17 0.13 0.13 0.15 0.19 0.19 0.17 0.18 0.17 0.15 0.13 0.10 0.06 0.04 0.05 0.03
0.10 0.11 0.14 0.16 0.15 0.15 0.16 0.11 0.08 0.13 0.18 0.22 0.28 0.36 0.31 0.25 0.22 0.20 0.22 0.23 0.24 0.28 0.30 0.30 0.26 0.22 0.18 0.15 0.13 0.11 0.11 0.11 0.16 0.17 0.14 0.13 0.13 0.12 0.10 0.12 0.11 0.04 0.01 0.01

GEFSCGP_prec_meanprecacc_102.txt.gz
Total_Precipitation_Accumulation
0.00 0.00 0.00 0.00 0.00 0.00 0.00 0.00 0.00 0.01 0.00 0.00 0.01 0.03 0.04 0.05 0.05 0.06 0.08 0.13 0.19 0.28 0.38 0.59 0.70 0.94 1.15 1.29 1.44 1.49 1.58 1.71 1.86 2.06 2.07 2.19 2.41 2.74 3.04 3.26 3.33 3.31 3.24 3.20
0.00 0.00 0.00 0.00 0.00 0.00 0.00 0.00 0.00 0.01 0.01 0.01 0.03 0.06 0.08 0.10 0.11 0.14 0.21 0.21 0.21 0.32 0.44 0.68 0.88 1.21 1.44 1.58 1.69 1.80 1.89 2.19 2.59 2.95 3.35 3.66 3.80 3.82 4.03 4.14 4.13 4.00 3.86 3.69
0.00 0.00 0.00 0.00 0.00 0.00 0.00 0.00 0.01 0.01 0.03 0.03 0.05 0.14 0.18 0.18 0.21 0.24 0.27 0.28 0.34 0.45 0.59 0.74 0.96 1.28 1.50 1.64 1.83 1.96 2.22 2.83 3.59 3.90 4.19 4.74 4.99 4.73 4.51 4.40 4.32 4.24 4.22 4.14
0.00 0.00 0.00 0.00 0.00 0.00 0.00 0.00 0.00 0.01 0.02 0.06 0.06 0.18 0.27 0.27 0.30 0.28 0.31 0.35 0.42 0.53 0.68 0.82 0.98 1.26 1.56 1.86 1.93 2.10 2.59 3.33 3.97 4.41 4.92 5.41 5.60 5.57 5.44 5.00 4.52 4.08 3.75 3.57
0.00 0.00 0.00 0.00 0.00 0.00 0.00 0.00 0.00 0.01 0.01 0.04 0.06 0.18 0.39 0.46 0.48 0.46 0.45 0.44 0.44 0.49 0.68 0.83 0.97 1.18 1.35 1.61 1.98 2.24 2.78 3.45 4.11 4.78 5.40 5.76 5.95 5.88 5.48 4.72 3.97 3.55 3.27 2.99
0.00 0.00 0.00 0.01 0.00 0.00 0.00 0.00 0.00 0.01 0.02 0.06 0.06 0.15 0.46 0.73 0.80 0.73 0.63 0.65 0.60 0.49 0.56 0.71 0.89 0.99 1.25 1.51 1.80 2.22 2.53 3.15 3.81 4.37 4.86 5.00 5.12 5.04 4.62 4.16 3.65 3.27 2.85 2.38
0.01 0.01 0.01 0.00 0.00 0.00 0.00 0.01 0.03 0.05 0.06 0.10 0.08 0.20 0.56 0.88 0.88 0.72 0.64 0.66 0.65 0.51 0.51 0.73 0.97 0.92 1.14 1.45 1.79 2.17 2.56 2.95 3.44 3.93 4.37 4.59 4.67 4.45 3.98 3.56 3.16 2.70 2.27 1.88
0.02 0.02 0.02 0.01 0.01 0.01 0.01 0.01 0.06 0.09 0.10 0.14 0.18 0.39 0.67 0.83 0.79 0.66 0.61 0.57 0.53 0.51 0.54 0.68 0.86 0.93 1.14 1.36 1.65 2.00 2.33 2.65 2.85 3.04 3.34 3.54 3.65 3.49 3.15 2.66 2.22 1.93 1.68 1.45
0.07 0.06 0.02 0.01 0.01 0.01 0.01 0.02 0.02 0.03 0.05 0.16 0.39 0.57 0.75 0.77 0.67 0.64 0.60 0.55 0.56 0.56 0.57 0.64 0.77 0.88 1.11 1.40 1.65 1.91 2.05 2.20 2.36 2.46 2.50 2.54 2.62 2.49 2.26 2.00 1.72 1.44 1.18 0.99
0.07 0.12 0.05 0.01 0.01 0.01 0.01 0.02 0.03 0.04 0.10 0.21 0.45 0.74 0.94 1.05 1.01 0.85 0.72 0.65 0.59 0.59 0.60 0.62 0.69 0.77 0.88 1.02 1.29 1.50 1.62 1.69 1.75 1.79 1.82 1.84 1.83 1.74 1.64 1.49 1.30 1.08 0.91 0.74
0.08 0.13 0.08 0.02 0.02 0.02 0.02 0.03 0.05 0.07 0.08 0.18 0.43 0.91 1.16 1.32 1.28 1.08 0.87 0.76 0.71 0.68 0.64 0.62 0.65 0.65 0.71 0.76 0.92 1.11 1.25 1.28 1.35 1.41 1.37 1.30 1.35 1.29 1.21 1.17 1.09 0.95 0.82 0.68
0.10 0.15 0.13 0.06 0.04 0.03 0.03 0.04 0.06 0.12 0.13 0.17 0.42 1.15 1.60 1.65 1.46 1.15 0.97 0.88 0.86 0.79 0.69 0.63 0.59 0.54 0.57 0.63 0.69 0.79 0.89 0.89 0.93 0.96 0.96 0.99 1.02 1.04 0.99 0.90 0.81 0.67 0.58 0.52
0.07 0.15 0.29 0.26 0.20 0.09 0.06 0.06 0.06 0.07 0.12 0.20 0.44 1.34 1.96 1.87 1.61 1.34 1.12 1.07 1.08 0.98 0.82 0.67 0.54 0.46 0.48 0.56 0.60 0.64 0.68 0.69 0.70 0.68 0.70 0.76 0.79 0.81 0.76 0.66 0.62 0.57 0.48 0.43
0.06 0.16 0.37 0.62 0.46 0.25 0.15 0.09 0.08 0.11 0.20 0.29 0.48 0.88 1.18 1.28 1.33 1.35 1.46 1.53 1.40 1.13 0.93 0.74 0.63 0.54 0.54 0.60 0.59 0.60 0.60 0.58 0.58 0.58 0.61 0.67 0.66 0.66 0.64 0.54 0.45 0.41 0.37 0.35
0.12 0.23 0.24 0.25 0.23 0.24 0.22 0.18 0.15 0.16 0.21 0.41 0.67 0.90 1.14 1.22 1.27 1.33 1.51 1.47 1.30 1.14 1.00 0.86 0.76 0.73 0.66 0.61 0.57 0.59 0.64 0.63 0.62 0.62 0.59 0.60 0.56 0.54 0.53 0.48 0.42 0.36 0.31 0.28
0.12 0.20 0.21 0.25 0.21 0.25 0.26 0.26 0.25 0.28 0.35 0.53 0.78 1.11 1.39 1.40 1.34 1.37 1.47 1.43 1.28 1.10 0.97 0.89 0.85 0.86 0.77 0.68 0.61 0.57 0.63 0.66 0.66 0.64 0.60 0.59 0.55 0.51 0.46 0.40 0.37 0.33 0.26 0.20
0.15 0.25 0.32 0.34 0.24 0.35 0.52 0.42 0.40 0.43 0.47 0.63 0.89 1.10 1.24 1.30 1.29 1.34 1.43 1.50 1.42 1.23 1.11 1.08 1.10 1.09 0.98 0.85 0.74 0.70 0.70 0.70 0.70 0.72 0.67 0.64 0.56 0.48 0.42 0.32 0.27 0.27 0.24 0.19
0.15 0.23 0.29 0.30 0.38 0.65 0.64 0.35 0.40 0.45 0.47 0.53 0.63 0.81 0.98 1.06 1.12 1.25 1.41 1.51 1.48 1.41 1.37 1.37 1.34 1.22 1.10 0.99 0.91 0.81 0.74 0.75 0.78 0.74 0.70 0.61 0.49 0.37 0.31 0.28 0.25 0.21 0.19 0.18
0.08 0.18 0.28 0.36 0.53 0.71 0.59 0.35 0.31 0.47 0.54 0.49 0.54 0.57 0.60 0.63 0.72 1.03 1.22 1.30 1.34 1.37 1.35 1.26 1.19 1.13 1.06 0.96 0.87 0.76 0.69 0.66 0.67 0.62 0.56 0.49 0.42 0.35 0.31 0.29 0.27 0.23 0.18 0.15
0.07 0.13 0.30 0.41 0.55 0.73 0.64 0.28 0.18 0.37 0.71 0.57 0.51 0.51 0.54 0.61 0.67 0.76 0.85 0.90 0.98 1.03 1.05 1.03 0.99 0.94 0.87 0.79 0.71 0.63 0.56 0.51 0.49 0.45 0.43 0.37 0.35 0.33 0.32 0.27 0.23 0.20 0.17 0.15
0.21 0.24 0.34 0.44 0.56 0.65 0.32 0.15 0.26 0.64 0.87 0.67 0.58 0.56 0.61 0.68 0.60 0.48 0.52 0.62 0.74 0.83 0.87 0.86 0.84 0.82 0.70 0.56 0.50 0.49 0.46 0.42 0.33 0.27 0.31 0.30 0.28 0.28 0.28 0.25 0.22 0.20 0.19 0.18
0.29 0.37 0.39 0.46 0.62 0.68 0.23 0.16 0.39 0.53 0.47 0.50 0.50 0.49 0.47 0.41 0.33 0.34 0.38 0.45 0.50 0.62 0.73 0.71 0.65 0.57 0.48 0.42 0.42 0.42 0.40 0.32 0.24 0.23 0.27 0.26 0.23 0.20 0.21 0.22 0.22 0.19 0.19 0.18
0.24 0.25 0.32 0.44 0.55 0.41 0.15 0.16 0.22 0.23 0.30 0.31 0.31 0.32 0.27 0.23 0.24 0.27 0.32 0.37 0.42 0.46 0.54 0.54 0.49 0.44 0.42 0.39 0.39 0.37 0.31 0.26 0.24 0.25 0.26 0.23 0.18 0.17 0.18 0.19 0.18 0.17 0.17 0.15
0.21 0.11 0.11 0.22 0.30 0.20 0.13 0.11 0.12 0.15 0.19 0.20 0.25 0.32 0.25 0.21 0.22 0.23 0.27 0.32 0.38 0.41 0.40 0.41 0.38 0.36 0.37 0.33 0.30 0.28 0.23 0.22 0.26 0.28 0.25 0.21 0.20 0.19 0.16 0.14 0.11 0.12 0.12 0.11
0.17 0.12 0.12 0.15 0.18 0.16 0.16 0.11 0.07 0.09 0.11 0.15 0.24 0.34 0.31 0.24 0.23 0.22 0.24 0.28 0.33 0.38 0.39 0.38 0.35 0.32 0.28 0.25 0.23 0.18 0.18 0.19 0.23 0.22 0.20 0.20 0.20 0.17 0.16 0.12 0.08 0.07 0.06 0.04
0.11 0.13 0.16 0.19 0.16 0.16 0.17 0.11 0.08 0.13 0.18 0.22 0.28 0.37 0.31 0.26 0.23 0.21 0.23 0.25 0.28 0.33 0.35 0.34 0.29 0.26 0.23 0.20 0.18 0.15 0.14 0.14 0.19 0.19 0.17 0.15 0.15 0.14 0.12 0.13 0.12 0.05 0.02 0.01

GEFSCGP_prec_meanprecacc_108.txt.gz
Total_Precipitation_Accumulation
0.00 0.00 0.00 0.00 0.00 0.00 0.00 0.00 0.00 0.01 0.01 0.00 0.01 0.03 0.05 0.06 0.05 0.06 0.10 0.16 0.23 0.32 0.43 0.64 0.78 0.97 1.17 1.31 1.47 1.53 1.62 1.75 1.90 2.11 2.12 2.25 2.48 2.82 3.12 3.33 3.41 3.42 3.37 3.36
0.00 0.00 0.00 0.00 0.00 0.00 0.00 0.00 0.00 0.01 0.01 0.01 0.03 0.07 0.09 0.10 0.11 0.15 0.22 0.22 0.22 0.32 0.45 0.73 0.93 1.22 1.46 1.60 1.71 1.82 1.91 2.21 2.63 2.99 3.39 3.72 3.89 3.90 4.10 4.21 4.20 4.07 3.94 3.79
0.00 0.00 0.00 0.00 0.00 0.00 0.00 0.00 0.01 0.01 0.03 0.03 0.05 0.15 0.19 0.18 0.21 0.24 0.27 0.28 0.34 0.45 0.59 0.74 0.96 1.28 1.50 1.65 1.84 1.97 2.24 2.85 3.61 3.93 4.21 4.77 5.05 4.79 4.58 4.46 4.37 4.28 4.27 4.20
0.00 0.00 0.00 0.00 0.00 0.00 0.00 0.00 0.01 0.01 0.02 0.06 0.07 0.20 0.31 0.31 0.32 0.29 0.32 0.35 0.42 0.53 0.68 0.82 0.98 1.26 1.56 1.86 1.94 2.11 2.61 3.35 4.00 4.44 4.94 5.44 5.64 5.62 5.49 5.06 4.58 4.13 3.80 3.62
0.00 0.00 0.00 0.00 0.00 0.00 0.00 0.00 0.00 0.01 0.02 0.05 0.07 0.20 0.43 0.50 0.55 0.53 0.49 0.45 0.44 0.49 0.69 0.83 0.97 1.18 1.35 1.62 1.99 2.25 2.79 3.47 4.13 4.80 5.42 5.79 5.98 5.93 5.54 4.78 4.03 3.61 3.32 3.03
0.00 0.00 0.00 0.01 0.00 0.00 0.00 0.00 0.00 0.01 0.03 0.06 0.07 0.17 0.50 0.79 0.88 0.88 0.74 0.67 0.60 0.50 0.56 0.71 0.89 0.99 1.26 1.52 1.81 2.23 2.54 3.16 3.83 4.39 4.89 5.04 5.17 5.09 4.67 4.21 3.70 3.33 2.92 2.44
0.01 0.01 0.01 0.00 0.00 0.00 0.00 0.01 0.05 0.09 0.11 0.12 0.10 0.21 0.59 0.91 0.91 0.82 0.74 0.68 0.65 0.51 0.51 0.73 0.97 0.92 1.14 1.46 1.80 2.18 2.57 2.96 3.46 3.95 4.40 4.62 4.72 4.50 4.04 3.62 3.22 2.78 2.35 1.95
0.02 0.02 0.02 0.01 0.01 0.01 0.01 0.02 0.09 0.15 0.18 0.22 0.24 0.42 0.71 0.84 0.80 0.68 0.62 0.57 0.53 0.51 0.54 0.68 0.86 0.93 1.15 1.37 1.66 2.01 2.35 2.67 2.87 3.06 3.37 3.58 3.72 3.55 3.21 2.73 2.29 2.00 1.75 1.51
0.08 0.08 0.03 0.01 0.01 0.01 0.01 0.02 0.03 0.06 0.08 0.20 0.45 0.63 0.82 0.80 0.68 0.65 0.61 0.55 0.56 0.56 0.57 0.64 0.77 0.89 1.12 1.40 1.66 1.92 2.06 2.21 2.38 2.48 2.53 2.58 2.68 2.56 2.32 2.04 1.76 1.49 1.24 1.05
0.09 0.13 0.05 0.02 0.01 0.01 0.01 0.02 0.03 0.05 0.12 0.25 0.51 0.83 1.05 1.13 1.05 0.87 0.73 0.66 0.60 0.62 0.61 0.63 0.70 0.77 0.88 1.02 1.29 1.51 1.63 1.71 1.77 1.82 1.86 1.87 1.88 1.79 1.69 1.54 1.34 1.12 0.95 0.81
0.11 0.15 0.09 0.02 0.02 0.03 0.02 0.03 0.05 0.07 0.08 0.21 0.50 1.02 1.27 1.44 1.41 1.14 0.88 0.77 0.72 0.71 0.65 0.62 0.65 0.65 0.71 0.76 0.92 1.12 1.27 1.30 1.37 1.44 1.40 1.34 1.39 1.34 1.26 1.21 1.13 0.98 0.86 0.75
0.11 0.17 0.15 0.07 0.05 0.03 0.03 0.04 0.06 0.14 0.15 0.18 0.48 1.25 1.64 1.74 1.56 1.20 0.99 0.89 0.87 0.79 0.69 0.63 0.59 0.54 0.58 0.63 0.69 0.79 0.90 0.91 0.95 0.99 0.99 1.04 1.07 1.07 1.02 0.93 0.84 0.70 0.61 0.57
0.08 0.17 0.33 0.32 0.24 0.11 0.07 0.07 0.06 0.08 0.14 0.23 0.51 1.44 2.01 1.92 1.68 1.36 1.13 1.07 1.09 0.99 0.82 0.67 0.54 0.46 0.49 0.56 0.61 0.65 0.69 0.70 0.71 0.70 0.74 0.81 0.84 0.85 0.80 0.70 0.66 0.60 0.52 0.49
0.07 0.17 0.41 0.74 0.56 0.30 0.17 0.10 0.09 0.12 0.23 0.35 0.54 0.97 1.27 1.34 1.38 1.39 1.48 1.54 1.40 1.13 0.94 0.74 0.63 0.54 0.55 0.60 0.60 0.61 0.61 0.59 0.60 0.61 0.65 0.71 0.71 0.70 0.68 0.59 0.50 0.46 0.42 0.42
0.12 0.24 0.24 0.26 0.25 0.26 0.24 0.18 0.15 0.17 0.22 0.44 0.72 0.99 1.28 1.31 1.32 1.37 1.53 1.47 1.31 1.15 1.00 0.86 0.77 0.73 0.67 0.62 0.58 0.60 0.66 0.65 0.64 0.66 0.65 0.66 0.61 0.59 0.57 0.54 0.48 0.42 0.37 0.35
0.13 0.21 0.22 0.26 0.22 0.26 0.27 0.26 0.25 0.28 0.35 0.54 0.81 1.19 1.46 1.45 1.37 1.39 1.47 1.44 1.29 1.11 0.97 0.90 0.86 0.87 0.77 0.69 0.62 0.58 0.65 0.69 0.69 0.69 0.66 0.64 0.61 0.58 0.53 0.47 0.44 0.38 0.32 0.26
0.16 0.27 0.36 0.37 0.25 0.37 0.56 0.44 0.40 0.43 0.48 0.64 0.95 1.18 1.29 1.32 1.30 1.36 1.44 1.51 1.43 1.23 1.11 1.09 1.12 1.10 0.99 0.86 0.76 0.72 0.73 0.74 0.74 0.77 0.73 0.71 0.64 0.57 0.52 0.40 0.35 0.33 0.30 0.24
0.17 0.26 0.34 0.35 0.44 0.72 0.69 0.36 0.40 0.46 0.49 0.55 0.67 0.84 1.00 1.08 1.12 1.26 1.42 1.52 1.49 1.42 1.38 1.39 1.35 1.23 1.11 1.00 0.92 0.84 0.77 0.80 0.84 0.82 0.77 0.68 0.56 0.47 0.42 0.39 0.33 0.28 0.25 0.23
0.09 0.22 0.34 0.44 0.64 0.81 0.66 0.38 0.33 0.50 0.60 0.52 0.57 0.59 0.62 0.64 0.73 1.05 1.23 1.31 1.35 1.39 1.36 1.27 1.19 1.14 1.08 0.98 0.90 0.79 0.72 0.70 0.73 0.69 0.63 0.57 0.50 0.45 0.42 0.40 0.37 0.32 0.26 0.21
0.08 0.16 0.37 0.48 0.67 0.89 0.78 0.34 0.19 0.40 0.82 0.63 0.56 0.55 0.57 0.63 0.71 0.79 0.86 0.91 0.99 1.04 1.06 1.04 1.00 0.96 0.91 0.83 0.74 0.66 0.61 0.57 0.55 0.53 0.51 0.45 0.42 0.42 0.42 0.36 0.33 0.29 0.24 0.20
0.28 0.31 0.41 0.51 0.67 0.79 0.39 0.17 0.27 0.73 0.99 0.72 0.61 0.58 0.62 0.71 0.64 0.49 0.52 0.63 0.75 0.84 0.88 0.87 0.86 0.86 0.74 0.60 0.54 0.54 0.51 0.48 0.39 0.35 0.39 0.39 0.38 0.37 0.36 0.33 0.31 0.30 0.26 0.24
0.37 0.47 0.48 0.55 0.74 0.82 0.28 0.18 0.44 0.59 0.51 0.52 0.52 0.51 0.49 0.43 0.34 0.35 0.39 0.46 0.51 0.63 0.75 0.74 0.68 0.60 0.52 0.45 0.47 0.49 0.46 0.37 0.30 0.30 0.35 0.37 0.35 0.29 0.28 0.30 0.31 0.28 0.26 0.24
0.30 0.33 0.42 0.56 0.69 0.51 0.18 0.18 0.24 0.25 0.32 0.32 0.33 0.33 0.28 0.24 0.26 0.28 0.33 0.39 0.43 0.48 0.56 0.58 0.52 0.47 0.45 0.44 0.45 0.44 0.39 0.33 0.31 0.32 0.34 0.33 0.29 0.26 0.26 0.27 0.28 0.26 0.24 0.20
0.27 0.15 0.19 0.35 0.41 0.24 0.14 0.11 0.12 0.15 0.20 0.21 0.26 0.33 0.26 0.23 0.23 0.25 0.29 0.35 0.41 0.44 0.44 0.44 0.42 0.40 0.42 0.39 0.38 0.37 0.31 0.30 0.33 0.35 0.33 0.29 0.28 0.27 0.25 0.22 0.19 0.19 0.19 0.16
0.21 0.18 0.23 0.29 0.27 0.19 0.17 0.12 0.08 0.10 0.12 0.15 0.25 0.34 0.32 0.26 0.25 0.24 0.26 0.32 0.38 0.42 0.43 0.42 0.40 0.37 0.33 0.32 0.29 0.26 0.25 0.26 0.29 0.29 0.27 0.27 0.26 0.24 0.22 0.17 0.13 0.12 0.11 0.07
0.15 0.19 0.25 0.29 0.22 0.20 0.19 0.13 0.09 0.14 0.19 0.22 0.29 0.37 0.32 0.27 0.25 0.23 0.25 0.28 0.31 0.36 0.38 0.38 0.33 0.32 0.28 0.25 0.23 0.21 0.20 0.19 0.24 0.26 0.23 0.20 0.20 0.19 0.15 0.15 0.14 0.08 0.04 0.03

GEFSCGP_prec_meanprecacc_114.txt.gz
Total_Precipitation_Accumulation
0.00 0.00 0.00 0.00 0.00 0.00 0.00 0.00 0.00 0.01 0.01 0.00 0.01 0.04 0.07 0.09 0.08 0.14 0.19 0.23 0.33 0.48 0.67 0.83 1.01 1.13 1.33 1.51 1.73 1.71 1.73 1.85 2.01 2.22 2.21 2.33 2.57 2.94 3.22 3.40 3.49 3.50 3.44 3.44
0.00 0.00 0.00 0.00 0.00 0.00 0.00 0.00 0.00 0.01 0.01 0.01 0.03 0.09 0.12 0.14 0.15 0.20 0.29 0.31 0.32 0.40 0.59 0.87 1.05 1.30 1.51 1.67 1.80 1.91 1.97 2.27 2.68 3.04 3.44 3.78 3.97 3.99 4.20 4.28 4.27 4.13 4.00 3.85
0.00 0.00 0.00 0.00 0.00 0.00 0.00 0.00 0.01 0.01 0.03 0.04 0.07 0.19 0.24 0.24 0.26 0.29 0.32 0.35 0.40 0.50 0.64 0.80 1.00 1.31 1.53 1.68 1.87 2.01 2.27 2.89 3.66 3.98 4.27 4.84 5.12 4.88 4.65 4.51 4.42 4.33 4.32 4.25
0.00 0.00 0.00 0.00 0.00 0.00 0.00 0.01 0.01 0.02 0.03 0.07 0.09 0.24 0.39 0.41 0.41 0.35 0.38 0.44 0.50 0.58 0.71 0.85 1.00 1.28 1.58 1.88 1.96 2.13 2.63 3.38 4.03 4.47 4.99 5.49 5.69 5.68 5.56 5.10 4.63 4.19 3.86 3.68
0.00 0.00 0.00 0.01 0.01 0.00 0.00 0.00 0.01 0.02 0.04 0.07 0.09 0.23 0.52 0.60 0.63 0.60 0.58 0.56 0.51 0.54 0.71 0.85 0.98 1.19 1.36 1.63 2.00 2.27 2.81 3.49 4.15 4.83 5.45 5.83 6.03 5.97 5.58 4.82 4.07 3.64 3.36 3.07
0.00 0.00 0.01 0.01 0.01 0.00 0.00 0.01 0.01 0.02 0.04 0.08 0.08 0.19 0.58 0.87 0.96 0.95 0.83 0.77 0.65 0.52 0.58 0.71 0.89 0.99 1.26 1.52 1.82 2.24 2.55 3.17 3.83 4.40 4.90 5.06 5.20 5.13 4.71 4.25 3.74 3.37 2.96 2.47
0.01 0.01 0.01 0.01 0.01 0.00 0.00 0.01 0.05 0.11 0.14 0.15 0.12 0.24 0.63 0.96 0.95 0.87 0.82 0.77 0.69 0.53 0.52 0.73 0.97 0.92 1.15 1.46 1.80 2.18 2.58 2.97 3.47 3.96 4.41 4.64 4.75 4.55 4.08 3.67 3.27 2.83 2.39 1.99
0.03 0.02 0.02 0.01 0.01 0.01 0.01 0.02 0.10 0.17 0.22 0.25 0.27 0.48 0.84 0.95 0.87 0.75 0.69 0.63 0.59 0.55 0.56 0.68 0.86 0.93 1.15 1.37 1.66 2.02 2.35 2.68 2.88 3.07 3.38 3.60 3.74 3.58 3.25 2.77 2.33 2.04 1.79 1.54
0.10 0.09 0.03 0.02 0.01 0.01 0.01 0.02 0.04 0.07 0.10 0.24 0.52 0.76 1.06 1.02 0.86 0.80 0.73 0.65 0.64 0.62 0.61 0.66 0.78 0.89 1.12 1.41 1.66 1.92 2.06 2.22 2.38 2.49 2.54 2.59 2.69 2.58 2.34 2.07 1.79 1.52 1.27 1.08
0.11 0.15 0.06 0.02 0.01 0.01 0.01 0.03 0.04 0.07 0.16 0.33 0.59 0.93 1.19 1.34 1.23 1.05 0.84 0.75 0.67 0.67 0.65 0.65 0.72 0.79 0.89 1.02 1.29 1.51 1.63 1.72 1.78 1.83 1.87 1.88 1.89 1.81 1.71 1.56 1.36 1.14 0.99 0.84
0.13 0.17 0.09 0.03 0.03 0.04 0.03 0.04 0.06 0.10 0.12 0.28 0.60 1.12 1.36 1.61 1.63 1.34 1.01 0.86 0.81 0.78 0.70 0.65 0.67 0.67 0.71 0.76 0.92 1.12 1.27 1.30 1.38 1.44 1.41 1.35 1.41 1.36 1.28 1.23 1.14 0.99 0.89 0.78
0.14 0.18 0.16 0.08 0.06 0.05 0.05 0.06 0.08 0.16 0.18 0.21 0.52 1.32 1.71 1.83 1.70 1.38 1.15 1.01 0.96 0.86 0.73 0.65 0.60 0.55 0.58 0.64 0.69 0.79 0.90 0.91 0.95 0.99 1.00 1.05 1.09 1.10 1.05 0.95 0.85 0.71 0.62 0.58
0.09 0.19 0.36 0.35 0.27 0.13 0.08 0.08 0.09 0.10 0.16 0.25 0.56 1.52 2.10 2.04 1.82 1.51 1.25 1.16 1.14 1.02 0.83 0.68 0.55 0.47 0.49 0.57 0.61 0.65 0.69 0.71 0.72 0.71 0.74 0.82 0.85 0.87 0.83 0.72 0.68 0.61 0.52 0.49
0.07 0.18 0.44 0.80 0.61 0.33 0.18 0.12 0.10 0.13 0.26 0.37 0.59 1.04 1.36 1.48 1.53 1.52 1.57 1.63 1.45 1.16 0.95 0.75 0.64 0.56 0.56 0.61 0.60 0.61 0.62 0.60 0.61 0.62 0.67 0.72 0.72 0.72 0.69 0.60 0.51 0.48 0.44 0.44
0.13 0.24 0.26 0.30 0.31 0.29 0.26 0.20 0.17 0.18 0.24 0.47 0.76 1.05 1.36 1.43 1.44 1.46 1.61 1.54 1.33 1.16 1.01 0.87 0.78 0.74 0.67 0.62 0.58 0.60 0.66 0.66 0.66 0.68 0.67 0.67 0.63 0.61 0.60 0.56 0.50 0.44 0.39 0.36
0.14 0.22 0.23 0.28 0.25 0.29 0.29 0.28 0.27 0.31 0.37 0.57 0.86 1.26 1.53 1.51 1.44 1.46 1.52 1.46 1.31 1.12 0.98 0.90 0.87 0.87 0.78 0.69 0.62 0.59 0.66 0.69 0.71 0.71 0.68 0.67 0.64 0.60 0.56 0.51 0.48 0.41 0.35 0.29
0.18 0.29 0.37 0.40 0.28 0.41 0.60 0.48 0.44 0.48 0.52 0.69 1.00 1.24 1.36 1.39 1.36 1.40 1.47 1.53 1.44 1.24 1.12 1.09 1.12 1.11 0.99 0.86 0.76 0.73 0.74 0.75 0.76 0.79 0.76 0.74 0.66 0.60 0.55 0.45 0.39 0.37 0.34 0.27
0.19 0.28 0.36 0.38 0.47 0.78 0.75 0.43 0.46 0.52 0.56 0.62 0.73 0.90 1.06 1.13 1.16 1.28 1.43 1.53 1.50 1.42 1.39 1.39 1.35 1.23 1.11 1.01 0.93 0.85 0.78 0.82 0.86 0.83 0.78 0.70 0.59 0.51 0.47 0.43 0.37 0.32 0.28 0.26
0.10 0.24 0.37 0.47 0.69 0.88 0.74 0.44 0.37 0.57 0.68 0.57 0.62 0.64 0.66 0.67 0.75 1.07 1.25 1.32 1.36 1.39 1.37 1.27 1.19 1.14 1.08 0.99 0.91 0.80 0.74 0.72 0.74 0.70 0.65 0.59 0.54 0.50 0.47 0.44 0.41 0.35 0.30 0.25
0.09 0.18 0.40 0.52 0.73 0.99 0.88 0.40 0.23 0.45 0.90 0.68 0.60 0.58 0.59 0.66 0.74 0.82 0.88 0.91 0.99 1.04 1.06 1.04 1.00 0.96 0.91 0.84 0.75 0.67 0.62 0.58 0.57 0.55 0.53 0.47 0.45 0.46 0.46 0.40 0.37 0.33 0.29 0.25
0.32 0.35 0.45 0.55 0.73 0.90 0.46 0.22 0.32 0.79 1.07 0.77 0.64 0.60 0.64 0.73 0.67 0.52 0.54 0.64 0.75 0.84 0.89 0.87 0.87 0.86 0.74 0.60 0.55 0.54 0.52 0.48 0.41 0.37 0.41 0.42 0.41 0.41 0.40 0.36 0.35 0.34 0.30 0.28
0.40 0.50 0.52 0.59 0.80 0.91 0.34 0.23 0.50 0.64 0.54 0.55 0.54 0.53 0.51 0.45 0.37 0.38 0.42 0.47 0.52 0.63 0.76 0.75 0.68 0.61 0.52 0.47 0.48 0.49 0.47 0.38 0.31 0.32 0.38 0.41 0.40 0.34 0.32 0.33 0.35 0.33 0.30 0.27
0.34 0.37 0.47 0.62 0.76 0.57 0.23 0.22 0.28 0.27 0.34 0.35 0.35 0.35 0.29 0.26 0.28 0.30 0.35 0.40 0.44 0.49 0.57 0.59 0.53 0.48 0.46 0.46 0.47 0.45 0.40 0.35 0.33 0.35 0.38 0.37 0.34 0.32 0.31 0.31 0.32 0.32 0.28 0.23
0.31 0.19 0.25 0.41 0.47 0.29 0.18 0.14 0.15 0.18 0.23 0.24 0.27 0.34 0.28 0.24 0.25 0.27 0.30 0.36 0.42 0.44 0.44 0.46 0.43 0.41 0.43 0.42 0.40 0.38 0.33 0.32 0.36 0.38 0.36 0.34 0.33 0.31 0.29 0.26 0.23 0.24 0.22 0.19
0.25 0.22 0.29 0.34 0.31 0.24 0.21 0.14 0.09 0.12 0.15 0.18 0.26 0.36 0.34 0.27 0.26 0.26 0.27 0.33 0.38 0.42 0.45 0.44 0.41 0.39 0.34 0.34 0.31 0.28 0.27 0.28 0.32 0.32 0.30 0.30 0.30 0.27 0.26 0.20 0.17 0.16 0.13 0.08
0.20 0.23 0.29 0.32 0.24 0.22 0.21 0.14 0.10 0.15 0.20 0.23 0.30 0.38 0.33 0.28 0.26 0.24 0.26 0.28 0.32 0.38 0.40 0.40 0.35 0.33 0.29 0.26 0.25 0.24 0.22 0.21 0.27 0.29 0.26 0.23 0.22 0.21 0.18 0.18 0.17 0.11 0.06 0.04

GEFSCGP_prec_meanprecacc_120.txt.gz
Total_Precipitation_Accumulation
0.00 0.00 0.00 0.00 0.00 0.00 0.00 0.00 0.00 0.01 0.01 0.00 0.01 0.05 0.08 0.11 0.11 0.16 0.21 0.25 0.34 0.49 0.71 0.90 1.07 1.17 1.36 1.56 1.80 1.77 1.82 1.99 2.16 2.38 2.38 2.54 2.85 3.22 3.43 3.56 3.62 3.61 3.53 3.50
0.00 0.00 0.00 0.00 0.00 0.00 0.00 0.00 0.01 0.01 0.01 0.01 0.04 0.10 0.14 0.16 0.17 0.22 0.31 0.33 0.34 0.42 0.64 0.95 1.12 1.33 1.53 1.70 1.90 2.01 2.07 2.38 2.82 3.21 3.63 4.01 4.24 4.25 4.40 4.42 4.36 4.22 4.07 3.91
0.00 0.00 0.00 0.00 0.00 0.00 0.00 0.00 0.01 0.02 0.03 0.05 0.08 0.21 0.27 0.27 0.29 0.32 0.36 0.37 0.42 0.51 0.67 0.86 1.08 1.36 1.56 1.71 1.92 2.06 2.33 2.96 3.75 4.12 4.44 4.99 5.27 5.05 4.82 4.62 4.49 4.39 4.37 4.31
0.00 0.00 0.00 0.00 0.00 0.00 0.00 0.01 0.01 0.02 0.03 0.08 0.10 0.26 0.42 0.45 0.47 0.41 0.44 0.49 0.54 0.61 0.73 0.91 1.12 1.35 1.63 1.92 2.00 2.17 2.68 3.43 4.08 4.55 5.07 5.58 5.79 5.79 5.64 5.19 4.71 4.26 3.91 3.72
0.00 0.00 0.00 0.01 0.01 0.00 0.01 0.00 0.01 0.02 0.04 0.07 0.09 0.24 0.54 0.64 0.68 0.66 0.64 0.61 0.57 0.58 0.76 0.89 1.03 1.23 1.41 1.67 2.03 2.29 2.83 3.52 4.19 4.87 5.50 5.89 6.09 6.05 5.66 4.89 4.13 3.69 3.40 3.11
0.00 0.00 0.01 0.01 0.01 0.00 0.00 0.01 0.01 0.02 0.04 0.08 0.08 0.20 0.60 0.89 0.98 0.98 0.87 0.82 0.71 0.58 0.63 0.75 0.93 1.02 1.28 1.54 1.83 2.25 2.57 3.19 3.86 4.43 4.94 5.10 5.26 5.20 4.77 4.30 3.79 3.41 2.99 2.50
0.01 0.01 0.01 0.01 0.01 0.01 0.01 0.02 0.06 0.11 0.14 0.15 0.12 0.24 0.64 0.97 0.97 0.89 0.85 0.82 0.77 0.61 0.59 0.79 1.01 0.95 1.16 1.46 1.81 2.19 2.59 2.98 3.48 3.98 4.43 4.67 4.78 4.59 4.12 3.70 3.30 2.86 2.42 2.02
0.03 0.03 0.02 0.01 0.01 0.02 0.01 0.02 0.10 0.18 0.22 0.26 0.27 0.49 0.84 0.96 0.89 0.77 0.73 0.68 0.67 0.64 0.63 0.74 0.90 0.96 1.17 1.38 1.67 2.02 2.36 2.68 2.88 3.07 3.39 3.60 3.74 3.59 3.27 2.80 2.36 2.08 1.83 1.58
0.10 0.10 0.04 0.02 0.01 0.01 0.02 0.03 0.04 0.07 0.10 0.25 0.52 0.76 1.07 1.04 0.87 0.82 0.76 0.69 0.69 0.68 0.65 0.70 0.82 0.92 1.14 1.42 1.67 1.92 2.07 2.22 2.38 2.49 2.54 2.59 2.69 2.59 2.35 2.09 1.81 1.55 1.30 1.10
0.11 0.15 0.06 0.02 0.02 0.02 0.02 0.03 0.04 0.08 0.17 0.33 0.60 0.93 1.20 1.35 1.24 1.06 0.86 0.78 0.71 0.71 0.68 0.69 0.75 0.82 0.91 1.04 1.31 1.52 1.64 1.72 1.78 1.83 1.87 1.89 1.89 1.82 1.72 1.57 1.38 1.16 1.00 0.85
0.13 0.17 0.10 0.03 0.03 0.04 0.03 0.04 0.07 0.10 0.13 0.29 0.60 1.12 1.36 1.61 1.64 1.36 1.04 0.91 0.87 0.84 0.75 0.70 0.70 0.69 0.73 0.77 0.93 1.13 1.27 1.31 1.38 1.44 1.41 1.36 1.41 1.37 1.29 1.24 1.15 1.00 0.89 0.78
0.14 0.18 0.17 0.09 0.07 0.06 0.05 0.06 0.09 0.17 0.18 0.22 0.53 1.32 1.72 1.83 1.71 1.39 1.19 1.06 1.01 0.90 0.77 0.68 0.62 0.56 0.59 0.65 0.70 0.80 0.90 0.91 0.95 0.99 1.00 1.05 1.09 1.11 1.05 0.96 0.86 0.72 0.63 0.59
0.10 0.20 0.36 0.35 0.27 0.14 0.09 0.09 0.10 0.11 0.16 0.26 0.56 1.52 2.11 2.04 1.83 1.53 1.28 1.20 1.18 1.06 0.87 0.71 0.57 0.49 0.51 0.58 0.62 0.65 0.69 0.71 0.72 0.71 0.75 0.82 0.86 0.88 0.83 0.74 0.70 0.63 0.53 0.50
0.08 0.19 0.45 0.81 0.62 0.34 0.19 0.12 0.11 0.15 0.27 0.37 0.59 1.06 1.37 1.49 1.54 1.53 1.59 1.65 1.49 1.21 0.99 0.78 0.66 0.57 0.56 0.62 0.61 0.61 0.62 0.60 0.61 0.63 0.67 0.73 0.73 0.74 0.72 0.63 0.54 0.50 0.45 0.45
0.13 0.25 0.27 0.31 0.32 0.30 0.26 0.20 0.17 0.19 0.25 0.48 0.77 1.06 1.37 1.44 1.46 1.49 1.63 1.56 1.36 1.19 1.04 0.89 0.79 0.75 0.68 0.62 0.58 0.60 0.67 0.66 0.66 0.69 0.68 0.68 0.64 0.63 0.62 0.59 0.52 0.46 0.41 0.38
0.15 0.23 0.24 0.29 0.26 0.30 0.29 0.28 0.27 0.31 0.38 0.58 0.87 1.27 1.54 1.52 1.46 1.49 1.56 1.50 1.34 1.14 1.00 0.91 0.88 0.88 0.79 0.70 0.62 0.59 0.66 0.70 0.72 0.73 0.70 0.68 0.65 0.62 0.57 0.53 0.50 0.45 0.38 0.31
0.18 0.29 0.38 0.41 0.28 0.41 0.60 0.48 0.45 0.48 0.52 0.70 1.01 1.25 1.37 1.40 1.38 1.43 1.51 1.57 1.47 1.26 1.14 1.11 1.13 1.12 0.99 0.86 0.76 0.73 0.74 0.76 0.77 0.80 0.77 0.75 0.68 0.61 0.56 0.47 0.41 0.40 0.38 0.31
0.19 0.28 0.37 0.38 0.48 0.79 0.76 0.44 0.47 0.53 0.57 0.63 0.74 0.91 1.06 1.14 1.17 1.30 1.46 1.55 1.53 1.45 1.41 1.40 1.37 1.24 1.12 1.01 0.93 0.85 0.79 0.83 0.88 0.84 0.79 0.72 0.61 0.53 0.49 0.46 0.40 0.35 0.32 0.30
0.11 0.24 0.37 0.47 0.70 0.90 0.75 0.46 0.40 0.59 0.70 0.58 0.63 0.65 0.67 0.69 0.77 1.10 1.28 1.35 1.39 1.42 1.39 1.29 1.21 1.15 1.09 0.99 0.92 0.81 0.75 0.74 0.76 0.72 0.67 0.60 0.55 0.52 0.49 0.48 0.45 0.40 0.34 0.29
0.10 0.18 0.40 0.52 0.74 1.01 0.90 0.42 0.24 0.48 0.94 0.71 0.63 0.61 0.62 0.68 0.76 0.84 0.90 0.94 1.02 1.07 1.08 1.05 1.01 0.97 0.91 0.84 0.75 0.68 0.63 0.60 0.58 0.56 0.54 0.48 0.46 0.48 0.48 0.43 0.41 0.37 0.34 0.30
0.33 0.35 0.45 0.56 0.74 0.92 0.48 0.24 0.34 0.82 1.11 0.80 0.67 0.63 0.67 0.75 0.68 0.54 0.56 0.66 0.77 0.86 0.90 0.88 0.87 0.86 0.74 0.61 0.56 0.56 0.53 0.49 0.42 0.38 0.43 0.44 0.43 0.43 0.43 0.39 0.38 0.37 0.35 0.34
0.41 0.51 0.53 0.60 0.81 0.95 0.36 0.26 0.52 0.66 0.56 0.57 0.57 0.55 0.53 0.46 0.37 0.39 0.43 0.49 0.54 0.65 0.76 0.75 0.69 0.62 0.53 0.47 0.49 0.51 0.48 0.40 0.33 0.34 0.40 0.44 0.42 0.37 0.36 0.37 0.38 0.36 0.34 0.32
0.34 0.38 0.47 0.62 0.78 0.60 0.25 0.24 0.29 0.28 0.35 0.37 0.36 0.36 0.30 0.27 0.29 0.31 0.36 0.41 0.45 0.50 0.58 0.59 0.54 0.49 0.47 0.47 0.49 0.46 0.42 0.36 0.35 0.37 0.41 0.40 0.37 0.35 0.34 0.35 0.36 0.35 0.32 0.27
0.32 0.20 0.25 0.42 0.48 0.31 0.20 0.15 0.16 0.18 0.24 0.25 0.29 0.36 0.29 0.25 0.26 0.28 0.31 0.36 0.43 0.45 0.45 0.46 0.44 0.42 0.45 0.45 0.42 0.40 0.34 0.34 0.38 0.41 0.40 0.38 0.37 0.36 0.32 0.29 0.28 0.29 0.27 0.23
0.26 0.23 0.30 0.36 0.32 0.25 0.21 0.14 0.10 0.12 0.15 0.19 0.27 0.37 0.35 0.28 0.28 0.28 0.29 0.34 0.39 0.43 0.45 0.45 0.43 0.39 0.36 0.37 0.33 0.30 0.29 0.31 0.35 0.35 0.34 0.34 0.34 0.32 0.30 0.24 0.20 0.20 0.17 0.11
0.20 0.24 0.31 0.33 0.25 0.23 0.21 0.14 0.10 0.15 0.21 0.24 0.30 0.39 0.33 0.29 0.27 0.26 0.28 0.30 0.34 0.39 0.41 0.42 0.37 0.34 0.30 0.27 0.26 0.26 0.24 0.23 0.29 0.32 0.29 0.26 0.26 0.25 0.21 0.20 0.19 0.13 0.08 0.05

GEFSCGP_prec_meanprecacc_126.txt.gz
Total_Precipitation_Accumulation
0.00 0.00 0.00 0.00 0.00 0.00 0.00 0.00 0.00 0.01 0.01 0.00 0.02 0.05 0.08 0.12 0.11 0.16 0.22 0.26 0.35 0.50 0.73 0.92 1.10 1.20 1.39 1.58 1.82 1.79 1.85 2.03 2.21 2.46 2.46 2.62 2.97 3.33 3.54 3.67 3.72 3.70 3.61 3.57
0.00 0.00 0.00 0.00 0.00 0.00 0.00 0.00 0.01 0.01 0.01 0.01 0.04 0.11 0.15 0.17 0.18 0.22 0.32 0.34 0.34 0.43 0.66 0.97 1.14 1.35 1.56 1.73 1.93 2.04 2.09 2.41 2.88 3.28 3.70 4.11 4.39 4.40 4.53 4.54 4.48 4.33 4.18 4.00
0.00 0.00 0.00 0.00 0.00 0.00 0.00 0.00 0.01 0.02 0.03 0.05 0.08 0.22 0.28 0.27 0.31 0.34 0.37 0.39 0.43 0.53 0.69 0.89 1.11 1.38 1.59 1.74 1.95 2.09 2.36 3.01 3.80 4.18 4.50 5.06 5.38 5.20 4.98 4.72 4.59 4.51 4.48 4.42
0.00 0.00 0.00 0.00 0.00 0.00 0.00 0.01 0.01 0.02 0.03 0.08 0.10 0.27 0.43 0.46 0.48 0.42 0.45 0.51 0.57 0.64 0.77 0.94 1.15 1.38 1.68 1.96 2.03 2.20 2.70 3.46 4.12 4.59 5.13 5.65 5.88 5.89 5.75 5.26 4.78 4.33 3.99 3.80
0.00 0.00 0.01 0.01 0.01 0.00 0.01 0.00 0.01 0.02 0.04 0.07 0.09 0.25 0.55 0.65 0.69 0.67 0.66 0.64 0.61 0.62 0.80 0.94 1.07 1.26 1.45 1.72 2.09 2.34 2.86 3.55 4.23 4.91 5.55 5.94 6.16 6.12 5.72 4.93 4.19 3.74 3.45 3.17
0.00 0.00 0.01 0.01 0.01 0.00 0.01 0.01 0.01 0.02 0.04 0.08 0.09 0.21 0.61 0.90 0.99 1.00 0.89 0.84 0.73 0.62 0.68 0.80 0.96 1.04 1.32 1.59 1.88 2.29 2.59 3.21 3.89 4.47 4.97 5.14 5.30 5.25 4.82 4.34 3.83 3.45 3.02 2.53
0.01 0.01 0.01 0.01 0.01 0.01 0.01 0.02 0.06 0.12 0.15 0.16 0.12 0.25 0.65 0.97 0.98 0.90 0.86 0.84 0.80 0.66 0.66 0.85 1.06 0.99 1.20 1.51 1.84 2.21 2.60 2.99 3.50 4.00 4.45 4.69 4.81 4.62 4.16 3.74 3.34 2.89 2.45 2.05
0.03 0.03 0.02 0.01 0.01 0.02 0.01 0.02 0.10 0.18 0.23 0.26 0.27 0.49 0.85 0.96 0.89 0.78 0.74 0.70 0.71 0.70 0.69 0.79 0.95 0.99 1.21 1.42 1.70 2.05 2.37 2.69 2.89 3.08 3.40 3.61 3.76 3.62 3.29 2.82 2.38 2.11 1.86 1.60
0.10 0.10 0.04 0.02 0.01 0.01 0.02 0.03 0.05 0.07 0.11 0.26 0.53 0.77 1.07 1.04 0.88 0.83 0.76 0.71 0.73 0.73 0.70 0.75 0.86 0.96 1.16 1.44 1.68 1.94 2.07 2.23 2.39 2.49 2.55 2.60 2.70 2.60 2.36 2.09 1.83 1.57 1.32 1.13
0.11 0.15 0.07 0.02 0.02 0.02 0.02 0.03 0.04 0.08 0.17 0.34 0.60 0.94 1.21 1.36 1.24 1.07 0.88 0.80 0.73 0.75 0.73 0.74 0.80 0.85 0.94 1.06 1.33 1.54 1.66 1.73 1.79 1.83 1.88 1.89 1.90 1.82 1.72 1.57 1.38 1.17 1.01 0.86
0.13 0.17 0.10 0.03 0.03 0.04 0.03 0.04 0.07 0.10 0.13 0.29 0.61 1.13 1.37 1.61 1.64 1.37 1.06 0.93 0.89 0.88 0.81 0.76 0.76 0.72 0.76 0.80 0.95 1.15 1.29 1.32 1.39 1.45 1.42 1.37 1.42 1.37 1.30 1.24 1.16 1.01 0.90 0.79
0.15 0.19 0.17 0.09 0.07 0.06 0.05 0.07 0.09 0.18 0.19 0.22 0.54 1.34 1.72 1.84 1.71 1.41 1.21 1.08 1.02 0.93 0.81 0.72 0.66 0.59 0.62 0.67 0.71 0.81 0.91 0.92 0.96 1.00 1.01 1.06 1.10 1.11 1.06 0.97 0.87 0.73 0.64 0.60
0.11 0.22 0.38 0.36 0.28 0.14 0.09 0.09 0.10 0.11 0.17 0.26 0.58 1.54 2.11 2.05 1.84 1.54 1.30 1.23 1.21 1.09 0.90 0.73 0.59 0.50 0.52 0.59 0.62 0.66 0.69 0.72 0.73 0.72 0.75 0.83 0.87 0.89 0.84 0.75 0.71 0.64 0.54 0.50
0.08 0.21 0.46 0.83 0.63 0.34 0.20 0.13 0.11 0.15 0.28 0.39 0.61 1.07 1.38 1.49 1.55 1.54 1.61 1.67 1.51 1.23 1.02 0.81 0.68 0.58 0.57 0.63 0.62 0.62 0.62 0.61 0.62 0.64 0.68 0.74 0.74 0.75 0.72 0.64 0.55 0.51 0.46 0.46
0.14 0.26 0.27 0.32 0.33 0.30 0.27 0.21 0.18 0.21 0.26 0.50 0.78 1.08 1.38 1.44 1.47 1.50 1.64 1.57 1.38 1.21 1.07 0.92 0.82 0.77 0.69 0.63 0.59 0.61 0.67 0.67 0.67 0.70 0.69 0.69 0.65 0.64 0.63 0.60 0.54 0.47 0.42 0.40
0.15 0.25 0.25 0.30 0.27 0.31 0.30 0.29 0.28 0.32 0.39 0.59 0.89 1.29 1.55 1.53 1.47 1.50 1.57 1.51 1.36 1.17 1.03 0.95 0.90 0.90 0.80 0.71 0.63 0.59 0.67 0.71 0.73 0.74 0.70 0.69 0.66 0.63 0.58 0.55 0.52 0.47 0.40 0.34
0.19 0.31 0.40 0.42 0.30 0.44 0.63 0.50 0.46 0.50 0.53 0.71 1.03 1.27 1.38 1.41 1.38 1.44 1.52 1.58 1.49 1.28 1.16 1.14 1.16 1.14 1.01 0.87 0.77 0.74 0.75 0.77 0.78 0.81 0.78 0.76 0.69 0.62 0.57 0.49 0.43 0.43 0.42 0.34
0.20 0.30 0.39 0.40 0.51 0.84 0.80 0.45 0.48 0.55 0.58 0.64 0.75 0.92 1.07 1.15 1.18 1.31 1.47 1.57 1.55 1.47 1.43 1.43 1.39 1.26 1.13 1.02 0.94 0.86 0.80 0.84 0.89 0.85 0.80 0.72 0.62 0.54 0.50 0.49 0.43 0.38 0.37 0.35
0.11 0.25 0.39 0.50 0.73 0.93 0.78 0.47 0.42 0.63 0.74 0.61 0.65 0.67 0.69 0.70 0.79 1.12 1.30 1.37 1.41 1.44 1.41 1.31 1.23 1.16 1.10 1.01 0.93 0.82 0.76 0.75 0.77 0.72 0.68 0.61 0.57 0.54 0.51 0.50 0.49 0.43 0.37 0.34
0.10 0.19 0.42 0.54 0.77 1.04 0.93 0.43 0.26 0.51 1.00 0.75 0.66 0.64 0.65 0.73 0.82 0.89 0.93 0.96 1.04 1.09 1.10 1.07 1.03 0.98 0.93 0.85 0.76 0.69 0.65 0.62 0.60 0.57 0.55 0.49 0.48 0.49 0.51 0.46 0.45 0.41 0.37 0.33
0.33 0.36 0.47 0.58 0.76 0.95 0.50 0.27 0.38 0.87 1.16 0.82 0.69 0.65 0.70 0.79 0.73 0.58 0.59 0.68 0.79 0.89 0.93 0.91 0.89 0.88 0.76 0.62 0.57 0.57 0.55 0.51 0.43 0.39 0.44 0.45 0.45 0.45 0.45 0.43 0.43 0.41 0.38 0.36
0.42 0.52 0.54 0.62 0.84 0.98 0.38 0.29 0.58 0.71 0.58 0.58 0.58 0.57 0.54 0.48 0.39 0.41 0.45 0.51 0.56 0.67 0.78 0.77 0.70 0.63 0.54 0.49 0.51 0.53 0.50 0.41 0.34 0.36 0.43 0.46 0.45 0.39 0.39 0.42 0.43 0.39 0.36 0.35
0.35 0.39 0.49 0.64 0.80 0.62 0.27 0.27 0.33 0.31 0.36 0.37 0.37 0.37 0.31 0.28 0.29 0.32 0.37 0.43 0.47 0.52 0.59 0.60 0.55 0.50 0.49 0.49 0.51 0.49 0.44 0.38 0.37 0.39 0.44 0.44 0.40 0.38 0.38 0.39 0.40 0.38 0.35 0.30
0.33 0.21 0.27 0.44 0.49 0.31 0.20 0.16 0.17 0.18 0.24 0.25 0.29 0.36 0.30 0.27 0.27 0.28 0.31 0.38 0.44 0.47 0.46 0.47 0.45 0.44 0.47 0.46 0.44 0.42 0.36 0.37 0.41 0.44 0.42 0.41 0.41 0.40 0.36 0.32 0.30 0.32 0.31 0.27
0.28 0.24 0.32 0.38 0.33 0.25 0.22 0.15 0.10 0.12 0.15 0.19 0.28 0.37 0.36 0.29 0.30 0.30 0.31 0.35 0.40 0.44 0.46 0.47 0.44 0.41 0.38 0.38 0.35 0.32 0.31 0.33 0.38 0.39 0.37 0.37 0.38 0.37 0.33 0.26 0.23 0.22 0.20 0.13
0.21 0.24 0.32 0.34 0.25 0.24 0.22 0.14 0.10 0.15 0.21 0.24 0.30 0.39 0.34 0.30 0.29 0.28 0.30 0.32 0.35 0.40 0.42 0.44 0.38 0.35 0.32 0.30 0.29 0.28 0.26 0.26 0.33 0.35 0.32 0.29 0.29 0.29 0.24 0.22 0.21 0.14 0.09 0.06

GEFSCGP_prec_meanprecacc_132.txt.gz
Total_Precipitation_Accumulation
0.00 0.00 0.00 0.00 0.00 0.00 0.00 0.00 0.01 0.01 0.01 0.00 0.02 0.06 0.11 0.14 0.16 0.23 0.26 0.30 0.38 0.56 0.87 1.06 1.14 1.24 1.43 1.62 1.87 1.84 1.90 2.07 2.25 2.52 2.53 2.71 3.07 3.46 3.69 3.87 3.97 3.93 3.82 3.76
0.00 0.00 0.00 0.00 0.00 0.00 0.00 0.00 0.01 0.02 0.01 0.01 0.04 0.12 0.17 0.18 0.19 0.25 0.34 0.36 0.37 0.48 0.75 1.10 1.19 1.40 1.60 1.76 1.97 2.09 2.15 2.47 2.93 3.33 3.77 4.18 4.47 4.48 4.62 4.66 4.64 4.49 4.34 4.16
0.00 0.00 0.00 0.00 0.00 0.00 0.00 0.00 0.01 0.02 0.03 0.05 0.08 0.23 0.30 0.29 0.31 0.36 0.39 0.40 0.44 0.58 0.79 0.98 1.15 1.41 1.62 1.78 1.99 2.14 2.42 3.06 3.85 4.23 4.56 5.11 5.44 5.26 5.05 4.82 4.74 4.65 4.63 4.58
0.00 0.00 0.00 0.00 0.00 0.00 0.00 0.01 0.01 0.03 0.04 0.08 0.11 0.29 0.46 0.48 0.50 0.44 0.47 0.52 0.59 0.70 0.85 1.01 1.18 1.40 1.71 2.00 2.07 2.25 2.75 3.50 4.17 4.64 5.19 5.72 5.95 5.97 5.82 5.33 4.89 4.46 4.11 3.92
0.00 0.00 0.01 0.01 0.01 0.00 0.01 0.00 0.01 0.03 0.05 0.08 0.10 0.26 0.58 0.70 0.74 0.70 0.70 0.68 0.66 0.70 0.86 0.98 1.10 1.29 1.49 1.77 2.14 2.40 2.94 3.62 4.30 4.98 5.63 6.02 6.23 6.22 5.81 5.01 4.27 3.82 3.51 3.23
0.00 0.00 0.01 0.01 0.01 0.00 0.01 0.01 0.01 0.03 0.05 0.10 0.10 0.23 0.65 0.97 1.08 1.07 0.97 0.91 0.79 0.68 0.72 0.83 0.99 1.07 1.35 1.63 1.94 2.36 2.67 3.30 3.97 4.55 5.04 5.21 5.37 5.33 4.92 4.44 3.92 3.52 3.07 2.57
0.01 0.01 0.01 0.01 0.01 0.01 0.01 0.02 0.08 0.14 0.18 0.18 0.13 0.26 0.70 1.05 1.07 1.01 0.99 0.98 0.88 0.70 0.70 0.88 1.09 1.02 1.24 1.55 1.88 2.27 2.67 3.06 3.55 4.05 4.50 4.74 4.87 4.69 4.24 3.82 3.41 2.95 2.50 2.08
0.05 0.04 0.02 0.01 0.01 0.02 0.01 0.03 0.14 0.25 0.29 0.31 0.31 0.52 0.89 0.99 0.93 0.87 0.84 0.80 0.78 0.76 0.74 0.82 0.97 1.02 1.24 1.45 1.74 2.09 2.41 2.73 2.92 3.10 3.42 3.64 3.79 3.65 3.33 2.88 2.43 2.15 1.90 1.64
0.13 0.11 0.04 0.02 0.01 0.02 0.02 0.04 0.10 0.12 0.15 0.32 0.59 0.83 1.13 1.09 0.92 0.88 0.82 0.76 0.77 0.77 0.74 0.78 0.90 0.99 1.19 1.47 1.72 1.97 2.10 2.26 2.41 2.51 2.56 2.61 2.72 2.62 2.39 2.12 1.85 1.59 1.35 1.16
0.13 0.18 0.08 0.03 0.02 0.02 0.03 0.04 0.06 0.10 0.24 0.42 0.67 1.06 1.34 1.47 1.33 1.12 0.90 0.83 0.77 0.80 0.78 0.78 0.84 0.89 0.97 1.10 1.35 1.57 1.68 1.75 1.80 1.85 1.89 1.91 1.92 1.84 1.75 1.59 1.40 1.18 1.03 0.88
0.14 0.20 0.12 0.04 0.04 0.05 0.04 0.05 0.07 0.11 0.15 0.34 0.69 1.27 1.49 1.73 1.76 1.45 1.10 0.97 0.93 0.93 0.86 0.81 0.80 0.76 0.79 0.84 0.98 1.17 1.30 1.33 1.39 1.46 1.43 1.38 1.44 1.39 1.31 1.26 1.17 1.03 0.92 0.81
0.15 0.20 0.19 0.10 0.08 0.06 0.05 0.08 0.12 0.20 0.21 0.24 0.59 1.43 1.82 1.93 1.81 1.48 1.25 1.12 1.07 0.98 0.85 0.76 0.70 0.62 0.64 0.69 0.73 0.82 0.92 0.92 0.97 1.01 1.02 1.07 1.11 1.13 1.08 0.99 0.89 0.75 0.66 0.62
0.11 0.22 0.41 0.41 0.31 0.16 0.10 0.10 0.11 0.12 0.19 0.30 0.65 1.63 2.18 2.10 1.91 1.60 1.36 1.28 1.26 1.13 0.95 0.78 0.63 0.53 0.54 0.60 0.63 0.66 0.70 0.72 0.73 0.73 0.76 0.85 0.88 0.91 0.86 0.77 0.74 0.67 0.57 0.52
0.09 0.22 0.51 0.90 0.70 0.38 0.22 0.13 0.13 0.17 0.31 0.45 0.70 1.17 1.47 1.56 1.62 1.63 1.69 1.72 1.55 1.28 1.08 0.87 0.72 0.60 0.59 0.63 0.62 0.63 0.63 0.61 0.63 0.64 0.69 0.76 0.76 0.77 0.75 0.66 0.57 0.53 0.49 0.48
0.14 0.28 0.29 0.35 0.34 0.32 0.28 0.22 0.19 0.22 0.28 0.56 0.85 1.17 1.45 1.49 1.51 1.57 1.72 1.63 1.42 1.26 1.11 0.97 0.86 0.79 0.71 0.64 0.60 0.62 0.69 0.68 0.69 0.72 0.71 0.71 0.67 0.66 0.65 0.62 0.56 0.50 0.44 0.42
0.16 0.26 0.28 0.34 0.29 0.32 0.32 0.30 0.29 0.34 0.41 0.63 0.96 1.37 1.59 1.56 1.50 1.54 1.63 1.57 1.41 1.20 1.05 0.97 0.93 0.92 0.81 0.72 0.64 0.60 0.68 0.72 0.75 0.76 0.72 0.70 0.67 0.64 0.60 0.57 0.55 0.50 0.44 0.37
0.20 0.33 0.45 0.47 0.31 0.46 0.68 0.52 0.49 0.52 0.55 0.74 1.11 1.34 1.41 1.44 1.42 1.48 1.57 1.64 1.53 1.31 1.19 1.17 1.18 1.15 1.02 0.88 0.78 0.75 0.76 0.78 0.80 0.83 0.79 0.77 0.70 0.63 0.59 0.51 0.47 0.46 0.46 0.38
0.21 0.34 0.44 0.45 0.56 0.92 0.86 0.47 0.50 0.58 0.61 0.66 0.79 0.95 1.11 1.20 1.23 1.35 1.53 1.63 1.61 1.51 1.45 1.45 1.40 1.28 1.15 1.03 0.95 0.87 0.81 0.86 0.90 0.87 0.82 0.74 0.63 0.56 0.53 0.52 0.48 0.43 0.41 0.39
0.11 0.29 0.45 0.57 0.82 1.02 0.85 0.51 0.45 0.67 0.78 0.63 0.67 0.70 0.72 0.75 0.84 1.18 1.36 1.44 1.47 1.49 1.44 1.33 1.24 1.19 1.12 1.03 0.95 0.85 0.79 0.77 0.79 0.74 0.69 0.62 0.58 0.56 0.54 0.53 0.53 0.48 0.42 0.38
0.11 0.20 0.47 0.63 0.87 1.15 1.02 0.46 0.28 0.55 1.09 0.78 0.69 0.68 0.69 0.78 0.91 0.98 1.00 1.01 1.08 1.12 1.14 1.11 1.05 1.00 0.95 0.88 0.79 0.72 0.68 0.64 0.62 0.58 0.56 0.50 0.50 0.52 0.54 0.49 0.49 0.45 0.41 0.37
0.36 0.39 0.51 0.64 0.85 1.04 0.54 0.28 0.39 0.95 1.27 0.87 0.72 0.68 0.73 0.85 0.81 0.64 0.64 0.73 0.84 0.92 0.96 0.94 0.92 0.90 0.79 0.64 0.59 0.61 0.58 0.53 0.44 0.41 0.45 0.47 0.48 0.48 0.47 0.46 0.47 0.45 0.41 0.39
0.45 0.57 0.59 0.68 0.94 1.09 0.41 0.32 0.63 0.78 0.61 0.60 0.60 0.58 0.56 0.51 0.42 0.44 0.49 0.55 0.60 0.70 0.81 0.79 0.73 0.66 0.58 0.52 0.54 0.58 0.54 0.43 0.35 0.38 0.45 0.49 0.47 0.41 0.41 0.46 0.47 0.44 0.40 0.37
0.38 0.44 0.54 0.70 0.89 0.67 0.29 0.29 0.35 0.33 0.39 0.40 0.39 0.38 0.33 0.30 0.31 0.33 0.39 0.45 0.49 0.54 0.62 0.63 0.57 0.53 0.53 0.53 0.55 0.54 0.48 0.40 0.39 0.42 0.47 0.47 0.43 0.40 0.41 0.44 0.45 0.43 0.39 0.33
0.34 0.22 0.30 0.47 0.52 0.32 0.21 0.17 0.18 0.20 0.25 0.27 0.31 0.37 0.32 0.29 0.28 0.30 0.33 0.39 0.46 0.49 0.49 0.51 0.49 0.47 0.51 0.51 0.49 0.47 0.40 0.39 0.43 0.46 0.46 0.45 0.44 0.43 0.39 0.36 0.34 0.36 0.34 0.30
0.28 0.25 0.34 0.41 0.35 0.26 0.23 0.15 0.10 0.12 0.16 0.19 0.28 0.38 0.37 0.31 0.31 0.31 0.32 0.37 0.43 0.47 0.50 0.51 0.48 0.45 0.43 0.42 0.39 0.36 0.34 0.37 0.42 0.42 0.40 0.41 0.42 0.40 0.37 0.30 0.26 0.26 0.21 0.14
0.21 0.25 0.34 0.38 0.26 0.24 0.22 0.14 0.10 0.15 0.21 0.24 0.31 0.40 0.35 0.31 0.30 0.29 0.32 0.34 0.38 0.43 0.45 0.47 0.42 0.38 0.36 0.33 0.33 0.32 0.30 0.30 0.37 0.39 0.35 0.32 0.32 0.32 0.28 0.25 0.23 0.16 0.10 0.06

GEFSCGP_prec_meanprecacc_138.txt.gz
Total_Precipitation_Accumulation
0.00 0.00 0.00 0.00 0.00 0.00 0.00 0.01 0.02 0.02 0.02 0.02 0.05 0.10 0.15 0.18 0.21 0.31 0.38 0.44 0.55 0.70 1.03 1.33 1.38 1.40 1.60 1.78 1.96 1.88 1.95 2.14 2.29 2.53 2.55 2.74 3.10 3.50 3.73 3.93 4.05 4.04 3.97 3.95
0.00 0.00 0.00 0.00 0.00 0.00 0.00 0.00 0.01 0.03 0.03 0.03 0.07 0.17 0.22 0.25 0.26 0.32 0.44 0.49 0.50 0.60 0.86 1.28 1.39 1.53 1.71 1.85 2.03 2.12 2.18 2.51 2.98 3.37 3.80 4.21 4.50 4.50 4.65 4.70 4.68 4.55 4.41 4.29
0.00 0.00 0.00 0.00 0.00 0.00 0.00 0.00 0.01 0.02 0.06 0.08 0.12 0.27 0.34 0.37 0.41 0.44 0.49 0.54 0.57 0.69 0.87 1.05 1.24 1.49 1.69 1.85 2.04 2.18 2.46 3.10 3.89 4.28 4.60 5.15 5.47 5.29 5.08 4.86 4.78 4.69 4.67 4.66
0.00 0.00 0.00 0.00 0.00 0.00 0.00 0.01 0.01 0.03 0.05 0.11 0.13 0.33 0.52 0.56 0.63 0.57 0.65 0.74 0.82 0.86 0.94 1.08 1.25 1.49 1.77 2.05 2.14 2.31 2.80 3.54 4.20 4.68 5.24 5.77 5.99 6.01 5.85 5.37 4.93 4.49 4.15 3.97
0.00 0.00 0.01 0.01 0.01 0.00 0.01 0.01 0.01 0.03 0.05 0.09 0.11 0.28 0.63 0.81 0.87 0.85 0.89 0.87 0.87 0.87 0.96 1.08 1.19 1.36 1.54 1.82 2.19 2.44 2.97 3.65 4.34 5.03 5.70 6.08 6.29 6.26 5.84 5.06 4.33 3.88 3.57 3.30
0.00 0.00 0.01 0.01 0.01 0.01 0.01 0.01 0.01 0.03 0.05 0.10 0.11 0.24 0.69 1.03 1.19 1.20 1.10 1.04 0.97 0.86 0.85 0.93 1.08 1.14 1.40 1.67 1.97 2.39 2.71 3.34 4.03 4.62 5.13 5.28 5.42 5.36 4.94 4.48 3.99 3.60 3.16 2.67
0.01 0.01 0.01 0.01 0.01 0.01 0.01 0.02 0.08 0.15 0.19 0.19 0.15 0.31 0.76 1.10 1.11 1.06 1.08 1.14 1.07 0.89 0.87 1.03 1.21 1.10 1.29 1.57 1.90 2.28 2.69 3.09 3.61 4.11 4.55 4.78 4.91 4.72 4.26 3.84 3.45 3.01 2.54 2.14
0.06 0.04 0.03 0.01 0.02 0.02 0.01 0.03 0.15 0.26 0.30 0.32 0.32 0.57 0.98 1.05 0.98 0.92 0.91 0.94 1.00 0.94 0.88 0.92 1.06 1.08 1.27 1.47 1.75 2.10 2.43 2.75 2.95 3.15 3.46 3.68 3.82 3.67 3.35 2.90 2.46 2.18 1.93 1.68
0.13 0.12 0.05 0.02 0.02 0.02 0.03 0.05 0.11 0.13 0.17 0.34 0.63 0.89 1.23 1.20 1.08 0.99 0.89 0.87 0.90 0.86 0.81 0.83 0.93 1.03 1.23 1.49 1.73 1.98 2.12 2.27 2.44 2.55 2.60 2.64 2.74 2.64 2.41 2.14 1.86 1.60 1.36 1.17
0.13 0.18 0.08 0.03 0.02 0.03 0.04 0.05 0.08 0.12 0.28 0.46 0.73 1.15 1.46 1.59 1.47 1.31 1.05 0.93 0.85 0.88 0.88 0.86 0.89 0.94 1.01 1.12 1.37 1.58 1.69 1.76 1.80 1.86 1.90 1.92 1.94 1.86 1.77 1.60 1.41 1.19 1.03 0.89
0.15 0.21 0.13 0.05 0.06 0.07 0.06 0.07 0.09 0.13 0.20 0.41 0.77 1.34 1.60 1.85 1.89 1.70 1.35 1.15 1.08 1.06 0.99 0.91 0.87 0.82 0.83 0.86 1.01 1.18 1.31 1.33 1.40 1.47 1.45 1.40 1.45 1.41 1.33 1.27 1.18 1.03 0.92 0.81
0.16 0.21 0.21 0.13 0.10 0.08 0.07 0.10 0.13 0.22 0.25 0.28 0.65 1.50 1.90 2.03 1.96 1.68 1.47 1.30 1.24 1.14 0.98 0.86 0.77 0.68 0.68 0.73 0.76 0.84 0.92 0.93 0.98 1.02 1.03 1.08 1.12 1.14 1.08 0.99 0.89 0.75 0.67 0.62
0.12 0.24 0.44 0.44 0.33 0.18 0.11 0.11 0.13 0.15 0.22 0.34 0.70 1.69 2.24 2.19 2.05 1.74 1.53 1.49 1.48 1.34 1.10 0.92 0.74 0.59 0.58 0.63 0.66 0.68 0.72 0.74 0.75 0.73 0.77 0.86 0.89 0.91 0.87 0.77 0.74 0.67 0.57 0.53
0.10 0.24 0.54 0.96 0.75 0.43 0.24 0.16 0.17 0.20 0.35 0.49 0.73 1.21 1.53 1.65 1.74 1.75 1.82 1.86 1.70 1.45 1.25 1.03 0.85 0.68 0.63 0.66 0.65 0.65 0.64 0.62 0.63 0.65 0.70 0.77 0.77 0.77 0.75 0.66 0.58 0.54 0.49 0.49
0.15 0.30 0.31 0.37 0.37 0.37 0.33 0.24 0.22 0.26 0.33 0.60 0.90 1.23 1.53 1.59 1.61 1.66 1.80 1.71 1.50 1.33 1.18 1.04 0.94 0.88 0.77 0.68 0.63 0.64 0.69 0.69 0.69 0.73 0.72 0.72 0.68 0.66 0.66 0.63 0.57 0.50 0.45 0.42
0.17 0.28 0.30 0.36 0.31 0.39 0.34 0.31 0.31 0.37 0.45 0.67 1.01 1.43 1.64 1.64 1.58 1.64 1.70 1.63 1.46 1.24 1.09 1.02 0.97 0.96 0.85 0.75 0.66 0.62 0.68 0.73 0.75 0.76 0.72 0.70 0.68 0.65 0.61 0.59 0.56 0.51 0.45 0.38
0.21 0.35 0.47 0.50 0.34 0.50 0.72 0.55 0.51 0.55 0.58 0.77 1.15 1.38 1.45 1.52 1.50 1.56 1.65 1.70 1.58 1.34 1.23 1.21 1.22 1.19 1.05 0.90 0.79 0.75 0.77 0.79 0.80 0.83 0.79 0.77 0.70 0.64 0.60 0.51 0.48 0.47 0.46 0.39
0.22 0.35 0.45 0.48 0.60 0.98 0.92 0.51 0.54 0.62 0.66 0.70 0.82 0.98 1.13 1.23 1.28 1.42 1.59 1.69 1.64 1.54 1.49 1.49 1.44 1.30 1.17 1.05 0.97 0.88 0.82 0.86 0.91 0.87 0.82 0.74 0.64 0.56 0.53 0.52 0.48 0.43 0.41 0.39
0.12 0.30 0.48 0.62 0.89 1.08 0.91 0.56 0.49 0.71 0.84 0.68 0.70 0.72 0.74 0.77 0.89 1.24 1.42 1.49 1.51 1.54 1.49 1.38 1.28 1.22 1.14 1.05 0.97 0.86 0.80 0.78 0.79 0.74 0.69 0.63 0.59 0.56 0.55 0.54 0.54 0.49 0.43 0.39
0.12 0.22 0.51 0.69 0.94 1.23 1.07 0.50 0.31 0.58 1.13 0.81 0.70 0.69 0.70 0.79 0.95 1.05 1.06 1.06 1.12 1.16 1.18 1.15 1.10 1.04 0.98 0.90 0.80 0.73 0.69 0.65 0.62 0.59 0.57 0.51 0.51 0.52 0.55 0.49 0.49 0.45 0.42 0.39
0.38 0.41 0.55 0.68 0.89 1.09 0.59 0.32 0.42 0.98 1.31 0.89 0.73 0.69 0.74 0.87 0.84 0.69 0.69 0.77 0.88 0.96 0.99 0.97 0.96 0.96 0.83 0.67 0.61 0.62 0.59 0.54 0.45 0.41 0.46 0.48 0.48 0.48 0.48 0.46 0.47 0.46 0.43 0.41
0.47 0.59 0.62 0.71 1.00 1.15 0.45 0.35 0.67 0.81 0.64 0.62 0.62 0.59 0.58 0.54 0.46 0.48 0.53 0.59 0.63 0.74 0.85 0.82 0.76 0.69 0.61 0.55 0.57 0.59 0.55 0.44 0.36 0.38 0.46 0.49 0.48 0.41 0.42 0.47 0.49 0.46 0.43 0.39
0.39 0.46 0.58 0.73 0.93 0.70 0.31 0.31 0.37 0.35 0.42 0.43 0.42 0.40 0.35 0.34 0.34 0.37 0.44 0.49 0.52 0.57 0.64 0.65 0.60 0.56 0.55 0.56 0.58 0.56 0.49 0.41 0.40 0.43 0.47 0.47 0.43 0.41 0.42 0.45 0.47 0.46 0.42 0.35
0.37 0.24 0.31 0.49 0.54 0.34 0.23 0.19 0.19 0.20 0.26 0.28 0.33 0.41 0.34 0.33 0.33 0.33 0.37 0.44 0.49 0.52 0.52 0.53 0.51 0.50 0.54 0.53 0.51 0.49 0.41 0.40 0.44 0.47 0.47 0.46 0.45 0.44 0.40 0.37 0.37 0.38 0.37 0.32
0.31 0.27 0.35 0.43 0.37 0.27 0.23 0.16 0.11 0.13 0.17 0.21 0.30 0.40 0.39 0.35 0.38 0.34 0.35 0.39 0.45 0.50 0.52 0.53 0.51 0.48 0.46 0.44 0.41 0.38 0.36 0.38 0.43 0.43 0.41 0.42 0.42 0.41 0.38 0.31 0.28 0.28 0.23 0.15
0.23 0.26 0.36 0.39 0.27 0.25 0.23 0.15 0.11 0.16 0.22 0.25 0.32 0.41 0.36 0.33 0.35 0.34 0.36 0.37 0.39 0.44 0.46 0.48 0.44 0.41 0.39 0.35 0.35 0.34 0.31 0.30 0.37 0.39 0.36 0.32 0.33 0.33 0.28 0.26 0.24 0.18 0.10 0.07

GEFSCGP_prec_meanprecacc_144.txt.gz
Total_Precipitation_Accumulation
0.00 0.00 0.00 0.00 0.00 0.00 0.00 0.01 0.02 0.02 0.02 0.02 0.05 0.10 0.17 0.21 0.25 0.35 0.42 0.49 0.59 0.74 1.10 1.43 1.50 1.54 1.73 1.92 2.10 2.00 2.04 2.24 2.39 2.63 2.66 2.82 3.15 3.54 3.76 3.95 4.07 4.07 4.00 3.99
0.00 0.00 0.00 0.00 0.00 0.00 0.00 0.00 0.01 0.03 0.04 0.04 0.08 0.18 0.24 0.28 0.29 0.36 0.49 0.55 0.56 0.67 0.94 1.36 1.47 1.62 1.81 1.96 2.12 2.20 2.27 2.60 3.08 3.48 3.89 4.26 4.54 4.54 4.69 4.73 4.71 4.57 4.44 4.32
0.00 0.00 0.00 0.00 0.00 0.00 0.00 0.00 0.01 0.03 0.06 0.09 0.13 0.28 0.36 0.39 0.45 0.49 0.55 0.61 0.67 0.79 0.96 1.14 1.34 1.58 1.80 1.97 2.17 2.28 2.55 3.18 3.97 4.35 4.67 5.21 5.51 5.32 5.11 4.89 4.81 4.71 4.69 4.69
0.00 0.00 0.00 0.00 0.00 0.00 0.00 0.01 0.01 0.03 0.05 0.11 0.14 0.34 0.54 0.59 0.66 0.61 0.69 0.82 0.93 0.96 1.03 1.18 1.37 1.61 1.91 2.20 2.28 2.42 2.89 3.61 4.27 4.73 5.29 5.81 6.03 6.04 5.88 5.40 4.96 4.52 4.18 3.99
0.00 0.00 0.01 0.01 0.01 0.00 0.01 0.01 0.01 0.04 0.05 0.09 0.12 0.28 0.64 0.83 0.89 0.86 0.93 0.93 0.96 0.96 1.06 1.20 1.33 1.51 1.70 1.98 2.35 2.59 3.08 3.74 4.40 5.09 5.76 6.13 6.32 6.29 5.87 5.09 4.35 3.90 3.59 3.32
0.00 0.00 0.01 0.01 0.01 0.01 0.01 0.01 0.02 0.04 0.06 0.11 0.11 0.25 0.69 1.04 1.21 1.22 1.14 1.09 1.03 0.96 0.98 1.07 1.23 1.31 1.59 1.85 2.12 2.51 2.80 3.42 4.11 4.69 5.18 5.32 5.46 5.39 4.96 4.50 4.01 3.62 3.17 2.68
0.01 0.01 0.01 0.01 0.01 0.01 0.01 0.02 0.08 0.16 0.19 0.19 0.15 0.31 0.76 1.10 1.12 1.08 1.11 1.18 1.13 0.98 0.99 1.15 1.36 1.28 1.50 1.74 2.02 2.38 2.77 3.16 3.66 4.16 4.58 4.82 4.93 4.75 4.29 3.87 3.48 3.03 2.56 2.15
0.06 0.04 0.03 0.01 0.02 0.02 0.01 0.03 0.15 0.26 0.30 0.32 0.32 0.57 0.98 1.05 0.99 0.94 0.93 0.98 1.07 1.04 0.99 1.04 1.18 1.21 1.41 1.60 1.85 2.18 2.49 2.78 2.98 3.17 3.49 3.72 3.87 3.73 3.40 2.95 2.49 2.21 1.94 1.68
0.13 0.12 0.05 0.02 0.02 0.02 0.03 0.05 0.11 0.13 0.17 0.34 0.64 0.90 1.24 1.21 1.08 1.00 0.91 0.89 0.94 0.91 0.88 0.93 1.04 1.15 1.33 1.58 1.81 2.05 2.17 2.31 2.46 2.57 2.62 2.67 2.78 2.68 2.45 2.18 1.90 1.63 1.38 1.18
0.13 0.18 0.08 0.03 0.02 0.03 0.04 0.06 0.08 0.12 0.28 0.47 0.73 1.15 1.46 1.59 1.48 1.32 1.05 0.95 0.88 0.93 0.94 0.94 0.99 1.06 1.12 1.21 1.46 1.66 1.74 1.80 1.85 1.88 1.92 1.94 1.95 1.88 1.79 1.63 1.43 1.21 1.05 0.89
0.15 0.21 0.13 0.06 0.06 0.07 0.06 0.07 0.09 0.14 0.21 0.42 0.78 1.35 1.60 1.86 1.91 1.71 1.36 1.18 1.12 1.12 1.06 1.00 1.00 0.96 0.97 0.98 1.11 1.29 1.42 1.42 1.46 1.51 1.47 1.41 1.46 1.42 1.34 1.28 1.19 1.05 0.94 0.82
0.16 0.22 0.21 0.13 0.10 0.08 0.08 0.11 0.15 0.23 0.26 0.29 0.66 1.50 1.90 2.03 1.97 1.69 1.49 1.33 1.27 1.19 1.06 0.96 0.90 0.81 0.80 0.84 0.87 0.94 1.03 1.04 1.05 1.06 1.06 1.11 1.14 1.15 1.10 1.00 0.90 0.76 0.68 0.63
0.13 0.25 0.45 0.44 0.34 0.18 0.12 0.13 0.15 0.16 0.24 0.35 0.71 1.70 2.25 2.20 2.05 1.76 1.55 1.51 1.51 1.38 1.18 1.06 0.91 0.76 0.73 0.77 0.78 0.78 0.81 0.83 0.84 0.79 0.81 0.89 0.91 0.93 0.88 0.78 0.75 0.68 0.57 0.53
0.10 0.25 0.55 0.96 0.75 0.43 0.24 0.16 0.18 0.22 0.36 0.50 0.74 1.22 1.54 1.66 1.75 1.76 1.84 1.89 1.73 1.49 1.29 1.10 0.98 0.84 0.75 0.78 0.75 0.74 0.74 0.70 0.70 0.70 0.73 0.79 0.78 0.78 0.76 0.67 0.58 0.54 0.50 0.49
0.16 0.31 0.32 0.38 0.38 0.37 0.34 0.25 0.23 0.27 0.33 0.60 0.90 1.24 1.54 1.60 1.62 1.67 1.82 1.74 1.53 1.36 1.21 1.08 1.00 0.97 0.86 0.76 0.69 0.70 0.75 0.73 0.74 0.75 0.73 0.73 0.69 0.67 0.66 0.63 0.57 0.50 0.45 0.42
0.18 0.30 0.31 0.37 0.33 0.40 0.35 0.32 0.32 0.37 0.45 0.67 1.02 1.43 1.64 1.65 1.59 1.64 1.71 1.65 1.49 1.27 1.12 1.04 1.00 1.02 0.91 0.80 0.70 0.66 0.72 0.75 0.78 0.79 0.74 0.71 0.68 0.66 0.62 0.59 0.56 0.51 0.45 0.38
0.23 0.37 0.48 0.51 0.35 0.51 0.73 0.55 0.52 0.56 0.60 0.78 1.17 1.39 1.45 1.53 1.52 1.57 1.66 1.73 1.61 1.38 1.26 1.24 1.26 1.25 1.12 0.96 0.84 0.79 0.81 0.82 0.82 0.85 0.81 0.78 0.71 0.64 0.60 0.52 0.48 0.47 0.47 0.39
0.23 0.37 0.47 0.49 0.60 0.99 0.93 0.52 0.55 0.63 0.66 0.72 0.84 0.99 1.14 1.23 1.29 1.43 1.61 1.73 1.69 1.58 1.52 1.52 1.47 1.35 1.22 1.10 1.01 0.92 0.86 0.89 0.93 0.89 0.83 0.74 0.64 0.56 0.53 0.52 0.49 0.43 0.41 0.39
0.13 0.31 0.49 0.63 0.89 1.09 0.91 0.56 0.49 0.72 0.85 0.68 0.70 0.72 0.74 0.77 0.91 1.26 1.45 1.52 1.55 1.58 1.53 1.42 1.33 1.25 1.18 1.08 1.00 0.89 0.83 0.80 0.81 0.76 0.70 0.63 0.59 0.57 0.55 0.54 0.54 0.49 0.43 0.39
0.12 0.23 0.52 0.70 0.95 1.23 1.08 0.51 0.31 0.59 1.14 0.82 0.70 0.69 0.70 0.79 0.96 1.07 1.09 1.10 1.15 1.20 1.22 1.21 1.15 1.08 1.01 0.92 0.82 0.76 0.71 0.68 0.65 0.61 0.58 0.52 0.51 0.53 0.55 0.50 0.49 0.46 0.42 0.39
0.38 0.42 0.56 0.69 0.90 1.09 0.59 0.32 0.43 0.99 1.31 0.89 0.74 0.70 0.75 0.87 0.84 0.70 0.70 0.79 0.91 0.98 1.02 1.01 1.01 1.00 0.87 0.71 0.64 0.66 0.63 0.57 0.47 0.43 0.47 0.48 0.49 0.49 0.48 0.47 0.48 0.47 0.44 0.42
0.48 0.59 0.63 0.71 1.00 1.15 0.45 0.35 0.68 0.82 0.64 0.63 0.63 0.60 0.59 0.55 0.47 0.49 0.54 0.60 0.65 0.76 0.87 0.84 0.79 0.73 0.64 0.58 0.61 0.63 0.60 0.48 0.39 0.40 0.46 0.49 0.48 0.42 0.42 0.48 0.50 0.47 0.44 0.41
0.40 0.46 0.58 0.74 0.93 0.70 0.32 0.32 0.38 0.36 0.42 0.43 0.42 0.41 0.36 0.35 0.35 0.37 0.45 0.51 0.54 0.58 0.66 0.67 0.63 0.59 0.58 0.60 0.63 0.61 0.54 0.45 0.43 0.44 0.48 0.47 0.44 0.42 0.42 0.46 0.48 0.48 0.45 0.37
0.37 0.24 0.31 0.49 0.54 0.35 0.23 0.19 0.19 0.21 0.27 0.29 0.34 0.42 0.36 0.35 0.34 0.34 0.38 0.44 0.51 0.53 0.54 0.55 0.54 0.53 0.57 0.57 0.55 0.53 0.45 0.44 0.47 0.49 0.48 0.46 0.46 0.44 0.40 0.38 0.37 0.39 0.39 0.35
0.31 0.27 0.36 0.43 0.37 0.27 0.24 0.17 0.11 0.13 0.17 0.21 0.31 0.41 0.41 0.37 0.39 0.37 0.37 0.41 0.47 0.51 0.53 0.54 0.53 0.51 0.49 0.48 0.45 0.42 0.40 0.41 0.45 0.45 0.42 0.42 0.43 0.41 0.38 0.32 0.28 0.28 0.25 0.18
0.23 0.26 0.36 0.40 0.28 0.26 0.23 0.15 0.11 0.17 0.23 0.26 0.32 0.41 0.37 0.33 0.36 0.36 0.40 0.41 0.43 0.46 0.47 0.50 0.45 0.43 0.40 0.37 0.37 0.37 0.35 0.34 0.40 0.41 0.37 0.34 0.34 0.33 0.29 0.27 0.25 0.18 0.12 0.09

GEFSCGP_prec_meanprecacc_150.txt.gz
Total_Precipitation_Accumulation
0.00 0.00 0.00 0.00 0.00 0.00 0.00 0.01 0.02 0.02 0.02 0.02 0.05 0.11 0.17 0.21 0.25 0.35 0.43 0.50 0.61 0.78 1.13 1.45 1.52 1.57 1.80 2.02 2.19 2.11 2.17 2.37 2.52 2.76 2.77 2.91 3.24 3.61 3.81 4.00 4.12 4.11 4.04 4.03
0.00 0.00 0.00 0.00 0.00 0.00 0.00 0.00 0.01 0.03 0.04 0.04 0.08 0.18 0.25 0.28 0.29 0.37 0.50 0.56 0.57 0.70 0.98 1.39 1.50 1.65 1.85 2.02 2.22 2.33 2.40 2.73 3.19 3.60 3.99 4.34 4.61 4.59 4.74 4.78 4.75 4.59 4.46 4.35
0.00 0.00 0.00 0.00 0.00 0.00 0.00 0.00 0.01 0.03 0.06 0.09 0.13 0.28 0.36 0.39 0.45 0.50 0.57 0.62 0.69 0.82 1.00 1.17 1.38 1.63 1.86 2.03 2.27 2.44 2.70 3.31 4.10 4.47 4.76 5.28 5.57 5.37 5.16 4.93 4.83 4.73 4.71 4.70
0.00 0.00 0.00 0.00 0.00 0.00 0.00 0.01 0.01 0.03 0.05 0.11 0.14 0.34 0.54 0.59 0.66 0.61 0.70 0.83 0.95 0.99 1.07 1.22 1.41 1.67 1.98 2.28 2.39 2.55 3.01 3.73 4.37 4.82 5.36 5.88 6.10 6.10 5.93 5.44 4.99 4.54 4.20 4.01
0.00 0.00 0.01 0.01 0.01 0.00 0.01 0.01 0.01 0.04 0.05 0.09 0.12 0.29 0.64 0.83 0.89 0.87 0.93 0.94 0.97 1.00 1.11 1.25 1.39 1.59 1.79 2.07 2.47 2.71 3.19 3.84 4.50 5.17 5.82 6.18 6.38 6.34 5.91 5.12 4.37 3.91 3.61 3.33
0.00 0.00 0.01 0.01 0.01 0.01 0.01 0.01 0.02 0.04 0.06 0.11 0.11 0.25 0.70 1.04 1.21 1.23 1.14 1.09 1.05 0.99 1.03 1.13 1.31 1.40 1.68 1.96 2.24 2.64 2.93 3.53 4.19 4.75 5.24 5.37 5.51 5.44 5.01 4.54 4.04 3.64 3.19 2.70
0.01 0.01 0.01 0.01 0.01 0.01 0.01 0.02 0.08 0.16 0.19 0.19 0.15 0.32 0.77 1.10 1.13 1.08 1.11 1.19 1.15 1.00 1.04 1.22 1.45 1.37 1.58 1.83 2.13 2.50 2.89 3.27 3.75 4.22 4.64 4.87 4.99 4.81 4.36 3.91 3.51 3.06 2.58 2.17
0.06 0.04 0.03 0.01 0.02 0.02 0.01 0.03 0.15 0.26 0.30 0.32 0.33 0.58 0.98 1.06 0.99 0.94 0.94 0.99 1.08 1.08 1.05 1.10 1.24 1.30 1.50 1.68 1.94 2.28 2.59 2.89 3.07 3.24 3.55 3.77 3.92 3.78 3.45 2.98 2.52 2.22 1.96 1.70
0.13 0.12 0.05 0.02 0.02 0.02 0.03 0.05 0.11 0.13 0.17 0.34 0.64 0.90 1.24 1.21 1.09 1.00 0.91 0.90 0.95 0.92 0.90 0.96 1.08 1.20 1.40 1.67 1.89 2.14 2.27 2.41 2.55 2.64 2.68 2.72 2.81 2.71 2.48 2.20 1.91 1.64 1.39 1.19
0.13 0.18 0.08 0.03 0.03 0.03 0.04 0.06 0.08 0.13 0.29 0.47 0.74 1.16 1.47 1.60 1.49 1.32 1.06 0.96 0.89 0.94 0.95 0.97 1.03 1.12 1.21 1.30 1.54 1.76 1.84 1.90 1.95 1.97 1.99 1.99 1.97 1.90 1.81 1.64 1.44 1.21 1.06 0.91
0.15 0.21 0.13 0.06 0.06 0.07 0.06 0.08 0.10 0.15 0.21 0.43 0.79 1.36 1.61 1.87 1.92 1.71 1.37 1.19 1.13 1.13 1.08 1.03 1.04 1.03 1.05 1.06 1.19 1.39 1.53 1.52 1.56 1.61 1.56 1.47 1.50 1.45 1.36 1.29 1.20 1.06 0.96 0.85
0.17 0.22 0.21 0.13 0.10 0.08 0.08 0.11 0.16 0.25 0.27 0.30 0.67 1.52 1.91 2.04 1.98 1.70 1.50 1.34 1.28 1.21 1.08 1.00 0.93 0.85 0.85 0.90 0.94 1.02 1.15 1.17 1.17 1.17 1.17 1.19 1.19 1.18 1.12 1.02 0.92 0.79 0.71 0.66
0.13 0.26 0.45 0.45 0.34 0.18 0.12 0.13 0.16 0.18 0.25 0.37 0.72 1.71 2.26 2.21 2.06 1.77 1.57 1.53 1.52 1.40 1.21 1.08 0.94 0.80 0.78 0.82 0.85 0.89 0.95 1.00 1.02 0.95 0.95 1.00 0.99 0.97 0.91 0.81 0.77 0.69 0.59 0.54
0.10 0.25 0.56 0.97 0.76 0.44 0.25 0.17 0.19 0.23 0.38 0.52 0.75 1.24 1.56 1.68 1.76 1.78 1.86 1.91 1.76 1.52 1.32 1.12 1.01 0.89 0.84 0.87 0.83 0.83 0.84 0.82 0.84 0.82 0.82 0.88 0.85 0.83 0.79 0.69 0.60 0.55 0.51 0.50
0.16 0.31 0.32 0.38 0.38 0.38 0.35 0.26 0.24 0.28 0.35 0.62 0.91 1.25 1.55 1.62 1.64 1.68 1.83 1.75 1.54 1.38 1.23 1.10 1.04 1.05 0.97 0.88 0.81 0.78 0.83 0.79 0.80 0.82 0.79 0.78 0.72 0.69 0.68 0.65 0.58 0.51 0.46 0.43
0.18 0.30 0.31 0.37 0.33 0.41 0.37 0.33 0.32 0.38 0.46 0.68 1.02 1.44 1.65 1.66 1.61 1.66 1.73 1.66 1.50 1.28 1.14 1.07 1.04 1.09 1.01 0.91 0.80 0.74 0.78 0.81 0.83 0.84 0.78 0.75 0.71 0.68 0.64 0.61 0.58 0.53 0.45 0.38
0.24 0.38 0.50 0.53 0.37 0.53 0.74 0.56 0.53 0.57 0.60 0.80 1.18 1.40 1.46 1.54 1.54 1.59 1.67 1.74 1.63 1.39 1.29 1.28 1.31 1.30 1.18 1.04 0.91 0.85 0.85 0.87 0.88 0.91 0.86 0.82 0.75 0.67 0.62 0.54 0.49 0.49 0.48 0.40
0.24 0.38 0.49 0.51 0.62 1.01 0.94 0.52 0.55 0.64 0.67 0.72 0.84 0.99 1.14 1.25 1.30 1.44 1.61 1.74 1.70 1.60 1.55 1.56 1.52 1.39 1.27 1.14 1.06 0.97 0.90 0.94 0.98 0.93 0.86 0.77 0.67 0.58 0.55 0.54 0.50 0.45 0.43 0.40
0.14 0.33 0.52 0.66 0.92 1.11 0.92 0.56 0.49 0.72 0.85 0.68 0.71 0.73 0.75 0.78 0.92 1.28 1.46 1.53 1.56 1.60 1.56 1.45 1.36 1.28 1.21 1.11 1.03 0.95 0.89 0.85 0.85 0.80 0.73 0.65 0.61 0.58 0.56 0.55 0.55 0.50 0.44 0.40
0.13 0.24 0.55 0.73 0.98 1.25 1.09 0.51 0.31 0.59 1.15 0.82 0.71 0.70 0.72 0.81 0.98 1.08 1.10 1.11 1.16 1.21 1.23 1.22 1.17 1.10 1.04 0.95 0.85 0.79 0.75 0.71 0.68 0.65 0.63 0.55 0.53 0.55 0.57 0.52 0.51 0.47 0.43 0.41
0.40 0.43 0.58 0.72 0.93 1.11 0.60 0.32 0.43 1.01 1.33 0.90 0.75 0.72 0.78 0.89 0.86 0.71 0.70 0.80 0.92 0.99 1.03 1.03 1.04 1.04 0.91 0.75 0.68 0.69 0.66 0.60 0.49 0.45 0.50 0.52 0.51 0.51 0.50 0.49 0.50 0.48 0.45 0.43
0.49 0.61 0.65 0.74 1.03 1.17 0.46 0.35 0.69 0.83 0.65 0.63 0.63 0.61 0.60 0.57 0.48 0.50 0.55 0.60 0.65 0.76 0.88 0.86 0.82 0.77 0.69 0.63 0.64 0.67 0.64 0.50 0.40 0.42 0.51 0.55 0.51 0.43 0.44 0.50 0.52 0.49 0.45 0.42
0.41 0.48 0.60 0.76 0.95 0.71 0.32 0.32 0.38 0.36 0.43 0.44 0.43 0.42 0.36 0.36 0.36 0.38 0.46 0.51 0.55 0.59 0.68 0.70 0.67 0.64 0.64 0.64 0.67 0.64 0.57 0.48 0.44 0.47 0.52 0.54 0.49 0.44 0.44 0.48 0.50 0.50 0.46 0.39
0.38 0.26 0.33 0.51 0.55 0.35 0.24 0.20 0.19 0.21 0.27 0.29 0.34 0.42 0.36 0.35 0.34 0.34 0.38 0.46 0.53 0.55 0.56 0.57 0.58 0.58 0.62 0.60 0.59 0.56 0.48 0.47 0.50 0.52 0.51 0.51 0.51 0.49 0.43 0.40 0.39 0.41 0.40 0.36
0.33 0.29 0.37 0.45 0.38 0.29 0.25 0.18 0.12 0.14 0.18 0.21 0.31 0.42 0.42 0.38 0.40 0.37 0.38 0.43 0.49 0.53 0.55 0.56 0.56 0.57 0.53 0.50 0.47 0.44 0.42 0.44 0.49 0.49 0.46 0.45 0.46 0.45 0.42 0.34 0.30 0.29 0.25 0.19
0.24 0.27 0.38 0.41 0.29 0.28 0.25 0.17 0.12 0.18 0.23 0.26 0.33 0.42 0.38 0.34 0.37 0.37 0.41 0.42 0.44 0.47 0.49 0.52 0.48 0.47 0.45 0.39 0.39 0.38 0.36 0.36 0.44 0.45 0.40 0.36 0.36 0.36 0.31 0.29 0.26 0.19 0.13 0.10